[[{"header":{"parameterUnit":"m.s-1","parameterCategory":1,"la1":30.6,"la2":29.2853,"lo1":-89.7004,"lo2":-87.6739,"dx":0.0162,"dy":0.0183,"nx":112,"ny":82,"refTime":"2022-12-19T06:00:00:Z","depth":0,"parameterNumber":2,"parameterNumberName":"U-component_of_WINDS"},"data":[0.0,0.0,0.0,0.0,0.0,0.0,0.0,0.0,0.0,0.0,0.0,0.0,0.0,0.0,0.0,0.0,0.0,0.0,0.0,0.0,0.0,0.0,0.0,0.0,0.0,0.0,0.0,0.0,0.0,0.0,0.0,0.0,0.0,0.0,0.0,0.0,0.0,0.0,0.0,0.0,0.0,0.0,0.0,0.0,0.0,0.0,0.0,0.0,0.0,0.0,0.0,0.0,0.0,0.0,0.0,0.0,0.0,0.0,0.0,0.0,0.0,0.0,0.0,0.0,0.0,0.0,0.0,0.0,0.0,0.0,0.0,0.0,0.0,0.0,0.0,0.0,0.0,0.0,0.0,0.0,0.0,0.0,0.0,0.0,0.0,0.0,0.0,0.0,0.0,0.0,0.0,5.8995,6.1031,6.235,6.2221,6.2885,6.2087,5.9264,0.0,0.0,0.0,0.0,0.0,0.0,0.0,0.0,0.0,0.0,0.0,0.0,0.0,0.0,0.0,0.0,0.0,0.0,0.0,0.0,0.0,0.0,0.0,0.0,0.0,0.0,0.0,0.0,0.0,0.0,0.0,0.0,0.0,0.0,0.0,0.0,0.0,0.0,0.0,0.0,0.0,0.0,0.0,0.0,0.0,0.0,0.0,0.0,0.0,0.0,0.0,0.0,0.0,0.0,0.0,0.0,0.0,0.0,0.0,0.0,0.0,0.0,0.0,0.0,0.0,0.0,0.0,0.0,0.0,0.0,0.0,0.0,0.0,0.0,0.0,0.0,0.0,0.0,0.0,0.0,0.0,0.0,0.0,0.0,0.0,0.0,0.0,0.0,0.0,0.0,0.0,0.0,0.0,0.0,0.0,0.0,0.0,0.0,0.0,0.0,0.0,0.0,0.0,0.0,5.9393,6.2219,6.3425,6.4051,6.4103,6.4085,6.3006,6.0414,0.0,0.0,0.0,0.0,0.0,0.0,0.0,0.0,0.0,0.0,0.0,0.0,0.0,0.0,0.0,0.0,0.0,0.0,0.0,0.0,0.0,0.0,0.0,0.0,0.0,0.0,0.0,0.0,0.0,0.0,0.0,0.0,0.0,0.0,0.0,0.0,0.0,0.0,0.0,0.0,0.0,0.0,0.0,0.0,0.0,0.0,0.0,0.0,0.0,0.0,0.0,0.0,0.0,0.0,0.0,0.0,0.0,0.0,0.0,0.0,0.0,0.0,0.0,0.0,0.0,0.0,0.0,0.0,0.0,0.0,0.0,0.0,0.0,0.0,0.0,0.0,0.0,0.0,0.0,0.0,0.0,0.0,0.0,0.0,0.0,0.0,0.0,0.0,0.0,0.0,0.0,0.0,0.0,0.0,0.0,0.0,0.0,0.0,0.0,0.0,0.0,0.0,0.0,5.91,6.0776,6.24,6.3322,6.3604,6.3182,6.3936,6.3307,6.0724,6.0015,0.0,0.0,0.0,0.0,0.0,0.0,0.0,0.0,0.0,0.0,0.0,0.0,0.0,0.0,0.0,0.0,0.0,0.0,0.0,0.0,0.0,0.0,0.0,0.0,0.0,0.0,0.0,0.0,0.0,0.0,0.0,0.0,0.0,0.0,0.0,0.0,0.0,0.0,0.0,0.0,0.0,0.0,0.0,0.0,0.0,0.0,0.0,0.0,0.0,0.0,0.0,0.0,0.0,0.0,0.0,0.0,0.0,0.0,0.0,0.0,0.0,0.0,0.0,0.0,0.0,0.0,0.0,0.0,0.0,0.0,0.0,0.0,0.0,0.0,0.0,0.0,0.0,0.0,0.0,0.0,0.0,0.0,0.0,0.0,0.0,0.0,0.0,0.0,0.0,0.0,0.0,0.0,0.0,0.0,0.0,0.0,0.0,0.0,0.0,0.0,0.0,0.0,6.1184,6.2246,6.2285,6.3271,6.354,6.2644,6.3924,6.3667,6.1057,6.0851,0.0,0.0,0.0,0.0,0.0,0.0,0.0,0.0,0.0,0.0,0.0,0.0,0.0,0.0,0.0,0.0,0.0,0.0,0.0,0.0,0.0,0.0,0.0,0.0,0.0,0.0,0.0,0.0,0.0,0.0,0.0,0.0,0.0,0.0,0.0,0.0,0.0,0.0,0.0,0.0,0.0,0.0,0.0,0.0,0.0,0.0,0.0,0.0,0.0,0.0,0.0,0.0,0.0,0.0,0.0,0.0,0.0,0.0,0.0,0.0,0.0,0.0,0.0,0.0,0.0,0.0,0.0,0.0,0.0,0.0,0.0,0.0,0.0,0.0,0.0,0.0,0.0,0.0,0.0,0.0,0.0,0.0,0.0,0.0,0.0,0.0,0.0,0.0,0.0,0.0,0.0,0.0,0.0,0.0,0.0,0.0,0.0,0.0,0.0,0.0,0.0,0.0,6.2068,6.318,6.318,6.4629,6.5256,6.4411,6.5087,6.443,6.1885,6.1732,0.0,0.0,0.0,0.0,0.0,0.0,0.0,0.0,0.0,0.0,0.0,0.0,0.0,0.0,0.0,0.0,0.0,0.0,0.0,0.0,0.0,0.0,0.0,0.0,0.0,0.0,0.0,0.0,0.0,0.0,0.0,0.0,0.0,0.0,0.0,0.0,0.0,0.0,0.0,0.0,0.0,0.0,0.0,0.0,0.0,0.0,0.0,0.0,0.0,0.0,0.0,0.0,0.0,0.0,0.0,0.0,0.0,0.0,0.0,0.0,0.0,0.0,0.0,0.0,0.0,0.0,0.0,0.0,0.0,0.0,0.0,0.0,0.0,0.0,0.0,0.0,0.0,0.0,0.0,0.0,0.0,0.0,0.0,0.0,0.0,0.0,0.0,0.0,0.0,0.0,0.0,0.0,0.0,0.0,0.0,0.0,0.0,0.0,0.0,0.0,0.0,0.0,6.2618,6.3847,0.0,6.4334,6.4693,6.3809,6.5,6.4653,6.2015,0.0,0.0,0.0,0.0,0.0,0.0,0.0,0.0,0.0,0.0,0.0,0.0,0.0,0.0,0.0,0.0,0.0,0.0,0.0,0.0,0.0,0.0,0.0,0.0,0.0,0.0,0.0,0.0,0.0,0.0,0.0,0.0,0.0,0.0,0.0,0.0,0.0,0.0,0.0,0.0,0.0,0.0,0.0,0.0,0.0,0.0,0.0,0.0,0.0,0.0,0.0,0.0,0.0,0.0,0.0,0.0,0.0,0.0,0.0,0.0,0.0,0.0,0.0,0.0,0.0,0.0,0.0,0.0,0.0,0.0,0.0,0.0,0.0,0.0,0.0,0.0,0.0,0.0,0.0,0.0,0.0,0.0,0.0,0.0,0.0,0.0,0.0,0.0,0.0,0.0,0.0,0.0,0.0,0.0,0.0,0.0,0.0,0.0,0.0,0.0,0.0,0.0,6.1697,6.3386,6.4308,0.0,6.4474,6.4782,6.4166,6.5436,6.5385,6.3283,0.0,0.0,0.0,0.0,0.0,0.0,0.0,0.0,0.0,0.0,0.0,0.0,0.0,0.0,0.0,0.0,0.0,0.0,0.0,0.0,0.0,0.0,0.0,0.0,0.0,0.0,0.0,0.0,0.0,0.0,0.0,0.0,0.0,0.0,0.0,0.0,0.0,0.0,0.0,0.0,0.0,0.0,0.0,0.0,0.0,0.0,0.0,0.0,0.0,0.0,0.0,0.0,0.0,0.0,0.0,0.0,0.0,0.0,0.0,0.0,0.0,0.0,0.0,0.0,0.0,0.0,0.0,0.0,0.0,0.0,0.0,0.0,0.0,0.0,0.0,0.0,0.0,0.0,0.0,0.0,0.0,0.0,0.0,0.0,0.0,0.0,0.0,0.0,0.0,0.0,0.0,0.0,0.0,0.0,0.0,0.0,0.0,0.0,0.0,0.0,0.0,0.0,6.4101,6.4513,6.4589,6.4628,6.5397,6.5897,6.5897,6.6628,6.6718,0.0,0.0,0.0,0.0,0.0,0.0,0.0,0.0,0.0,0.0,0.0,0.0,0.0,0.0,0.0,0.0,0.0,0.0,0.0,0.0,0.0,0.0,0.0,0.0,0.0,0.0,0.0,0.0,0.0,0.0,0.0,0.0,0.0,0.0,0.0,0.0,0.0,0.0,0.0,0.0,0.0,0.0,0.0,0.0,0.0,0.0,0.0,0.0,0.0,0.0,0.0,0.0,0.0,0.0,0.0,0.0,0.0,0.0,0.0,0.0,0.0,0.0,0.0,0.0,0.0,0.0,0.0,0.0,0.0,0.0,0.0,0.0,0.0,0.0,0.0,0.0,0.0,0.0,0.0,0.0,0.0,0.0,0.0,0.0,0.0,0.0,0.0,0.0,0.0,0.0,0.0,0.0,0.0,0.0,0.0,0.0,0.0,0.0,0.0,0.0,0.0,0.0,0.0,0.0,6.4539,6.4859,6.5436,6.5743,6.5897,6.5897,6.6628,6.6718,6.5858,0.0,0.0,0.0,0.0,0.0,0.0,0.0,0.0,0.0,0.0,0.0,0.0,0.0,0.0,0.0,0.0,0.0,0.0,0.0,0.0,0.0,0.0,0.0,0.0,0.0,0.0,0.0,0.0,0.0,0.0,0.0,0.0,0.0,0.0,0.0,0.0,0.0,0.0,0.0,0.0,0.0,0.0,0.0,0.0,0.0,0.0,0.0,0.0,0.0,0.0,0.0,0.0,0.0,0.0,0.0,0.0,0.0,0.0,0.0,0.0,0.0,0.0,0.0,0.0,0.0,0.0,0.0,0.0,0.0,0.0,0.0,0.0,0.0,0.0,0.0,0.0,0.0,0.0,0.0,0.0,0.0,0.0,0.0,0.0,0.0,0.0,0.0,0.0,0.0,0.0,0.0,0.0,0.0,0.0,0.0,0.0,0.0,0.0,0.0,0.0,0.0,0.0,6.5333,6.5269,6.532,6.582,6.5897,6.5897,6.5897,6.6628,6.7051,6.6845,0.0,0.0,0.0,0.0,0.0,0.0,0.0,0.0,0.0,0.0,0.0,0.0,0.0,0.0,0.0,0.0,0.0,0.0,0.0,0.0,0.0,0.0,0.0,0.0,0.0,0.0,0.0,0.0,0.0,0.0,0.0,0.0,0.0,0.0,0.0,0.0,0.0,0.0,0.0,0.0,0.0,0.0,0.0,0.0,0.0,0.0,0.0,0.0,0.0,0.0,0.0,0.0,0.0,0.0,0.0,0.0,0.0,0.0,0.0,0.0,0.0,0.0,0.0,0.0,0.0,0.0,0.0,0.0,0.0,0.0,0.0,0.0,0.0,0.0,0.0,0.0,0.0,0.0,0.0,0.0,0.0,0.0,0.0,0.0,0.0,0.0,0.0,0.0,0.0,0.0,0.0,0.0,0.0,0.0,0.0,0.0,0.0,0.0,0.0,0.0,0.0,0.0,6.6792,6.6372,6.5897,6.5897,6.5897,6.5897,6.5897,6.6551,6.7359,6.8244,0.0,0.0,0.0,0.0,0.0,0.0,0.0,0.0,0.0,0.0,0.0,0.0,0.0,0.0,0.0,0.0,0.0,0.0,0.0,0.0,0.0,0.0,0.0,0.0,0.0,0.0,0.0,0.0,0.0,0.0,0.0,0.0,0.0,0.0,0.0,0.0,0.0,0.0,0.0,0.0,0.0,0.0,0.0,0.0,0.0,0.0,0.0,0.0,0.0,0.0,0.0,0.0,0.0,0.0,0.0,0.0,0.0,0.0,0.0,0.0,5.5344,0.0,0.0,0.0,0.0,0.0,0.0,0.0,0.0,0.0,0.0,0.0,0.0,0.0,0.0,0.0,0.0,0.0,0.0,0.0,0.0,0.0,0.0,0.0,0.0,0.0,0.0,0.0,0.0,0.0,0.0,0.0,0.0,0.0,0.0,0.0,0.0,0.0,0.0,0.0,0.0,0.0,6.7025,6.6397,6.5897,6.5897,6.5897,6.5897,6.5897,6.6051,6.6513,6.7321,0.0,0.0,0.0,0.0,0.0,0.0,0.0,0.0,0.0,0.0,0.0,0.0,0.0,0.0,0.0,0.0,0.0,0.0,0.0,0.0,0.0,0.0,0.0,0.0,0.0,0.0,0.0,0.0,0.0,0.0,0.0,0.0,0.0,0.0,0.0,0.0,0.0,0.0,0.0,0.0,0.0,0.0,0.0,0.0,0.0,0.0,0.0,0.0,0.0,0.0,0.0,0.0,0.0,0.0,0.0,0.0,0.0,0.0,0.0,0.0,0.0,5.6434,0.0,0.0,0.0,0.0,0.0,0.0,0.0,0.0,0.0,0.0,0.0,0.0,0.0,0.0,0.0,0.0,0.0,0.0,0.0,0.0,0.0,0.0,0.0,0.0,0.0,0.0,0.0,0.0,0.0,0.0,0.0,0.0,0.0,0.0,0.0,0.0,0.0,0.0,0.0,0.0,6.7667,6.6974,6.6474,6.6474,6.6859,6.709,6.709,6.6705,6.7013,6.8282,6.7895,0.0,0.0,0.0,0.0,0.0,0.0,0.0,0.0,0.0,0.0,0.0,0.0,0.0,0.0,0.0,0.0,0.0,0.0,0.0,0.0,0.0,0.0,0.0,0.0,0.0,0.0,0.0,0.0,0.0,0.0,0.0,0.0,0.0,0.0,0.0,0.0,0.0,0.0,0.0,0.0,0.0,0.0,0.0,0.0,0.0,0.0,0.0,0.0,0.0,0.0,0.0,0.0,0.0,0.0,0.0,6.1243,6.1243,6.0858,6.0165,6.0165,5.9435,5.8357,0.0,0.0,0.0,0.0,0.0,0.0,0.0,0.0,0.0,0.0,0.0,0.0,0.0,0.0,0.0,0.0,0.0,0.0,0.0,0.0,0.0,0.0,0.0,0.0,0.0,6.2719,6.268,0.0,0.0,0.0,0.0,0.0,0.0,0.0,0.0,0.0,0.0,0.0,0.0,6.8321,6.7628,6.7167,6.7321,6.7975,6.8398,6.8398,6.7744,6.8013,6.959,6.896,6.8905,0.0,0.0,0.0,0.0,0.0,0.0,0.0,0.0,0.0,0.0,0.0,0.0,0.0,0.0,0.0,0.0,0.0,0.0,0.0,0.0,0.0,0.0,0.0,0.0,0.0,0.0,0.0,0.0,0.0,0.0,0.0,0.0,0.0,5.1344,0.0,0.0,0.0,0.0,0.0,0.0,0.0,0.0,0.0,0.0,0.0,0.0,0.0,0.0,5.9358,6.0935,6.182,6.1935,6.2627,6.2974,6.2974,6.2974,6.2897,6.282,6.282,0.0,5.8319,5.8396,0.0,0.0,0.0,0.0,0.0,0.0,0.0,0.0,0.0,0.0,0.0,0.0,0.0,0.0,0.0,0.0,0.0,0.0,0.0,0.0,0.0,0.0,6.5397,6.5397,6.5397,6.5205,0.0,6.3757,6.3257,6.3142,0.0,0.0,0.0,0.0,0.0,0.0,0.0,0.0,6.8398,6.7628,6.7398,6.8167,6.8321,6.8398,6.8398,6.8282,6.8667,6.9629,6.959,6.9844,7.0594,6.9903,0.0,0.0,0.0,0.0,0.0,0.0,0.0,0.0,0.0,0.0,0.0,0.0,0.0,0.0,0.0,0.0,0.0,0.0,0.0,0.0,0.0,0.0,0.0,0.0,0.0,0.0,0.0,0.0,0.0,5.0768,5.1557,5.2444,5.3289,5.398,0.0,0.0,0.0,0.0,0.0,0.0,0.0,0.0,0.0,5.9704,6.0512,6.1166,6.1627,6.2397,6.2781,6.2781,6.3128,6.332,6.332,6.332,6.332,6.332,6.332,6.2474,6.1166,6.1627,6.205,6.2397,0.0,0.0,0.0,0.0,0.0,6.4243,6.4243,0.0,0.0,0.0,0.0,0.0,0.0,0.0,0.0,0.0,0.0,0.0,0.0,0.0,0.0,6.5166,6.5166,6.5205,6.532,6.5013,6.4628,0.0,6.4743,6.5897,6.7705,0.0,0.0,0.0,0.0,0.0,6.909,6.8783,6.8706,6.909,6.9552,6.9821,6.9821,6.9398,6.9475,7.0321,7.036,7.0525,7.0843,7.093,7.0518,0.0,0.0,0.0,0.0,0.0,0.0,0.0,0.0,0.0,0.0,0.0,0.0,0.0,0.0,0.0,0.0,0.0,0.0,0.0,0.0,0.0,0.0,0.0,0.0,0.0,0.0,0.0,0.0,5.2346,0.0,5.3947,5.466,5.5489,0.0,0.0,0.0,0.0,0.0,0.0,5.8934,5.9896,6.0781,6.1435,6.205,6.2704,6.3281,6.3512,6.3628,6.3628,6.3858,6.3974,6.3974,6.3974,6.3974,6.3974,6.3974,6.3974,6.3974,6.4166,6.4397,6.4666,6.532,6.5705,6.5859,6.5628,6.5551,6.5551,6.5551,6.5551,6.5474,6.482,0.0,6.4589,6.4589,0.0,0.0,0.0,0.0,6.5743,6.5089,0.0,6.4936,6.4936,6.4936,6.5166,6.6013,6.6205,6.5936,0.0,6.5474,6.6628,6.8975,0.0,0.0,0.0,0.0,6.8975,6.9629,6.9898,7.009,7.0321,7.1052,7.1591,7.1591,7.1014,7.1014,7.1822,7.1475,7.1437,7.186,7.2035,7.1545,0.0,0.0,0.0,0.0,0.0,0.0,0.0,0.0,0.0,0.0,0.0,0.0,0.0,0.0,0.0,0.0,0.0,0.0,0.0,0.0,0.0,0.0,0.0,0.0,0.0,0.0,0.0,0.0,0.0,0.0,5.6588,5.6819,0.0,0.0,0.0,0.0,5.847,5.9837,6.0666,6.0666,6.2204,6.3128,6.3166,6.3243,6.3281,6.332,6.4128,6.4551,6.4551,6.5359,6.5782,6.5782,6.5782,6.5782,6.5782,6.5782,6.5782,6.5628,6.4051,6.3858,6.4589,6.4666,6.5166,6.5782,6.4974,6.4666,6.4666,6.4666,6.4666,6.4666,6.4628,6.4589,6.4589,6.4589,6.5205,0.0,0.0,6.5897,6.5897,6.5859,6.582,6.582,6.582,6.582,6.6051,6.6859,6.7051,6.6782,0.0,6.5859,6.6436,6.8167,0.0,6.8667,6.9667,6.9706,6.9667,6.9706,7.036,7.1168,7.1975,7.286,7.336,7.336,7.3322,7.3668,7.4476,7.3014,7.286,7.4437,7.3014,7.2168,7.2052,7.1199,0.0,0.0,0.0,0.0,0.0,0.0,0.0,0.0,0.0,0.0,0.0,0.0,0.0,0.0,0.0,0.0,0.0,0.0,0.0,0.0,0.0,0.0,0.0,0.0,0.0,0.0,0.0,0.0,5.7757,5.7888,0.0,0.0,5.9875,6.0173,6.0762,6.179,6.2397,6.2397,6.2974,6.3551,6.4128,6.4128,6.4397,6.4974,6.5282,6.5436,6.5436,6.5743,6.5897,6.5897,6.5897,6.5897,6.5897,6.5897,6.5897,6.5859,6.5243,6.5166,6.5436,6.5436,6.5628,6.5859,6.5551,6.5436,6.5436,6.5436,6.5436,6.5436,6.5436,6.5436,6.5436,6.5436,6.5628,6.5897,6.5897,6.6282,6.6667,6.6667,6.709,6.7513,6.7513,6.7513,6.759,6.7859,6.7936,6.7859,6.7552,6.7513,6.8052,6.9706,6.9129,6.9052,7.1014,7.0821,7.0667,7.1245,7.2052,7.2706,7.3014,7.3322,7.3514,7.3514,7.3514,7.363,7.3899,7.4399,7.4437,7.3937,7.386,7.3553,7.3053,7.214,7.1832,0.0,0.0,0.0,0.0,0.0,0.0,0.0,0.0,0.0,0.0,0.0,0.0,0.0,0.0,0.0,0.0,0.0,0.0,0.0,0.0,0.0,0.0,0.0,0.0,0.0,0.0,5.7369,5.9194,5.9302,5.9726,6.1036,6.146,6.1905,6.2551,6.333,6.3743,6.3743,6.4012,6.4436,6.5013,6.5051,6.532,6.5897,6.5897,6.5897,6.5897,6.5897,6.6051,6.6282,6.6282,6.6474,6.6744,6.6744,6.6744,6.6744,6.6805,6.6853,6.6752,6.614,6.5897,6.5897,6.5897,6.5897,6.5936,6.6205,6.6282,6.6359,6.6667,6.6744,6.6744,6.6744,6.6744,6.6744,6.6744,6.7128,6.7552,6.7552,6.7975,6.8398,6.8398,6.8398,6.8552,6.9129,6.9244,6.9436,7.0014,6.9206,6.8936,7.0591,6.9975,7.0206,7.3053,7.2514,7.2206,7.3322,7.3745,7.3899,7.3899,7.4168,7.4361,7.4361,7.513,7.5284,7.4399,7.5938,7.6092,7.4399,7.513,7.5322,7.4784,7.3937,7.3322,7.3053,0.0,0.0,0.0,0.0,0.0,0.0,0.0,0.0,0.0,0.0,0.0,0.0,0.0,0.0,0.0,0.0,0.0,0.0,0.0,0.0,0.0,0.0,0.0,5.7508,5.8195,5.9374,6.1031,6.1164,6.181,6.3643,6.3513,6.3438,6.3613,6.427,6.4628,6.4628,6.5436,6.5897,6.5897,6.5897,6.5897,6.5936,6.5936,6.5936,6.5999,6.5999,6.6384,6.7154,6.7154,6.7616,6.8424,6.8424,6.8424,6.845,6.8613,6.8721,6.8545,6.6675,6.5999,6.5999,6.5999,6.5974,6.609,6.6859,6.7128,6.7282,6.8129,6.8398,6.8398,6.8398,6.8398,6.8398,6.8398,6.8436,6.8475,6.8475,6.8513,6.8552,6.8552,6.8552,6.9013,7.0629,7.0975,7.1475,7.3168,7.0821,6.909,7.0706,7.0975,7.2091,7.5438,7.4553,0.0,7.5745,7.5284,7.4822,7.4861,7.563,7.6169,7.6169,7.8438,7.8746,7.6245,7.763,7.7784,7.6092,7.6861,7.7284,7.7207,7.6399,7.4784,7.2283,0.0,0.0,0.0,0.0,0.0,0.0,0.0,0.0,0.0,0.0,0.0,0.0,0.0,0.0,0.0,0.0,0.0,0.0,0.0,0.0,0.0,0.0,5.9502,5.9283,6.0034,6.0967,6.2041,6.2672,6.3254,6.3735,6.4154,6.4423,6.4483,6.5157,6.5551,6.5551,6.5782,6.5897,6.5897,6.5897,6.6167,6.6744,6.6782,6.7152,6.7917,6.7917,6.8081,6.8392,6.8392,6.8548,6.878,6.878,6.878,6.878,6.8834,6.8851,6.8774,6.8294,6.8026,6.7917,6.7917,6.7841,6.7744,6.7975,6.8052,6.809,6.8321,6.8398,6.8398,6.8398,6.8398,6.8398,6.8398,6.8859,6.9475,7.0052,7.0667,7.1321,7.1937,7.2091,7.2245,7.2706,7.2783,7.2937,7.3399,7.2745,7.2245,7.2706,7.2783,7.3091,7.4053,7.4284,0.0,7.5014,7.5938,7.7053,7.8284,7.9169,7.9708,7.9708,8.0323,7.99,0.0,7.8823,7.8707,7.7015,7.7169,7.6707,7.5438,7.5784,7.5322,0.0,0.0,0.0,0.0,0.0,0.0,0.0,0.0,0.0,0.0,0.0,0.0,0.0,0.0,0.0,0.0,0.0,0.0,0.0,0.0,0.0,0.0,6.0701,6.1289,6.1744,6.181,6.2119,6.2959,6.3728,6.4239,6.4222,6.485,6.5264,6.5264,6.5688,6.5897,6.5897,6.5897,6.6051,6.6397,6.6397,6.6782,6.7628,6.7754,6.8066,6.87,6.8762,6.9028,6.9438,6.9438,6.9632,0.0,6.9982,6.9982,6.9982,7.0056,7.0265,0.0,0.0,0.0,0.0,0.0,6.8544,6.8475,6.8821,6.8936,6.9013,6.936,6.9706,6.9975,6.9975,7.0244,7.0552,7.0552,7.0898,7.1398,7.186,7.236,7.286,7.3399,7.3514,7.3591,7.3937,7.4014,7.413,7.4476,0.0,0.0,7.5091,7.4476,7.4514,7.5938,7.5938,7.6053,0.0,7.7092,7.7515,7.813,7.8669,7.8977,7.8977,7.9939,0.0,0.0,0.0,7.9361,7.84,7.8361,0.0,0.0,0.0,0.0,0.0,0.0,0.0,0.0,7.3726,7.3658,0.0,0.0,0.0,0.0,0.0,0.0,0.0,0.0,0.0,0.0,0.0,0.0,0.0,0.0,0.0,0.0,6.2301,6.3271,6.4223,6.3414,6.306,6.3852,6.4537,6.4967,6.4948,6.5527,6.5909,6.5958,6.5933,6.5972,0.0,0.0,0.0,0.0,0.0,6.7705,6.8565,6.879,6.8916,6.9052,6.9157,6.9624,7.0416,7.0494,7.0961,7.1699,7.1816,7.1855,7.187,7.1989,7.2462,7.2919,7.0459,6.9507,6.9477,6.9305,6.9147,0.0,0.0,0.0,0.0,7.0975,7.1706,7.236,7.236,7.2899,7.3514,7.3514,7.3514,7.3514,7.363,7.363,7.3668,7.3783,7.3783,7.4014,7.4822,7.4976,7.5245,7.6092,7.6899,7.7438,7.7438,7.6169,7.6169,7.9208,7.8323,7.7823,7.9323,7.8207,7.7092,7.6476,0.0,0.0,7.6592,7.8746,7.8977,7.6438,7.8323,7.9554,7.9669,7.9477,7.9054,7.8361,7.8361,7.6861,7.3783,7.5361,7.5668,7.4707,7.4822,7.4514,0.0,0.0,0.0,0.0,0.0,0.0,0.0,0.0,0.0,0.0,0.0,0.0,0.0,0.0,0.0,6.2974,6.3468,6.3971,6.4605,6.4519,6.448,6.4808,6.5545,6.5967,6.5857,6.5989,6.6108,6.62,6.6109,6.6438,6.7226,6.7265,0.0,6.8386,6.851,6.8898,6.9601,6.9827,7.0308,7.1122,0.0,0.0,7.1675,7.2377,7.2807,7.3002,7.3626,7.3938,7.3938,7.3953,7.4077,7.4148,7.3514,7.3274,7.3198,7.2851,7.27,7.2669,7.275,7.2783,7.2783,7.2937,7.3129,7.3245,7.3245,7.336,0.0,7.3514,7.3514,7.3668,7.4322,7.4476,7.4668,7.5361,7.5515,7.5745,7.6592,7.6784,7.7053,7.7861,7.813,7.8246,7.8246,7.7977,7.7977,7.8631,7.79,7.74,7.7746,7.7476,7.7746,7.8938,7.9708,8.0092,8.0092,8.117,8.0746,7.8169,7.7861,7.8054,7.8707,7.7438,7.6976,7.7515,7.7515,7.6861,7.5515,7.6553,7.6245,7.4707,7.5438,7.6053,0.0,0.0,0.0,0.0,0.0,0.0,0.0,0.0,0.0,0.0,0.0,6.0943,0.0,0.0,6.3783,6.4227,6.4425,6.4818,6.5591,6.5613,6.5526,6.5489,6.5934,6.6148,6.5997,6.6046,6.6263,6.6688,6.6727,6.7174,6.8082,6.8225,6.8613,6.9419,6.9506,6.9933,7.068,7.0868,7.1407,7.2362,7.2452,7.2775,7.3275,7.3705,7.39,7.3939,7.433,7.4486,7.4525,7.4954,7.5149,7.5188,7.5538,7.5143,7.426,7.4071,7.3859,7.369,7.3625,7.3547,7.3514,7.3514,7.3783,7.4091,7.4091,7.4399,7.4745,7.4745,7.4745,7.4861,7.5245,7.5668,7.6092,7.6553,7.6938,7.7361,7.7823,7.79,7.8015,7.84,7.8861,7.9015,7.8592,7.8861,7.9015,7.8554,7.8169,7.7746,7.7361,7.763,7.8054,7.8515,7.9285,7.9785,7.9785,8.0554,8.0708,7.9862,7.9785,7.9785,7.9785,7.9015,7.8361,7.79,7.7515,7.6861,7.6015,7.6438,7.6438,7.6015,7.6438,7.6861,0.0,0.0,0.0,0.0,0.0,0.0,0.0,0.0,5.8726,5.971,6.1065,6.2127,6.2208,6.3608,6.483,6.5041,6.5284,6.5699,6.6507,6.6465,6.6251,6.6036,6.6063,6.6046,6.599,6.6218,6.6608,6.7216,6.7539,6.8123,6.9049,6.9181,6.9628,7.0494,7.0679,7.1107,7.1762,7.2106,7.2589,7.329,7.3445,7.3861,7.4525,7.4681,7.4759,7.4759,7.4915,7.4993,7.5071,7.5774,7.6047,7.6125,7.6828,7.617,7.485,7.4789,7.4553,7.4284,7.4237,7.4127,7.406,7.4004,7.4437,7.4938,7.4938,7.5553,7.6245,7.6245,7.6361,7.6476,7.6476,7.7015,7.7515,7.7515,7.79,7.8361,7.8669,7.8631,7.8554,7.8707,7.9323,7.9592,7.8861,7.9323,7.9515,7.8631,7.8477,7.8246,7.763,7.8092,7.8246,7.7592,7.8092,7.8554,7.8746,7.9246,7.9977,8.1016,8.14,8.1362,8.0862,8.0862,8.0285,7.9015,7.8515,7.7938,7.7207,7.74,7.7746,7.8284,7.8438,7.8246,0.0,0.0,0.0,5.795,5.7997,5.8242,0.0,0.0,5.9749,6.145,6.2056,6.245,6.3036,6.4304,6.5181,6.5086,6.5933,6.6603,6.6605,6.6585,6.6489,6.6283,6.6167,6.6129,6.6234,6.6864,6.7405,6.7774,6.838,6.9253,7.0426,7.048,7.0801,7.1533,7.2478,7.2908,7.2807,7.3735,7.4239,7.4317,7.4363,7.4408,7.4525,7.5305,7.5657,7.5696,7.6477,7.6828,7.6828,7.6906,7.6945,7.6945,7.7062,7.6978,7.677,7.6604,7.6469,7.6416,7.6126,7.5987,7.5978,7.5793,7.5784,7.5861,7.5861,7.6476,7.713,7.713,7.7669,7.8207,7.8207,7.8284,7.8361,7.8361,7.79,7.7823,7.9323,7.9054,7.8707,7.9515,7.9746,7.9785,7.9669,7.9746,7.9515,7.8631,7.8477,7.8477,7.8361,7.8438,7.8477,7.8361,7.8438,7.8823,7.9592,7.9015,7.9361,8.1016,7.9708,7.9208,7.9939,7.9939,8.0208,8.0785,8.14,8.167,8.1593,8.2362,8.2401,8.1747,8.2516,8.167,5.8704,0.0,0.0,0.0,5.8965,5.9273,6.0704,6.0988,6.1334,6.2551,6.3238,6.3753,6.4106,6.5063,6.5809,0.0,6.6371,6.6642,6.6595,6.6595,6.6769,6.719,6.7178,6.7121,6.7052,6.7899,6.8667,6.9214,6.9591,7.0197,7.1213,7.1384,7.1819,7.2604,7.3062,7.3498,7.3852,7.4278,7.4759,7.5266,7.5266,7.5501,7.6047,7.6399,7.6555,7.6594,7.7492,7.7843,7.7882,7.839,7.8897,7.9366,7.9366,7.9678,7.9867,7.777,7.7209,7.7611,7.7992,7.8339,7.8669,7.8602,7.8889,7.9215,7.858,7.8992,7.966,7.9537,7.9746,8.0015,8.0015,8.0362,8.0708,8.0708,8.0439,8.04,8.1093,8.0592,8.0246,8.1093,8.1246,8.1093,8.0631,8.0554,8.0092,7.8707,7.8938,7.9054,7.8554,7.8938,7.9438,7.9939,8.0015,8.0362,8.117,8.09,8.1439,8.3208,8.2131,8.1862,8.2747,8.1785,8.1208,8.1093,8.1439,8.1362,8.0862,8.1708,8.2208,8.2324,8.267,8.2554,5.9665,0.0,0.0,6.0012,6.0204,6.0627,6.2089,6.2435,6.2666,6.3512,6.4176,6.4756,6.5121,6.5741,0.0,6.6563,6.6615,6.6672,6.6672,6.6867,6.7257,6.789,6.8397,6.8603,6.8475,6.9106,6.9768,7.0304,7.0586,7.1175,7.2092,7.2275,7.2768,7.3588,7.3861,7.4251,7.4837,7.511,7.554,7.6164,7.6164,7.6477,7.7101,7.7335,7.7609,7.7882,7.8741,7.9248,7.9522,8.0146,8.0771,8.1356,8.1356,8.1747,8.1981,7.9483,7.8823,7.9344,7.9906,8.0415,8.0815,8.0781,8.1191,8.1561,8.0799,8.1159,8.1809,8.16,8.1514,8.1522,8.147,8.1708,8.1977,8.1977,8.1977,8.2016,8.2247,8.1823,8.1593,8.217,8.2285,8.2093,8.1516,8.1439,8.1093,8.0054,8.0439,8.0362,7.9015,7.9631,8.04,8.1016,8.1285,8.167,8.2247,8.2516,8.3208,8.4478,8.3939,8.3862,8.4516,8.3555,8.2747,8.217,8.2362,8.217,8.1554,8.217,8.2785,8.3362,8.3362,8.367,0.0,0.0,6.0935,6.1781,6.2012,6.2243,6.3089,6.3281,6.3512,6.4397,6.4701,6.5064,6.5915,6.6368,6.6585,6.6595,6.6713,6.6795,6.6795,6.7537,6.8039,6.8078,6.96,7.0615,0.0,7.0472,7.0454,7.0687,7.1291,7.214,7.3192,7.3275,7.3627,7.4447,7.5266,7.5735,7.5774,7.6594,7.7023,7.7062,7.7062,7.7062,7.714,7.796,7.8819,7.9678,8.0537,8.1396,8.2176,8.2215,8.2254,8.2254,8.2254,8.2293,8.2293,8.2176,8.2176,8.2163,8.1967,8.1921,8.1935,8.1709,8.1696,8.1696,8.1657,8.2261,8.2883,8.2622,8.2548,8.2535,8.2301,8.1708,8.1131,8.1131,8.1131,8.1362,8.2131,8.2285,8.2285,8.2285,8.2285,8.2285,8.2285,8.2247,8.2516,8.3324,8.3478,8.2593,8.0092,8.0516,8.1054,8.1093,8.1785,8.2285,8.2285,8.3054,8.3555,8.3632,8.3593,8.3593,8.3632,8.4401,8.4824,8.4786,8.5555,8.594,8.5901,8.594,8.5978,8.5978,8.5978,8.6017,0.0,0.0,6.1858,6.2704,6.2897,6.3128,6.3974,6.4628,6.5128,6.5397,6.5933,6.6283,6.6126,6.6251,6.6452,6.6585,6.6713,6.6795,6.6795,6.7537,6.8318,6.8903,6.9996,0.0,0.0,0.0,0.0,7.1558,7.232,7.2938,7.3275,7.3822,7.4486,7.5345,7.5657,7.636,7.7492,7.7804,7.8233,7.8819,7.9405,7.999,8.0576,8.0849,8.1161,8.1474,8.2293,8.284,8.3152,8.3738,8.4284,8.4753,8.4167,8.4323,8.4753,8.4167,8.3972,8.3965,8.3865,8.3857,8.3848,8.3781,8.3771,8.3605,8.2922,8.3321,8.3953,8.3698,8.3561,8.3451,8.3382,8.3479,8.3632,8.3632,8.3632,8.3708,8.3978,8.3555,8.3324,8.3901,8.4016,8.4042,8.4204,8.4232,8.4116,8.3845,8.371,8.3285,8.2439,8.2593,8.2747,8.2747,8.2978,8.317,8.317,8.3439,8.3862,8.4439,8.3901,8.4093,8.5209,8.4478,8.4324,8.4901,8.517,8.5286,8.5324,8.5863,8.6094,8.6094,8.6094,8.6094,0.0,6.2704,6.2743,6.3551,6.3782,6.4089,6.5243,6.5936,6.6397,6.6744,6.7012,6.7093,6.6629,6.6484,6.6439,6.6489,6.6658,6.6907,6.7156,6.7994,6.8903,6.9762,7.0621,0.0,0.0,0.0,0.0,7.2456,7.2963,7.3549,7.4173,7.4681,7.5345,7.6242,7.6242,7.6945,7.839,7.8702,7.9444,8.0654,8.12,8.1747,8.2293,8.2606,8.2918,8.323,8.3738,8.4128,8.4441,8.4714,8.5143,8.5573,8.5026,8.5143,8.5573,8.5026,8.4792,8.4792,8.4792,8.4792,8.4792,8.4792,8.4792,8.4661,8.3976,8.415,8.4635,8.4754,8.4456,8.4178,8.4421,8.4585,8.4618,8.4618,8.4831,8.5013,8.5013,8.4728,8.4664,8.5329,8.5437,8.5526,8.5744,8.5754,8.5575,8.4895,8.4667,8.4366,8.3702,8.3593,8.3593,8.3593,8.4132,8.4478,8.4478,8.5055,8.567,8.6209,8.5709,8.5901,8.6978,8.5709,8.5209,8.5786,8.5478,8.5324,8.5324,8.5863,8.6094,8.6094,8.6094,8.6094,6.2474,6.2781,6.3512,6.4436,6.4666,6.5089,6.6744,6.7167,6.7436,6.8167,6.7865,6.7441,0.0,0.0,6.6552,6.6368,6.6654,6.713,6.7833,6.8827,6.9762,0.0,0.0,0.0,0.0,0.0,0.0,7.3432,0.0,7.4134,7.5735,7.5852,7.6242,7.7062,7.714,7.7609,7.8507,7.9483,8.081,8.2489,8.2489,8.2528,8.2606,8.3308,8.4089,8.487,8.4831,8.526,8.5963,8.5143,8.4792,8.4792,8.4753,8.4714,8.4714,8.4675,8.4714,8.4714,8.4714,8.4714,8.4753,8.4792,8.4753,8.4753,8.4792,8.4792,8.4934,8.5582,8.5156,8.4649,8.5269,8.4864,8.4281,8.4281,8.4776,8.5282,8.5282,8.5719,8.6215,8.6389,8.6442,8.6544,8.6767,8.6807,8.6726,8.6455,8.6481,8.5832,8.4042,8.3785,8.3785,8.3862,8.5286,8.6247,8.6247,8.7748,8.8709,8.8709,8.8709,8.8709,8.8709,8.7902,8.7478,8.7478,8.6671,8.6209,8.617,8.617,8.6132,8.6094,8.6094,8.6094,6.4474,6.4128,6.3666,6.5205,6.5551,6.582,6.6859,6.809,6.8744,6.7667,6.7795,6.7961,0.0,0.0,0.0,6.7169,6.755,0.0,6.8021,6.9399,0.0,0.0,0.0,7.226,7.2924,7.3158,0.0,0.0,7.5149,7.5345,7.5774,7.6438,7.6867,7.7101,7.7726,7.878,8.0302,8.245,8.405,8.5143,8.5143,8.5456,8.608,8.5651,8.5573,8.5729,8.5065,8.4948,8.5104,8.4909,8.4792,8.4753,8.4089,8.3816,8.3777,8.3152,8.3308,8.3816,8.3816,8.3816,8.3933,8.4597,8.4362,8.3933,8.4597,8.4792,8.4824,8.4997,8.4785,8.4559,8.4713,8.4954,8.5175,8.5175,8.5776,8.6394,8.6394,8.6505,8.6638,8.6683,8.6826,8.695,8.702,8.7035,8.6981,8.6933,8.7312,8.7318,8.6538,8.644,8.6671,8.7325,8.7786,8.8017,8.8017,8.844,8.8709,8.8709,8.8709,8.8709,8.8709,8.8479,8.8363,8.8363,8.8132,8.7709,8.7055,8.7055,8.6748,8.6094,8.6094,8.6094,6.4589,6.4589,6.4589,6.5166,6.5859,6.6551,6.7013,6.8167,6.8859,6.7859,6.7744,0.0,0.0,0.0,0.0,0.0,0.0,0.0,6.8554,6.9784,7.0855,0.0,7.2026,0.0,7.3236,7.3978,7.4798,0.0,0.0,7.5969,7.636,7.6828,7.7296,7.7648,7.8507,8.0146,8.2645,8.448,8.5807,8.6666,8.6275,8.6353,8.6783,8.5924,8.5534,8.5495,0.0,8.4245,8.4206,8.3855,8.3699,8.3699,8.3543,8.3504,8.3504,8.3426,8.3699,8.4089,8.4089,8.4089,8.4167,8.4636,8.448,8.4167,8.4636,8.4792,8.487,8.526,8.5309,8.5302,8.5653,8.6038,8.6324,8.6324,8.6631,8.6917,8.6917,8.6845,8.6826,8.6899,8.7092,8.7214,8.7214,8.7565,8.7777,8.7689,8.8266,8.875,8.8803,8.8373,8.829,8.8666,8.9017,8.9248,8.9248,8.9594,8.9787,8.9787,8.9787,8.9787,8.9787,8.944,8.9248,8.9248,8.8863,8.844,8.7979,8.7979,8.7709,8.7209,8.6863,8.6671,6.4061,6.4691,6.5551,6.4936,6.5936,6.709,6.709,6.7859,6.8513,6.8282,0.0,0.0,0.0,0.0,6.6733,6.7484,0.0,6.8613,6.9167,7.0192,7.1167,7.1909,7.2768,7.3354,7.3432,7.4876,7.5852,7.5969,7.5969,7.6281,7.7062,7.7218,7.7726,7.8702,7.9678,8.1669,8.4753,8.5651,8.6471,8.7212,8.6353,8.5924,8.5885,8.5026,8.4636,8.4597,0.0,0.0,8.3308,8.2684,8.245,8.2528,8.3347,8.366,8.3777,8.4519,8.487,8.4987,8.4987,8.5065,8.5143,8.5026,8.4987,8.4987,8.5104,8.5143,8.5299,8.6041,8.6275,8.6431,8.7212,8.7407,8.7407,8.7407,8.7273,8.7157,8.7157,8.702,8.6917,8.7092,8.7351,8.7564,8.7564,8.8305,8.8791,8.8623,8.9339,9.0078,9.0596,8.9794,8.9156,8.9079,8.9667,9.0094,9.0094,9.0787,9.121,9.121,9.121,9.121,9.121,9.0479,9.0094,9.0094,8.9402,8.8979,8.8863,8.8863,8.8786,8.8671,8.7902,8.7555,6.5505,6.5219,6.4974,6.5513,6.6397,6.709,6.709,6.8321,0.0,0.0,0.0,6.7359,6.8244,0.0,0.0,6.8519,0.0,0.0,0.0,0.0,0.0,0.0,0.0,0.0,0.0,0.0,0.0,0.0,0.0,0.0,7.7101,7.7765,7.8897,8.0498,8.202,8.3465,8.4792,8.5651,8.6197,8.6314,8.5456,8.5026,8.4987,8.4128,8.3738,8.3699,0.0,0.0,8.2567,8.3074,8.3308,8.3386,8.4245,8.4558,8.4597,8.4753,8.526,8.5885,8.5885,8.6353,8.6822,8.6119,8.5885,8.6002,8.6744,8.6939,8.6978,8.7134,8.7173,8.7212,8.7368,8.7407,8.7407,8.7407,8.7354,8.7347,8.7347,8.7338,8.733,8.7347,8.7947,8.8461,8.8461,8.9203,8.975,8.9735,9.0469,9.0979,9.0858,9.0392,9.0323,9.0934,9.0995,9.0979,9.0979,9.1133,9.121,9.121,9.121,9.121,9.121,9.1056,9.0979,9.0979,9.0825,9.0402,8.971,8.971,8.9363,8.8709,8.8517,8.8479,6.6123,6.5895,6.5586,6.6051,6.7095,6.7926,6.7371,0.0,0.0,0.0,0.0,0.0,6.8167,0.0,0.0,0.0,0.0,0.0,0.0,0.0,0.0,0.0,0.0,0.0,0.0,0.0,0.0,0.0,0.0,0.0,7.7765,7.9444,8.1005,8.2254,8.3504,8.4597,8.5456,8.5456,8.5416,8.5416,8.4558,8.4128,8.4089,8.3269,8.2879,8.2879,8.2918,0.0,8.2996,8.3816,8.4167,8.4245,8.5143,8.5495,8.5534,8.6002,8.6431,8.6783,8.6783,8.7056,8.7329,8.69,8.6783,8.6861,8.729,8.7407,8.7407,8.7407,8.7407,8.7407,8.7407,8.7407,8.7407,8.7407,8.7407,8.7407,8.7407,8.7759,8.8071,8.8071,8.8774,8.9398,8.9398,9.0101,9.0687,9.0687,9.1389,9.1882,9.1759,9.1459,9.1345,9.1473,9.1415,9.1297,9.121,9.121,9.121,9.121,9.121,9.121,9.121,9.121,9.121,9.121,9.121,9.0979,9.0594,9.0594,9.0364,8.9979,8.9556,8.9325,6.6878,6.6772,6.6625,6.6873,6.8078,6.8846,6.7696,6.8083,0.0,0.0,0.0,0.0,0.0,0.0,0.0,0.0,0.0,0.0,0.0,0.0,0.0,0.0,0.0,0.0,0.0,0.0,0.0,0.0,0.0,0.0,0.0,8.1161,8.2684,8.3465,8.4362,8.5026,8.5534,8.487,8.4519,8.4519,8.366,8.323,8.323,8.2762,8.2567,8.2606,8.3426,0.0,0.0,8.4714,8.5065,8.5182,8.6041,8.6392,8.6471,8.7134,8.7407,8.7407,8.7407,8.7407,8.7407,8.7407,8.7407,8.7407,8.7407,8.7407,8.7407,8.7407,8.7407,8.7407,8.7407,8.7407,8.7407,8.7407,8.7525,8.7681,8.7681,8.8344,8.8969,8.8969,8.9672,9.0296,9.0296,9.0999,9.1546,9.1546,9.2092,9.2482,9.2482,9.2344,9.2098,9.168,9.1618,9.1494,9.127,9.1236,9.1241,9.121,9.121,9.121,9.121,9.121,9.121,9.121,9.121,9.121,9.121,9.121,9.121,9.1171,9.0517,9.0171,6.8494,6.8216,6.7689,6.8466,6.9399,6.9616,6.7969,0.0,0.0,0.0,0.0,0.0,0.0,0.0,0.0,0.0,0.0,7.1591,0.0,0.0,0.0,0.0,0.0,0.0,0.0,0.0,0.0,0.0,0.0,0.0,0.0,8.2176,8.2684,8.3465,8.4362,8.448,8.3738,8.366,8.3621,8.3621,8.2801,8.2411,8.245,8.3074,8.3386,8.3426,0.0,0.0,0.0,8.5612,8.5963,8.608,8.6939,8.729,8.729,8.7368,8.7407,8.7407,8.7407,8.7407,8.7407,8.7407,8.7407,8.7407,8.7407,8.7407,8.7407,8.7407,8.7407,8.7407,8.7407,8.7407,8.7407,8.7407,8.7993,8.8579,8.8579,8.9281,8.9867,8.9867,9.057,9.1194,9.1194,9.1858,9.2404,9.2404,9.2443,9.2482,9.2482,9.2475,9.2393,9.2182,9.1957,9.1742,9.1494,9.1465,9.1385,9.1245,9.121,9.121,9.121,9.121,9.121,9.121,9.121,9.121,9.121,9.121,9.121,9.121,9.1133,9.1095,6.9646,6.9428,6.8895,6.9791,6.9869,6.9538,6.8733,0.0,0.0,0.0,0.0,0.0,6.9282,6.971,7.0097,7.1026,7.1546,7.194,0.0,0.0,0.0,0.0,0.0,0.0,0.0,0.0,0.0,0.0,0.0,0.0,0.0,8.3035,8.3426,8.4245,8.4128,8.3855,8.3504,8.3035,8.2762,8.2762,8.245,8.2567,8.3035,8.3347,8.3777,8.4323,0.0,0.0,0.0,8.651,8.69,8.6939,8.7251,8.7407,8.7407,8.7407,8.7407,8.7407,8.7407,8.7407,8.7407,8.7407,8.7407,8.7407,8.7407,8.7407,8.7407,8.7407,8.7407,8.7407,8.7407,8.7798,8.8188,8.8188,8.8852,8.9477,8.9477,9.0179,9.0765,9.0765,9.1467,9.2014,9.2014,9.2287,9.2482,9.2482,9.2482,9.2482,9.2482,9.2482,9.2475,9.2393,9.2197,9.1976,9.1742,9.1718,9.1657,9.1385,9.1354,9.1329,9.121,9.121,9.121,9.121,9.121,9.121,9.121,9.121,9.121,9.121,9.121,9.121,7.023,7.027,6.9996,7.0855,7.0426,6.9673,0.0,0.0,0.0,0.0,0.0,6.8136,6.9614,7.0162,7.0641,7.1624,7.1789,7.2041,7.2801,0.0,0.0,0.0,0.0,0.0,0.0,0.0,0.0,0.0,0.0,0.0,0.0,8.3269,8.3543,8.4401,8.3816,8.3386,8.3152,8.2567,8.2293,8.2293,8.2528,8.2957,8.3504,8.4011,8.4597,8.5221,0.0,0.0,0.0,8.7134,8.7407,8.7407,8.7407,8.7407,8.7407,8.7407,8.7407,8.7407,8.7407,8.7407,8.7407,8.7407,8.7407,8.7446,8.772,8.7603,8.7407,8.7407,8.7603,8.7837,8.811,8.8618,8.9086,8.9086,8.975,9.0374,9.0374,9.1038,9.1663,9.1663,9.2092,9.2482,9.2482,9.2482,9.2482,9.2482,9.2482,9.2482,9.2482,9.2482,9.2482,9.2482,9.2383,9.221,9.2034,9.2015,9.1877,9.1618,9.1539,9.1445,9.1303,9.1241,9.121,9.121,9.121,9.121,9.121,9.121,9.121,9.121,9.121,9.121,7.023,7.0699,7.0894,7.1753,7.1324,7.0465,0.0,0.0,0.0,0.0,6.7296,6.8154,6.906,7.0029,7.0972,7.1831,7.1987,7.1987,7.2026,0.0,0.0,0.0,0.0,0.0,0.0,0.0,0.0,0.0,0.0,0.0,0.0,0.0,8.2684,8.3504,8.3504,8.3113,8.2332,8.2293,8.2293,8.2293,8.3113,8.3504,8.3543,8.5299,8.608,0.0,0.0,0.0,0.0,8.7407,8.7407,8.7407,8.7407,8.7407,8.7407,8.7407,8.7407,8.7407,8.7407,8.7407,8.7407,8.7407,8.7407,8.7564,8.8422,8.8071,8.7407,8.7407,8.8032,8.8891,8.975,8.9984,8.9984,8.9984,9.0648,9.1272,9.1272,9.1936,9.2482,9.2482,9.2482,9.2482,9.2482,9.2482,9.2482,9.2482,9.2482,9.2482,9.2482,9.2482,9.2482,9.2482,9.2482,9.2412,9.221,9.2197,9.2121,9.1915,9.1644,9.1522,9.1522,9.1336,9.121,9.121,9.121,9.121,9.121,9.121,9.121,9.121,9.121,9.121,6.9489,6.9801,6.9879,7.0152,6.9567,6.8864,6.8552,0.0,0.0,6.7546,6.8327,6.899,6.9302,7.057,7.148,7.1167,7.2104,7.2885,7.2885,0.0,0.0,0.0,0.0,0.0,0.0,0.0,0.0,0.0,0.0,0.0,0.0,0.0,8.2684,8.3465,8.2957,8.2567,8.2293,8.284,8.3113,8.3113,8.3972,8.4714,8.5299,8.5846,0.0,0.0,0.0,0.0,0.0,8.7407,8.7407,8.7407,8.7407,8.7407,8.7407,8.7407,8.7407,8.7407,8.7407,8.7798,8.8305,8.8305,8.8696,8.9242,8.9516,8.8969,8.8422,8.9008,8.9398,8.9633,8.9945,9.0452,9.0882,9.0882,9.1507,9.2131,9.2131,9.2326,9.2482,9.2482,9.2482,9.2482,9.2482,9.2482,9.2482,9.2482,9.2482,9.2482,9.2482,9.2482,9.2482,9.2482,9.2482,9.2475,9.2403,9.2403,9.2323,9.2137,9.2031,9.1816,9.1484,9.1436,9.1329,9.121,9.121,9.121,9.121,9.121,9.121,9.121,9.121,9.121,6.8669,6.9137,6.9411,6.9411,6.8747,0.0,0.0,0.0,6.7068,6.7927,6.8786,6.9489,6.984,7.105,7.1831,7.1285,7.2378,7.3315,7.3315,0.0,0.0,0.0,0.0,0.0,0.0,0.0,0.0,0.0,0.0,0.0,0.0,0.0,8.2684,8.3465,8.2723,8.245,8.2762,8.323,8.366,8.4011,8.487,8.5573,8.6119,8.6431,0.0,0.0,0.0,0.0,0.0,8.7407,8.7407,8.7407,8.7407,8.7407,8.7407,8.7407,8.7603,8.7876,8.7876,8.8461,8.9203,8.9203,8.9789,9.0492,9.0492,8.9867,8.9359,9.0257,9.0492,9.057,9.0843,9.135,9.1741,9.1741,9.2131,9.2482,9.2482,9.2482,9.2482,9.2482,9.2482,9.2482,9.2482,9.2482,9.2482,9.2482,9.2482,9.2482,9.2482,9.2482,9.2482,9.2482,9.2482,9.2639,9.2951,9.2678,9.2459,9.2323,9.2536,9.2571,9.2277,9.2159,9.2014,9.1798,9.149,9.127,9.121,9.121,9.121,9.121,9.121,9.121,0.0,6.8591,6.9215,6.9215,6.8591,6.8005,6.8005,6.7381,0.0,6.7927,6.8786,6.9645,7.0387,7.1363,7.2065,7.1948,7.2807,7.3471,7.3393,0.0,0.0,0.0,0.0,0.0,0.0,0.0,0.0,0.0,0.0,0.0,0.0,0.0,0.0,8.3465,8.2762,8.2723,8.3504,8.3621,8.4089,8.4909,8.5768,8.6197,8.6236,8.7017,0.0,0.0,0.0,0.0,0.0,8.7407,8.7407,8.7407,8.7407,8.7446,8.7486,8.7486,8.8032,8.8774,8.8774,8.9359,9.0101,9.014,9.0726,9.1389,9.1389,9.0804,9.0335,9.1155,9.1389,9.1546,9.2326,9.2482,9.2482,9.2482,9.2482,9.2482,9.2482,9.2482,9.2482,9.2482,9.2482,9.2482,9.2482,9.2482,9.2482,9.2482,9.2482,9.2482,9.2482,9.2482,9.2522,9.26,9.26,9.2951,9.381,9.3107,9.26,9.2678,9.3259,9.3613,9.3599,9.3414,9.3209,9.2932,9.213,9.157,9.1322,9.1287,9.1248,9.121,9.121,9.121,6.6873,0.0,6.742,6.742,6.7264,6.7107,0.0,6.6951,6.7068,6.7927,6.8786,6.9255,6.8786,7.105,7.2573,7.1206,7.3354,7.4993,7.433,0.0,0.0,0.0,0.0,0.0,0.0,0.0,0.0,0.0,0.0,0.0,0.0,0.0,0.0,8.3426,8.3308,8.3308,8.3504,8.4831,8.5573,8.5807,8.6666,8.7095,8.7095,8.7329,0.0,0.0,0.0,0.0,8.7407,8.7407,8.7407,8.7407,8.7407,8.7798,8.8383,8.8383,8.8969,8.9672,8.9672,9.0257,9.1116,9.1702,9.2053,9.2209,9.2209,9.2053,9.1975,9.217,9.2209,9.2248,9.2443,9.2482,9.2482,9.2482,9.2482,9.2482,9.2482,9.2482,9.2482,9.2482,9.2482,9.2482,9.2482,9.2482,9.2482,9.2482,9.2482,9.2482,9.2482,9.2482,9.2756,9.3419,9.3497,9.3849,9.4708,9.4005,9.3771,9.4434,9.4653,9.4646,9.451,9.4466,9.4288,9.4024,9.3672,9.3118,9.2441,9.2271,9.1864,9.121,9.121,9.121,6.6131,6.6522,6.6795,6.6795,6.6795,6.6912,6.7303,6.7381,6.7771,6.902,6.9684,7.0113,7.0426,7.1714,7.2651,7.2456,7.4017,7.5462,0.0,0.0,0.0,0.0,0.0,0.0,0.0,0.0,0.0,0.0,0.0,0.0,0.0,0.0,0.0,0.0,8.448,8.4675,8.4675,8.5612,8.6314,8.6705,8.7173,8.7407,8.7407,8.7407,0.0,0.0,0.0,0.0,8.7407,8.7407,8.7642,8.7993,8.7993,8.854,8.9281,8.9281,8.9867,9.0609,9.0609,9.1155,9.1936,9.2365,9.2482,9.2482,9.2482,9.2482,9.2482,9.2482,9.2482,9.2482,9.2482,9.2482,9.2482,9.2482,9.2482,9.2482,9.2482,9.2482,9.2482,9.2482,9.2482,9.2482,9.2482,9.2482,9.2482,9.2482,9.2482,9.2482,9.2482,9.2834,9.3263,9.3732,9.4161,9.4747,9.5606,9.5254,9.502,9.5098,9.5488,9.566,9.5533,9.5533,9.5239,9.4599,9.4357,9.3969,9.3407,9.3308,9.2729,9.1787,9.1787,9.1595,6.5546,6.617,6.6795,6.6795,6.6912,6.7185,6.7927,6.82,6.8747,7.0387,7.0816,7.1324,7.2651,7.2612,7.2768,7.3939,7.4447,0.0,0.0,0.0,0.0,0.0,0.0,0.0,0.0,0.0,0.0,0.0,0.0,0.0,0.0,0.0,0.0,0.0,8.5651,8.6158,8.6314,8.6314,8.6666,8.7407,8.7407,8.7407,8.7407,8.7407,0.0,0.0,0.0,0.0,8.7407,8.7525,8.8032,8.8696,8.8852,8.9437,9.0179,9.0179,9.0726,9.1467,9.1467,9.1936,9.2482,9.2482,9.2482,9.2482,9.2482,9.2482,9.2482,9.2482,9.2482,9.2482,9.2482,9.2482,9.2482,9.2482,9.2482,9.2482,9.2482,9.2482,9.2482,9.2482,9.2482,9.2482,9.2482,9.2482,9.2482,9.2482,9.26,9.2717,9.2717,9.3458,9.4044,9.42,9.4864,9.5645,9.6503,9.6582,9.6269,9.5527,9.6191,9.6582,9.6582,9.6582,9.6158,9.5239,9.4967,9.4691,9.4434,9.4326,9.3763,9.2738,9.2707,9.2287,6.539,6.617,6.6795,6.6795,6.7342,6.7927,6.8083,6.8669,6.9489,7.0504,7.1285,7.1675,7.1206,7.2768,7.3744,7.2573,0.0,0.0,0.0,0.0,0.0,0.0,0.0,0.0,0.0,0.0,0.0,0.0,0.0,0.0,0.0,0.0,0.0,0.0,0.0,8.6431,8.7173,8.7212,8.729,8.7407,8.7407,8.7407,8.7407,8.7407,8.7407,0.0,0.0,8.7407,8.7446,8.8188,8.8579,8.8774,8.9516,9.0335,9.1116,9.1116,9.1624,9.2326,9.2326,9.2404,9.2482,9.2482,9.2482,9.2482,9.2482,9.2482,9.2482,9.2482,9.2482,9.2482,9.2482,9.2482,9.2482,9.2482,9.2482,9.2482,9.2482,9.2482,9.2482,9.2482,9.2482,9.2482,9.2482,9.2482,9.2482,9.2482,9.3146,9.3615,9.3615,9.4356,9.5176,9.5918,9.6113,9.6542,9.744,9.7518,9.744,9.7323,9.744,9.7518,9.7518,9.7518,9.7433,9.7268,9.6993,9.6515,9.5797,9.5325,9.4665,9.3862,9.362,9.3441,6.4804,6.5819,6.6912,6.7381,6.781,6.8357,6.9294,6.9801,7.0465,7.1831,7.2417,7.2729,7.2768,0.0,7.4408,7.4095,0.0,0.0,0.0,0.0,0.0,0.0,0.0,0.0,0.0,0.0,0.0,0.0,0.0,0.0,0.0,0.0,0.0,0.0,0.0,8.6996,8.7407,8.7407,8.7407,8.7407,8.7407,8.7407,8.7407,8.7407,8.7407,8.7446,0.0,8.811,8.8188,8.9047,8.9672,9.014,9.0531,9.1194,9.1936,9.1936,9.217,9.2482,9.2482,9.2482,9.2482,9.2482,9.2482,9.2482,9.2482,9.2482,9.2482,9.2482,9.2482,9.2482,9.2482,9.2482,9.2482,9.2482,9.2482,9.2482,9.2482,9.2482,9.2482,9.2482,9.2482,9.2482,9.2482,9.2482,9.2678,9.3146,9.3537,9.3966,9.4434,9.5254,9.5957,9.6347,9.6816,9.7245,9.7675,9.7714,9.7714,9.7714,9.7714,9.7714,9.7714,9.7714,9.7714,9.7714,9.7593,9.7265,9.6756,9.6383,9.5713,9.4733,9.4502,9.4134,6.4765,6.5975,6.7342,6.8435,6.8552,6.8825,7.0348,7.1011,7.1636,7.2768,7.3315,7.3705,7.4134,0.0,0.0,0.0,0.0,0.0,0.0,0.0,0.0,0.0,0.0,0.0,0.0,0.0,0.0,0.0,0.0,0.0,0.0,0.0,0.0,0.0,0.0,0.0,8.7407,8.7414,8.7414,8.7407,8.7407,8.7407,8.7407,8.7407,8.7525,8.7759,8.8422,8.8813,8.9086,8.9945,9.0687,9.1311,9.1507,9.1975,9.2482,9.2482,9.2482,9.2482,9.2482,9.2482,9.2482,9.2482,9.2482,9.2482,9.2482,9.2482,9.2482,9.2482,9.2482,9.2482,9.2482,9.2482,9.2482,9.2482,9.2482,9.2482,9.2482,9.2482,9.2482,9.2482,9.2482,9.2561,9.2756,9.2795,9.3107,9.3966,9.4278,9.4669,9.5332,9.6152,9.6699,9.6699,9.7284,9.7714,9.7714,9.7714,9.7714,9.7714,9.7714,9.7714,9.7714,9.7714,9.7714,9.7714,9.7714,9.7602,9.7396,9.7186,9.661,9.5697,9.5483,9.501,6.6209,6.7303,6.8396,7.0074,6.9918,6.9567,7.0504,7.1948,7.2924,7.2221,7.3315,7.4212,7.351,0.0,0.0,0.0,0.0,0.0,0.0,0.0,0.0,0.0,0.0,0.0,0.0,0.0,0.0,0.0,0.0,0.0,0.0,0.0,0.0,0.0,0.0,8.7397,8.7407,8.7397,8.7397,8.7407,8.7407,8.7407,8.7407,8.7407,8.7837,8.8618,8.8657,8.9164,8.9984,9.0843,9.1233,9.1389,9.2131,9.2443,9.2482,9.2482,9.2482,9.2482,9.2482,9.2482,9.2482,9.2482,9.2482,9.2482,9.2482,9.2482,9.2482,9.2482,9.2482,9.2482,9.2482,9.2482,9.2482,9.2482,9.2482,9.2482,9.2482,9.2482,9.2482,9.2482,9.2482,9.2756,9.3576,9.3693,9.4005,9.4864,9.5684,9.623,9.6308,9.7089,9.7597,9.7597,9.7675,9.7714,9.7714,9.7714,9.7714,9.7714,9.7714,9.7714,9.7714,9.7714,9.7714,9.7714,9.7714,9.7675,9.7667,9.7396,9.7147,9.6866,9.6627,9.6332,6.7146,6.8239,6.9215,7.0387,7.0855,7.1089,7.1441,7.2456,7.3354,7.351,7.4486,7.554,0.0,0.0,0.0,0.0,0.0,0.0,0.0,0.0,0.0,0.0,0.0,0.0,0.0,0.0,0.0,0.0,0.0,0.0,0.0,0.0,0.0,0.0,0.0,8.6911,8.7453,8.7451,8.7444,8.7475,8.7436,8.7397,8.7436,8.7943,8.8407,8.8753,8.9834,9.0492,9.0882,9.1741,9.2092,9.2092,9.2365,9.2482,9.2482,9.2482,9.2482,9.2482,9.2482,9.2482,9.2482,9.2482,9.2482,9.2482,9.2482,9.2482,9.2482,9.2482,9.2482,9.2482,9.2482,9.2482,9.2482,9.2482,9.2482,9.2482,9.2482,9.2482,9.2482,9.2482,9.2951,9.3419,9.3732,9.4239,9.4903,9.5762,9.6191,9.6582,9.7128,9.7518,9.7714,9.7714,9.7714,9.7714,9.7714,9.7714,9.7714,9.7714,9.7714,9.7714,9.7714,9.7714,9.7714,9.7714,9.7714,9.7714,9.7714,9.7409,9.7271,9.7204,9.6773,9.6568,6.8396,6.9372,7.004,7.0904,7.1758,7.2339,7.2065,7.2885,7.3861,7.4408,7.5423,7.656,7.7776,0.0,0.0,0.0,0.0,0.0,0.0,0.0,0.0,0.0,0.0,0.0,0.0,0.0,0.0,0.0,0.0,0.0,0.0,0.0,0.0,0.0,0.0,0.0,8.75,8.7496,8.7612,8.7885,8.7846,8.7807,8.7846,8.8705,8.9244,8.9573,9.0771,9.1467,9.1741,9.2365,9.2561,9.2522,9.2522,9.2522,9.2522,9.2522,9.2482,9.2482,9.2482,9.2482,9.2482,9.2482,9.2482,9.2482,9.2522,9.2522,9.2482,9.2522,9.2522,9.2482,9.2482,9.2482,9.2482,9.2482,9.2482,9.2482,9.2482,9.2717,9.2912,9.2912,9.3615,9.4317,9.4552,9.5137,9.5801,9.6699,9.6816,9.7011,9.7636,9.7714,9.7714,9.7714,9.7714,9.7714,9.7714,9.7714,9.7714,9.7714,9.7714,9.7714,9.7714,9.7714,9.7714,9.7714,9.7714,9.7714,9.7714,9.7533,9.7383,9.7301,9.6897,9.6676,7.0035,7.0699,7.0904,7.1783,7.267,7.308,7.2221,7.3354,7.4642,7.4642,7.593,7.7112,7.7133,0.0,0.0,0.0,0.0,0.0,0.0,0.0,0.0,0.0,0.0,0.0,0.0,0.0,0.0,0.0,0.0,0.0,0.0,0.0,0.0,0.0,0.0,0.0,8.75,8.75,8.789,8.8711,8.8711,8.8711,8.875,8.9609,9.0461,9.1311,9.1311,9.178,9.26,9.26,9.26,9.26,9.26,9.26,9.26,9.2522,9.2482,9.2482,9.2482,9.2482,9.2482,9.2482,9.2482,9.2522,9.2561,9.2561,9.2522,9.2561,9.2561,9.2482,9.2482,9.2522,9.2522,9.2482,9.2522,9.2522,9.2522,9.3185,9.381,9.381,9.4512,9.5371,9.6269,9.6425,9.6699,9.7558,9.7714,9.7714,9.7714,9.7714,9.7714,9.7714,9.7714,9.7714,9.7714,9.7714,9.7714,9.7714,9.7714,9.7714,9.7714,9.7714,9.7714,9.7714,9.7714,9.7714,9.7714,9.7714,9.7554,9.7301,9.711,9.6863,7.0764,7.1612,0.0,7.1936,0.0,0.0,7.3119,7.4696,7.6544,7.7169,7.7234,7.7536,7.8713,0.0,0.0,0.0,0.0,0.0,0.0,0.0,0.0,0.0,0.0,0.0,0.0,0.0,0.0,0.0,0.0,0.0,0.0,0.0,0.0,0.0,0.0,0.0,8.75,8.8047,8.8476,8.8711,8.9922,9.0195,8.9648,9.0508,9.1054,9.1322,9.1935,9.2361,9.2595,9.2595,9.2603,9.2611,9.2595,9.2613,9.26,9.2522,9.2482,9.2482,9.2482,9.2482,9.2522,9.2561,9.2561,9.2561,9.26,9.258,9.2551,9.2606,9.26,9.2561,9.2561,9.299,9.3263,9.2639,9.2951,9.3419,9.3419,9.4083,9.4708,9.4708,9.541,9.6113,9.6347,9.6894,9.7401,9.7675,9.7714,9.7714,9.7714,9.7714,9.7714,9.7714,9.7714,9.7714,9.7714,9.7714,9.7714,9.7714,9.7714,9.7714,9.7714,9.7714,9.7714,9.7714,9.7714,9.7714,9.7714,9.7714,9.7659,9.7593,9.734,9.7071,7.1675,7.2257,0.0,0.0,0.0,0.0,0.0,0.0,0.0,0.0,0.0,7.838,0.0,0.0,0.0,0.0,0.0,0.0,0.0,0.0,0.0,0.0,0.0,0.0,0.0,0.0,0.0,0.0,0.0,0.0,0.0,0.0,0.0,0.0,0.0,0.0,8.7969,8.8476,8.9062,8.9765,9.0781,9.1211,9.1054,9.1562,9.1836,9.1836,9.2381,9.2611,9.2611,9.2599,9.2606,9.2617,9.2611,9.2595,9.26,9.2561,9.2522,9.2522,9.2522,9.2522,9.2561,9.26,9.2613,9.2619,9.2606,9.2585,9.2603,9.2599,9.259,9.2697,9.3009,9.3478,9.3712,9.3153,9.3693,9.4317,9.4317,9.4981,9.5606,9.5606,9.6308,9.6933,9.6933,9.7362,9.7714,9.7714,9.7714,9.7714,9.7714,9.7714,9.7714,9.7714,9.7714,9.7714,9.7714,9.7714,9.7714,9.7714,9.7714,9.7714,9.7714,9.7714,9.7714,9.7714,9.7714,9.7714,9.7714,9.7714,9.7714,9.7675,9.7409,9.7255,7.2461,7.2617,0.0,0.0,0.0,0.0,0.0,0.0,0.0,0.0,0.0,0.0,0.0,0.0,0.0,0.0,0.0,0.0,0.0,0.0,0.0,0.0,0.0,0.0,0.0,0.0,0.0,0.0,0.0,0.0,0.0,0.0,0.0,0.0,0.0,0.0,8.8672,8.8867,8.9726,0.0,9.1367,9.1836,9.2617,9.2617,9.2617,9.2617,9.2617,9.2617,9.2617,9.2595,9.2599,9.2617,9.2617,9.2609,9.2613,9.2606,9.2606,9.26,9.2606,9.2606,9.2606,9.26,9.258,9.2599,9.2619,9.259,9.2609,9.2695,9.2732,9.2919,9.3775,9.4087,9.4122,9.4051,9.463,9.5215,9.5215,9.5918,9.6503,9.6503,9.7167,9.7714,9.7714,9.7714,9.7714,9.7714,9.7714,9.7714,9.7714,9.7714,9.7714,9.7714,9.7714,9.7714,9.7714,9.7714,9.7714,9.7714,9.7714,9.7714,9.7714,9.7714,9.7714,9.7714,9.7714,9.7714,9.7714,9.7714,9.7714,9.7675,9.746,9.7316,7.1562,7.2148,0.0,0.0,0.0,0.0,0.0,0.0,0.0,0.0,0.0,0.0,0.0,0.0,0.0,0.0,0.0,0.0,0.0,0.0,0.0,0.0,0.0,0.0,0.0,0.0,0.0,0.0,0.0,0.0,0.0,0.0,0.0,0.0,0.0,8.75,8.8672,9.0078,9.0937,0.0,9.1992,9.2422,9.2617,9.2617,9.2617,9.2617,9.2617,9.2617,9.2617,9.2616,9.2616,9.2617,9.2617,9.2617,9.2613,9.2603,9.2585,9.2606,9.259,9.2595,9.2595,9.2613,9.2606,9.258,9.2609,9.2615,9.2734,9.3437,9.3632,9.3826,9.4676,9.5376,9.5841,9.5853,9.5996,9.6113,9.6113,9.6816,9.7401,9.7401,9.7558,9.7714,9.7714,9.7714,9.7714,9.7714,9.7714,9.7714,9.7714,9.7714,9.7714,9.7714,9.7714,9.7714,9.7714,9.7714,9.7714,9.7714,9.7714,9.7714,9.7714,9.7714,9.7714,9.7714,9.7714,9.7714,9.7714,9.7714,9.7714,9.7714,9.7659,9.7483,7.1406,0.0,0.0,0.0,0.0,0.0,0.0,0.0,0.0,0.0,0.0,0.0,0.0,0.0,0.0,0.0,0.0,0.0,0.0,0.0,0.0,0.0,0.0,0.0,0.0,0.0,0.0,0.0,0.0,0.0,0.0,0.0,0.0,0.0,8.6406,8.7851,8.9922,9.0859,9.1523,9.1914,9.2383,9.2617,9.2617,9.2617,9.2617,9.2617,9.2617,9.2617,9.2617,9.2617,9.2617,9.2617,9.2617,9.2617,9.2617,9.2615,9.2609,9.2599,9.259,9.2603,9.2611,9.2606,9.2603,9.2684,9.3085,9.3203,9.3398,9.4297,9.4531,9.4726,9.5584,9.6129,9.6557,9.6942,9.7008,9.7037,9.7037,9.7388,9.7695,9.7721,9.7714,9.7714,9.7714,9.7714,9.7714,9.7714,9.7714,9.7714,9.7714,9.7714,9.7714,9.7714,9.7714,9.7714,9.7714,9.7714,9.7714,9.7714,9.7714,9.7714,9.7714,9.7714,9.7714,9.7714,9.7714,9.7714,9.7714,9.7714,9.7714,9.7714,9.7714,9.7611,7.1523,0.0,7.2617,0.0,0.0,0.0,0.0,0.0,0.0,0.0,0.0,0.0,0.0,0.0,0.0,0.0,0.0,0.0,0.0,0.0,0.0,0.0,0.0,0.0,0.0,0.0,0.0,0.0,0.0,0.0,0.0,0.0,8.3633,8.6133,8.6484,8.8125,9.1289,9.1445,9.1875,9.2617,9.2617,9.2617,9.2617,9.2617,9.2617,9.2617,9.2617,9.2617,9.2617,9.2617,9.2617,9.2617,9.2617,9.2617,9.2617,9.2617,9.2617,9.2617,9.2595,9.2606,9.2617,9.2617,9.2695,9.2969,9.3672,9.4023,9.4297,9.5195,9.5429,9.5625,9.6484,9.6719,9.6875,9.7539,9.7693,9.7684,9.7684,9.7684,9.7719,9.7689,9.7682,9.7682,9.7682,9.7682,9.7682,9.7714,9.7714,9.7714,9.7714,9.7714,9.7714,9.7714,9.7714,9.7714,9.7714,9.7714,9.7714,9.7714,9.7714,9.7714,9.7714,9.7714,9.7714,9.7714,9.7714,9.7714,9.7714,9.7714,9.7714,9.7714,9.7714,9.7714,0.0,0.0,0.0,0.0,0.0,0.0,0.0,0.0,0.0,0.0,0.0,0.0,0.0,0.0,0.0,0.0,0.0,0.0,0.0,0.0,0.0,0.0,0.0,0.0,0.0,0.0,0.0,0.0,0.0,0.0,0.0,8.3008,8.4297,8.6133,8.7617,8.9297,9.1289,9.2031,9.2461,9.2617,9.2617,9.2617,9.2617,9.2617,9.2617,9.2617,9.2617,9.2617,9.2617,9.2617,9.2617,9.2617,9.2617,9.2617,9.2617,9.2617,9.2617,9.2617,9.2616,9.2617,9.2617,9.2617,9.3125,9.375,9.3867,9.4414,9.5195,9.6094,9.6328,9.6523,9.7344,9.7539,9.7578,9.7656,9.7695,9.7695,9.7695,9.7695,9.7693,9.7719,9.7715,9.7715,9.7715,9.7715,9.7706,9.7721,9.7714,9.7714,9.7714,9.7714,9.7714,9.7714,9.7714,9.7714,9.7714,9.7714,9.7714,9.7714,9.7714,9.7714,9.7714,9.7714,9.7714,9.7714,9.7714,9.7714,9.7714,9.7714,9.7714,9.7714,9.7714,9.7714,7.2109,0.0,0.0,0.0,0.0,0.0,0.0,0.0,0.0,0.0,0.0,0.0,0.0,0.0,0.0,0.0,0.0,0.0,0.0,0.0,0.0,0.0,0.0,0.0,0.0,0.0,0.0,0.0,0.0,0.0,8.2304,8.3594,8.5117,8.6875,8.8554,9.0273,9.1992,9.2422,9.2617,9.2617,9.2617,9.2617,9.2617,9.2617,9.2617,9.2617,9.2617,9.2617,9.2617,9.2617,9.2617,9.2617,9.2617,9.2617,9.2617,9.2617,9.2617,9.2617,9.2617,9.2617,9.2695,9.3164,9.3594,9.4062,9.5078,9.5625,9.6094,9.6953,9.7187,9.7265,9.7617,9.7695,9.7695,9.7695,9.7695,9.7695,9.7695,9.7695,9.7695,9.7693,9.7691,9.7691,9.7691,9.7691,9.7691,9.7684,9.7701,9.7714,9.7714,9.7714,9.7714,9.7714,9.7714,9.7714,9.7714,9.7714,9.7714,9.7714,9.7714,9.7714,9.7714,9.7714,9.7714,9.7714,9.7714,9.7714,9.7714,9.7714,9.7714,9.7714,9.7714,9.7714,0.0,0.0,0.0,0.0,0.0,0.0,0.0,0.0,0.0,0.0,0.0,0.0,0.0,0.0,0.0,0.0,0.0,0.0,0.0,0.0,0.0,0.0,0.0,0.0,0.0,0.0,0.0,0.0,0.0,0.0,8.2929,8.4414,8.6133,8.8086,8.957,9.1054,9.2578,9.2617,9.2617,9.2617,9.2617,9.2617,9.2617,9.2617,9.2617,9.2617,9.2617,9.2617,9.2617,9.2617,9.2617,9.2617,9.2617,9.2617,9.2617,9.2617,9.2617,9.2617,9.2851,9.2929,9.3086,9.3945,9.4375,9.4804,9.6094,9.664,9.6914,9.7539,9.7695,9.7695,9.7695,9.7695,9.7695,9.7695,9.7695,9.7695,9.7695,9.7695,9.7695,9.7695,9.7695,9.7695,9.7695,9.7695,9.7695,9.7695,9.7684,9.7701,9.7689,9.7682,9.7714,9.7714,9.7714,9.7714,9.7714,9.7714,9.7714,9.7714,9.7714,9.7714,9.7714,9.7714,9.7714,9.7714,9.7714,9.7714,9.7714,9.7714,9.7714,9.7714,9.7714,9.7714,0.0,7.2656,0.0,0.0,0.0,0.0,0.0,0.0,0.0,0.0,0.0,0.0,0.0,0.0,0.0,0.0,0.0,0.0,0.0,0.0,0.0,0.0,0.0,0.0,0.0,0.0,0.0,0.0,0.0,0.0,8.4687,8.5625,8.7265,8.9804,9.0742,9.1679,9.2578,9.2617,9.2617,9.2617,9.2617,9.2617,9.2617,9.2617,9.2617,9.2617,9.2617,9.2617,9.2617,9.2617,9.2617,9.2617,9.2617,9.2617,9.2617,9.2617,9.2617,9.2734,9.3554,9.3828,9.3984,9.4844,9.5703,9.6367,9.6484,9.7031,9.7656,9.7695,9.7695,9.7695,9.7695,9.7695,9.7695,9.7695,9.7695,9.7695,9.7695,9.7695,9.7695,9.7695,9.7695,9.7695,9.7695,9.7695,9.7695,9.7695,9.7695,9.7693,9.768,9.7695,9.7714,9.7714,9.7714,9.7714,9.7714,9.7714,9.7714,9.7714,9.7714,9.7714,9.7714,9.7714,9.7714,9.7714,9.7714,9.7714,9.7714,9.7714,9.7714,9.7714,9.7714,9.7714,0.0,0.0,0.0,0.0,0.0,0.0,0.0,0.0,0.0,0.0,0.0,0.0,0.0,0.0,0.0,0.0,0.0,0.0,0.0,0.0,0.0,0.0,0.0,0.0,0.0,0.0,0.0,0.0,0.0,0.0,8.4804,8.625,8.7969,8.9922,9.1406,9.2265,9.2617,9.2617,9.2617,9.2617,9.2617,9.2617,9.2617,9.2617,9.2617,9.2617,9.2617,9.2617,9.2617,9.2617,9.2617,9.2617,9.2617,9.2617,9.2617,9.2617,9.2969,9.3476,9.3789,9.4258,9.4883,9.5742,9.625,9.6601,9.7109,9.7461,9.7695,9.7695,9.7695,9.7695,9.7695,9.7695,9.7695,9.7695,9.7695,9.7695,9.7695,9.7695,9.7695,9.7695,9.7695,9.7695,9.7695,9.7695,9.7695,9.7695,9.7695,9.7695,9.7693,9.7689,9.7684,9.7711,9.7689,9.7714,9.7714,9.7714,9.7714,9.7714,9.7714,9.7714,9.7714,9.7714,9.7714,9.7714,9.7714,9.7714,9.7714,9.7714,9.7714,9.7714,9.7714,9.7714,7.2461,7.2422,0.0,0.0,0.0,0.0,0.0,0.0,0.0,0.0,0.0,0.0,0.0,0.0,0.0,0.0,0.0,0.0,0.0,0.0,0.0,0.0,0.0,0.0,0.0,0.0,0.0,0.0,0.0,0.0,8.5664,8.6875,8.8554,9.0781,9.1992,9.2617,9.2617,9.2617,9.2617,9.2617,9.2617,9.2617,9.2617,9.2617,9.2617,9.2617,9.2617,9.2617,9.2617,9.2617,9.2617,9.2617,9.2617,9.2617,9.2656,9.2929,9.3398,9.3984,9.457,9.5156,9.5781,9.664,9.6914,9.6992,9.7539,9.7695,9.7695,9.7695,9.7695,9.7695,9.7695,9.7695,9.7695,9.7695,9.7695,9.7695,9.7695,9.7695,9.7695,9.7695,9.7695,9.7695,9.7695,9.7695,9.7695,9.7695,9.7695,9.7695,9.7695,9.7695,9.7695,9.7689,9.7719,9.7706,9.7695,9.7682,9.7714,9.7714,9.7714,9.7714,9.7714,9.7714,9.7714,9.7714,9.7714,9.7714,9.7714,9.7714,9.7714,9.7714,9.7714,9.7714,0.0,0.0,0.0,0.0,0.0,0.0,0.0,0.0,0.0,0.0,0.0,0.0,0.0,0.0,0.0,0.0,0.0,0.0,0.0,0.0,0.0,0.0,0.0,0.0,0.0,0.0,0.0,0.0,0.0,8.3828,8.7304,8.7617,8.9179,9.25,9.2617,9.2617,9.2617,9.2617,9.2617,9.2617,9.2617,9.2617,9.2617,9.2617,9.2617,9.2617,9.2617,9.2617,9.2617,9.2617,9.2617,9.2617,9.2617,9.2617,9.2734,9.3594,9.3945,9.4219,9.5898,9.6523,9.664,9.7461,9.7695,9.7695,9.7695,9.7695,9.7695,9.7695,9.7695,9.7695,9.7695,9.7695,9.7695,9.7695,9.7695,9.7695,9.7695,9.7695,9.7695,9.7695,9.7695,9.7695,9.7695,9.7695,9.7695,9.7695,9.7695,9.7695,9.7695,9.7695,9.7695,9.7695,9.7695,9.7694,9.7684,9.7701,9.7714,9.7714,9.7714,9.7714,9.7714,9.7714,9.7714,9.7714,9.7714,9.7714,9.7714,9.7714,9.7714,9.7714,9.7714,9.7714,7.1562,0.0,0.0,0.0,0.0,0.0,0.0,0.0,0.0,0.0,0.0,0.0,0.0,0.0,0.0,0.0,0.0,0.0,0.0,0.0,0.0,0.0,0.0,0.0,0.0,0.0,0.0,0.0,8.2422,8.3828,8.7304,8.9844,9.1601,9.2578,9.2617,9.2617,9.2617,9.2617,9.2617,9.2617,9.2617,9.2617,9.2617,9.2617,9.2617,9.2617,9.2617,9.2617,9.2617,9.2617,9.2617,9.2617,9.2617,9.3008,9.3554,9.3828,9.4687,9.5859,9.6328,9.6875,9.7383,9.7617,9.7695,9.7695,9.7695,9.7695,9.7695,9.7695,9.7695,9.7695,9.7695,9.7695,9.7695,9.7695,9.7695,9.7695,9.7695,9.7695,9.7695,9.7695,9.7695,9.7695,9.7695,9.7695,9.7695,9.7695,9.7695,9.7695,9.7695,9.7695,9.7695,9.7695,9.7695,9.7695,9.7694,9.7691,9.768,9.7721,9.7714,9.7714,9.7714,9.7714,9.7714,9.7714,9.7714,9.7714,9.7714,9.7714,9.7714,9.7714,9.7714,9.7714,7.1597,7.1807,7.187,7.1794,0.0,0.0,0.0,0.0,0.0,0.0,0.0,0.0,0.0,0.0,0.0,0.0,0.0,0.0,0.0,0.0,0.0,0.0,0.0,0.0,0.0,0.0,0.0,0.0,8.2851,8.4219,8.7344,9.039,9.2226,9.2578,9.2617,9.2617,9.2617,9.2617,9.2617,9.2617,9.2617,9.2617,9.2617,9.2617,9.2617,9.2617,9.2617,9.2617,9.2617,9.3008,9.3125,9.3125,9.3125,9.3672,9.4492,9.4844,9.5625,9.6562,9.6875,9.7304,9.7695,9.7695,9.7695,9.7695,9.7695,9.7695,9.7695,9.7695,9.7695,9.7695,9.7695,9.7695,9.7695,9.7695,9.7695,9.7695,9.7695,9.7695,9.7695,9.7695,9.7695,9.7695,9.7695,9.7695,9.7695,9.7695,9.7695,9.7695,9.7695,9.7695,9.7695,9.7695,9.7695,9.7695,9.7695,9.7695,9.7693,9.7715,9.7695,9.7714,9.7714,9.7714,9.7714,9.7714,9.8065,9.8416,9.8768,9.8065,9.7714,9.7714,9.7714,9.7714,7.1708,7.1665,7.1707,7.1669,0.0,0.0,0.0,0.0,0.0,0.0,0.0,0.0,0.0,0.0,0.0,0.0,0.0,0.0,0.0,0.0,0.0,0.0,0.0,0.0,0.0,0.0,8.4687,8.3828,8.3906,8.5078,8.75,8.9961,9.1719,9.2578,9.2617,9.2617,9.2617,9.2617,9.2617,9.2617,9.2617,9.2617,9.2617,9.2617,9.2617,9.2617,9.2617,9.2656,9.2812,9.3594,9.3906,9.3906,9.4023,9.457,9.5429,9.6211,9.6562,9.6758,9.7461,9.7695,9.7695,9.7695,9.7695,9.7695,9.7695,9.7695,9.7695,9.7695,9.7695,9.7695,9.7695,9.7695,9.7695,9.7695,9.7695,9.7695,9.7695,9.7695,9.7695,9.7695,9.7695,9.7695,9.7695,9.7695,9.7695,9.7695,9.7695,9.7695,9.7695,9.7695,9.7695,9.7695,9.7695,9.7695,9.7695,9.7695,9.7695,9.7695,9.7715,9.7682,9.7714,9.7714,9.7753,9.7831,9.869,9.9548,10.029,9.8729,9.7987,9.7987,9.7987,9.7987,7.1609,7.1552,7.1644,7.1589,0.0,0.0,0.0,0.0,0.0,0.0,0.0,0.0,0.0,0.0,0.0,0.0,0.0,0.0,0.0,0.0,0.0,0.0,0.0,0.0,0.0,0.0,8.5586,8.4726,8.5937,8.7226,8.8398,9.0273,9.1719,9.2578,9.2617,9.2617,9.2617,9.2617,9.2617,9.2617,9.2617,9.2617,9.2617,9.2617,9.2617,9.2617,9.2617,9.3008,9.3672,9.3828,9.3906,9.3984,9.4687,9.5469,9.6289,9.6445,9.6914,9.75,9.7656,9.7695,9.7695,9.7695,9.7695,9.7695,9.7695,9.7695,9.7695,9.7695,9.7695,9.7695,9.7695,9.7695,9.7695,9.7695,9.7695,9.7695,9.7695,9.7695,9.7695,9.7695,9.7695,9.7695,9.7695,9.7695,9.7695,9.7695,9.7695,9.7695,9.7695,9.7695,9.7695,9.7695,9.7695,9.7695,9.7695,9.7695,9.7695,9.7695,9.7694,9.7684,9.7714,9.7714,9.8026,9.8729,9.9588,10.0095,10.029,9.9978,9.9783,9.9783,9.9783,9.9783,7.1562,7.1407,7.1485,7.1407,0.0,0.0,0.0,0.0,0.0,0.0,0.0,0.0,0.0,0.0,0.0,0.0,0.0,0.0,0.0,0.0,0.0,0.0,0.0,0.0,0.0,0.0,8.6484,8.5625,8.6367,8.7226,8.8047,8.9726,9.1054,9.1914,9.2383,9.2617,9.2617,9.2617,9.2617,9.2617,9.2617,9.2617,9.2617,9.2617,9.2617,9.2617,9.3047,9.3515,9.3984,9.4844,9.5195,9.5234,9.5664,9.6367,9.7109,9.7109,9.7344,9.7695,9.7695,9.7695,9.7695,9.7695,9.7695,9.7695,9.7695,9.7695,9.7695,9.7695,9.7695,9.7695,9.7695,9.7695,9.7695,9.7695,9.7695,9.7695,9.7695,9.7695,9.7695,9.7695,9.7695,9.7695,9.7695,9.7695,9.7695,9.7695,9.7695,9.7695,9.7695,9.7695,9.7695,9.7695,9.7695,9.7695,9.7695,9.7695,9.7695,9.7695,9.7695,9.7689,9.7714,9.8104,9.8963,10.029,10.0681,10.111,10.15,10.15,10.111,10.029,10.029,10.029,0.0,0.0,0.0,0.0,0.0,7.1678,0.0,0.0,0.0,0.0,0.0,0.0,0.0,0.0,0.0,0.0,0.0,0.0,0.0,0.0,0.0,0.0,0.0,0.0,0.0,0.0,8.7383,8.6523,8.6601,8.6992,8.7695,8.9179,9.039,9.1289,9.2148,9.2617,9.2617,9.2617,9.2617,9.2617,9.2617,9.2617,9.2617,9.2617,9.2695,9.289,9.3594,9.4101,9.4492,9.5937,9.6601,9.6719,9.6719,9.7148,9.7695,9.7695,9.7695,9.7695,9.7695,9.7695,9.7695,9.7695,9.7695,9.7695,9.7695,9.7695,9.7695,9.7695,9.7695,9.7695,9.7695,9.7695,9.7695,9.7695,9.7695,9.7695,9.7695,9.7695,9.7695,9.7695,9.7695,9.7695,9.7695,9.7695,9.7695,9.7695,9.7695,9.7695,9.7695,9.7695,9.7695,9.7695,9.7695,9.7695,9.7695,9.7695,9.7695,9.7695,9.7695,9.7769,9.7935,9.8938,10.018,10.1578,10.1696,10.2086,10.2789,10.2789,10.2086,10.0798,10.0798,10.0798,0.0,0.0,0.0,0.0,7.1291,0.0,0.0,0.0,0.0,0.0,0.0,0.0,0.0,0.0,0.0,0.0,0.0,0.0,0.0,0.0,0.0,0.0,0.0,0.0,0.0,0.0,0.0,8.7422,8.8008,8.8476,8.8554,8.9492,9.039,9.1289,9.2148,9.2617,9.2617,9.2617,9.2617,9.2617,9.2617,9.2617,9.2617,9.2617,9.3008,9.375,9.3867,9.4765,9.6211,9.6406,9.6914,9.7578,9.7578,9.7617,9.7695,9.7695,9.7695,9.7695,9.7695,9.7695,9.7695,9.7695,9.7695,9.7695,9.7695,9.7695,9.7695,9.7695,9.7695,9.7695,9.7695,9.7695,9.7695,9.7695,9.7695,9.7695,9.7695,9.7695,9.7695,9.7695,9.7695,9.7695,9.7695,9.7695,9.7695,9.7695,9.7695,9.7695,9.7695,9.7695,9.7695,9.7695,9.7695,9.7695,9.7695,9.7695,9.7695,9.7695,9.7695,9.8046,9.8827,10.0382,10.1416,10.1578,10.2281,10.2711,10.2789,10.2789,10.2711,10.2515,10.2515,10.2515,0.0,0.0,0.0,0.0,0.0,0.0,7.1523,0.0,7.1407,0.0,0.0,0.0,0.0,0.0,0.0,0.0,0.0,0.0,0.0,0.0,0.0,0.0,0.0,0.0,0.0,0.0,0.0,0.0,0.0,8.8515,8.8047,8.9258,9.0156,9.0547,9.1875,9.2617,9.2617,9.2617,9.2617,9.2617,9.2617,9.2617,9.2617,9.2617,9.3086,9.3945,9.4414,9.5351,9.6523,9.6992,9.7383,9.7695,9.7695,9.7695,9.7695,9.7695,9.7695,9.7695,9.7695,9.7695,9.7695,9.7695,9.7695,9.7695,9.7695,9.7695,9.7695,9.7695,9.7695,9.7695,9.7695,9.7695,9.7695,9.7695,9.7695,9.7695,9.7695,9.7695,9.7695,9.7695,9.7695,9.7695,9.7695,9.7695,9.7695,9.7695,9.7695,9.7695,9.7695,9.7695,9.7695,9.7695,9.7695,9.7695,9.7695,9.7695,9.7695,9.7695,9.8164,9.9062,10.0508,10.121,10.1793,10.2293,10.2615,10.2789,10.2789,10.2789,10.2789,10.2789,10.2789,10.2789,7.5624,0.0,0.0,0.0,0.0,0.0,0.0,0.0,0.0,0.0,0.0,0.0,0.0,0.0,0.0,0.0,0.0,0.0,0.0,0.0,0.0,0.0,0.0,0.0,0.0,0.0,0.0,0.0,0.0,0.0,8.7539,8.8867,8.9765,9.0,9.1445,9.2344,9.2617,9.2617,9.2617,9.2617,9.2617,9.2617,9.2617,9.2851,9.3437,9.4297,9.5195,9.6054,9.6875,9.7461,9.7695,9.7695,9.7695,9.7695,9.7695,9.7695,9.7695,9.7695,9.7695,9.7695,9.7695,9.7695,9.7695,9.7695,9.7695,9.7695,9.7695,9.7695,9.7695,9.7695,9.7695,9.7695,9.7695,9.7695,9.7695,9.7695,9.7695,9.7695,9.7695,9.7695,9.7695,9.7695,9.7695,9.7695,9.7695,9.7695,9.7695,9.7695,9.7695,9.7695,9.7695,9.7695,9.7695,9.7695,9.7695,9.7695,9.7812,9.8047,9.8867,10.0,10.1484,10.1797,10.2304,10.289,10.291,10.2796,10.2789,10.2789,10.2789,10.2789,10.2789,10.2789,0.0,0.0,0.0,7.5876,0.0,0.0,0.0,0.0,7.2568,0.0,0.0,0.0,0.0,7.2783,7.29,7.2916,7.3712,0.0,0.0,0.0,0.0,0.0,0.0,0.0,0.0,0.0,0.0,0.0,0.0,0.0,8.7539,8.8281,8.914,8.9961,9.0859,9.1758,9.2578,9.2617,9.2617,9.2617,9.2617,9.2617,9.2617,9.3476,9.4336,9.5195,9.6094,9.6914,9.7656,9.7695,9.7695,9.7695,9.7695,9.7695,9.7695,9.7695,9.7695,9.7695,9.7695,9.7695,9.7695,9.7695,9.7695,9.7695,9.7695,9.7695,9.7695,9.7695,9.7695,9.7695,9.7695,9.7695,9.7695,9.7695,9.7695,9.7695,9.7695,9.7695,9.7695,9.7695,9.7695,9.7695,9.7695,9.7695,9.7695,9.7695,9.7695,9.7695,9.7695,9.7695,9.7695,9.7695,9.7695,9.7695,9.7695,9.7695,9.8047,9.8906,9.9765,10.0703,10.1601,10.2383,10.289,10.289,10.2884,10.29,10.2789,10.2789,10.2789,10.2789,10.2789,10.2789,0.0,0.0,7.7805,7.6683,0.0,0.0,0.0,0.0,0.0,0.0,0.0,0.0,0.0,7.3922,7.4309,7.4324,7.5082,7.5802,0.0,0.0,0.0,0.0,0.0,0.0,0.0,0.0,0.0,0.0,0.0,0.0,0.0,8.8242,8.9101,8.9961,9.0859,9.1719,9.2578,9.2617,9.2617,9.2617,9.2617,9.2617,9.2617,9.3515,9.4375,9.5234,9.6133,9.6953,9.7695,9.7695,9.7695,9.7695,9.7695,9.7695,9.7695,9.7695,9.7695,9.7695,9.7695,9.7695,9.7695,9.7695,9.7695,9.7695,9.7695,9.7695,9.7695,9.7695,9.7695,9.7695,9.7695,9.7695,9.7695,9.7695,9.7695,9.7695,9.7695,9.7695,9.7695,9.7695,9.7695,9.7695,9.7695,9.7695,9.7695,9.7695,9.7695,9.7695,9.7695,9.7695,9.7695,9.7695,9.7695,9.7695,9.7695,9.8242,9.8945,9.9804,10.0703,10.1601,10.2383,10.2695,10.289,10.289,10.2889,10.2917,10.2906,10.2789,10.2789,10.2789,10.2789,10.2789,8.1039,8.0459,0.0,7.8486,7.8602,0.0,7.7635,0.0,0.0,0.0,0.0,0.0,0.0,0.0,7.4889,7.5469,7.5508,7.5647,0.0,0.0,0.0,0.0,0.0,0.0,0.0,0.0,0.0,0.0,0.0,0.0,0.0,0.0,8.8789,8.9961,9.0547,9.1406,9.2578,9.2617,9.2617,9.2617,9.2617,9.2773,9.3086,9.3945,9.4844,9.5703,9.6562,9.7226,9.7695,9.7695,9.7695,9.7695,9.7695,9.7695,9.7695,9.7695,9.7695,9.7695,9.7695,9.7695,9.7695,9.7695,9.7695,9.7695,9.7695,9.7695,9.7656,9.7344,9.7461,9.7617,9.7344,9.75,9.7695,9.7695,9.7695,9.7695,9.7695,9.7695,9.7695,9.7695,9.7695,9.7695,9.7695,9.7695,9.7695,9.7695,9.7695,9.7695,9.7695,9.7695,9.7695,9.7695,9.7695,9.7695,9.7695,9.8515,9.9375,10.0195,10.1094,10.1992,10.289,10.289,10.2617,10.1992,10.2617,10.2615,10.2007,10.2621,10.2803,10.2789,10.2789,10.2789]},{"header":{"parameterUnit":"m.s-1","parameterCategory":1,"la1":30.6,"la2":29.2853,"lo1":-89.7004,"lo2":-87.6739,"dx":0.0162,"dy":0.0183,"nx":112,"ny":82,"refTime":"2022-12-19T06:00:00:Z","depth":0,"parameterNumber":3,"parameterNumberName":"V-component_of_WINDS"},"data":[0.0,0.0,0.0,0.0,0.0,0.0,0.0,0.0,0.0,0.0,0.0,0.0,0.0,0.0,0.0,0.0,0.0,0.0,0.0,0.0,0.0,0.0,0.0,0.0,0.0,0.0,0.0,0.0,0.0,0.0,0.0,0.0,0.0,0.0,0.0,0.0,0.0,0.0,0.0,0.0,0.0,0.0,0.0,0.0,0.0,0.0,0.0,0.0,0.0,0.0,0.0,0.0,0.0,0.0,0.0,0.0,0.0,0.0,0.0,0.0,0.0,0.0,0.0,0.0,0.0,0.0,0.0,0.0,0.0,0.0,0.0,0.0,0.0,0.0,0.0,0.0,0.0,0.0,0.0,0.0,0.0,0.0,0.0,0.0,0.0,0.0,0.0,0.0,0.0,0.0,0.0,-1.0934,-1.1311,-1.1697,-1.1954,-1.2224,-1.2632,-1.3139,0.0,0.0,0.0,0.0,0.0,0.0,0.0,0.0,0.0,0.0,0.0,0.0,0.0,0.0,0.0,0.0,0.0,0.0,0.0,0.0,0.0,0.0,0.0,0.0,0.0,0.0,0.0,0.0,0.0,0.0,0.0,0.0,0.0,0.0,0.0,0.0,0.0,0.0,0.0,0.0,0.0,0.0,0.0,0.0,0.0,0.0,0.0,0.0,0.0,0.0,0.0,0.0,0.0,0.0,0.0,0.0,0.0,0.0,0.0,0.0,0.0,0.0,0.0,0.0,0.0,0.0,0.0,0.0,0.0,0.0,0.0,0.0,0.0,0.0,0.0,0.0,0.0,0.0,0.0,0.0,0.0,0.0,0.0,0.0,0.0,0.0,0.0,0.0,0.0,0.0,0.0,0.0,0.0,0.0,0.0,0.0,0.0,0.0,0.0,0.0,0.0,0.0,0.0,0.0,-1.1142,-1.1111,-1.1898,-1.216,-1.1881,-1.2602,-1.2819,-1.2429,0.0,0.0,0.0,0.0,0.0,0.0,0.0,0.0,0.0,0.0,0.0,0.0,0.0,0.0,0.0,0.0,0.0,0.0,0.0,0.0,0.0,0.0,0.0,0.0,0.0,0.0,0.0,0.0,0.0,0.0,0.0,0.0,0.0,0.0,0.0,0.0,0.0,0.0,0.0,0.0,0.0,0.0,0.0,0.0,0.0,0.0,0.0,0.0,0.0,0.0,0.0,0.0,0.0,0.0,0.0,0.0,0.0,0.0,0.0,0.0,0.0,0.0,0.0,0.0,0.0,0.0,0.0,0.0,0.0,0.0,0.0,0.0,0.0,0.0,0.0,0.0,0.0,0.0,0.0,0.0,0.0,0.0,0.0,0.0,0.0,0.0,0.0,0.0,0.0,0.0,0.0,0.0,0.0,0.0,0.0,0.0,0.0,0.0,0.0,0.0,0.0,0.0,0.0,-1.1221,-1.1401,-1.1424,-1.1593,-1.1788,-1.171,-1.2139,-1.2306,-1.2079,-1.262,0.0,0.0,0.0,0.0,0.0,0.0,0.0,0.0,0.0,0.0,0.0,0.0,0.0,0.0,0.0,0.0,0.0,0.0,0.0,0.0,0.0,0.0,0.0,0.0,0.0,0.0,0.0,0.0,0.0,0.0,0.0,0.0,0.0,0.0,0.0,0.0,0.0,0.0,0.0,0.0,0.0,0.0,0.0,0.0,0.0,0.0,0.0,0.0,0.0,0.0,0.0,0.0,0.0,0.0,0.0,0.0,0.0,0.0,0.0,0.0,0.0,0.0,0.0,0.0,0.0,0.0,0.0,0.0,0.0,0.0,0.0,0.0,0.0,0.0,0.0,0.0,0.0,0.0,0.0,0.0,0.0,0.0,0.0,0.0,0.0,0.0,0.0,0.0,0.0,0.0,0.0,0.0,0.0,0.0,0.0,0.0,0.0,0.0,0.0,0.0,0.0,0.0,-1.134,-1.1396,-1.1403,-1.1441,-1.149,-1.161,-1.1992,-1.2088,-1.2007,-1.2242,0.0,0.0,0.0,0.0,0.0,0.0,0.0,0.0,0.0,0.0,0.0,0.0,0.0,0.0,0.0,0.0,0.0,0.0,0.0,0.0,0.0,0.0,0.0,0.0,0.0,0.0,0.0,0.0,0.0,0.0,0.0,0.0,0.0,0.0,0.0,0.0,0.0,0.0,0.0,0.0,0.0,0.0,0.0,0.0,0.0,0.0,0.0,0.0,0.0,0.0,0.0,0.0,0.0,0.0,0.0,0.0,0.0,0.0,0.0,0.0,0.0,0.0,0.0,0.0,0.0,0.0,0.0,0.0,0.0,0.0,0.0,0.0,0.0,0.0,0.0,0.0,0.0,0.0,0.0,0.0,0.0,0.0,0.0,0.0,0.0,0.0,0.0,0.0,0.0,0.0,0.0,0.0,0.0,0.0,0.0,0.0,0.0,0.0,0.0,0.0,0.0,0.0,-1.1504,-1.1283,-1.1283,-1.1832,-1.2094,-1.1938,-1.2357,-1.267,-1.245,-1.2419,0.0,0.0,0.0,0.0,0.0,0.0,0.0,0.0,0.0,0.0,0.0,0.0,0.0,0.0,0.0,0.0,0.0,0.0,0.0,0.0,0.0,0.0,0.0,0.0,0.0,0.0,0.0,0.0,0.0,0.0,0.0,0.0,0.0,0.0,0.0,0.0,0.0,0.0,0.0,0.0,0.0,0.0,0.0,0.0,0.0,0.0,0.0,0.0,0.0,0.0,0.0,0.0,0.0,0.0,0.0,0.0,0.0,0.0,0.0,0.0,0.0,0.0,0.0,0.0,0.0,0.0,0.0,0.0,0.0,0.0,0.0,0.0,0.0,0.0,0.0,0.0,0.0,0.0,0.0,0.0,0.0,0.0,0.0,0.0,0.0,0.0,0.0,0.0,0.0,0.0,0.0,0.0,0.0,0.0,0.0,0.0,0.0,0.0,0.0,0.0,0.0,0.0,-1.1747,-1.1545,0.0,-1.1489,-1.1698,-1.1538,-1.1754,-1.2129,-1.2195,0.0,0.0,0.0,0.0,0.0,0.0,0.0,0.0,0.0,0.0,0.0,0.0,0.0,0.0,0.0,0.0,0.0,0.0,0.0,0.0,0.0,0.0,0.0,0.0,0.0,0.0,0.0,0.0,0.0,0.0,0.0,0.0,0.0,0.0,0.0,0.0,0.0,0.0,0.0,0.0,0.0,0.0,0.0,0.0,0.0,0.0,0.0,0.0,0.0,0.0,0.0,0.0,0.0,0.0,0.0,0.0,0.0,0.0,0.0,0.0,0.0,0.0,0.0,0.0,0.0,0.0,0.0,0.0,0.0,0.0,0.0,0.0,0.0,0.0,0.0,0.0,0.0,0.0,0.0,0.0,0.0,0.0,0.0,0.0,0.0,0.0,0.0,0.0,0.0,0.0,0.0,0.0,0.0,0.0,0.0,0.0,0.0,0.0,0.0,0.0,0.0,0.0,-1.1993,-1.1891,-1.1629,0.0,-1.1369,-1.1423,-1.1314,-1.1538,-1.1823,-1.2015,0.0,0.0,0.0,0.0,0.0,0.0,0.0,0.0,0.0,0.0,0.0,0.0,0.0,0.0,0.0,0.0,0.0,0.0,0.0,0.0,0.0,0.0,0.0,0.0,0.0,0.0,0.0,0.0,0.0,0.0,0.0,0.0,0.0,0.0,0.0,0.0,0.0,0.0,0.0,0.0,0.0,0.0,0.0,0.0,0.0,0.0,0.0,0.0,0.0,0.0,0.0,0.0,0.0,0.0,0.0,0.0,0.0,0.0,0.0,0.0,0.0,0.0,0.0,0.0,0.0,0.0,0.0,0.0,0.0,0.0,0.0,0.0,0.0,0.0,0.0,0.0,0.0,0.0,0.0,0.0,0.0,0.0,0.0,0.0,0.0,0.0,0.0,0.0,0.0,0.0,0.0,0.0,0.0,0.0,0.0,0.0,0.0,0.0,0.0,0.0,0.0,0.0,-1.2315,-1.1811,-1.1389,-1.1396,-1.1531,-1.1619,-1.1619,-1.1748,-1.1914,0.0,0.0,0.0,0.0,0.0,0.0,0.0,0.0,0.0,0.0,0.0,0.0,0.0,0.0,0.0,0.0,0.0,0.0,0.0,0.0,0.0,0.0,0.0,0.0,0.0,0.0,0.0,0.0,0.0,0.0,0.0,0.0,0.0,0.0,0.0,0.0,0.0,0.0,0.0,0.0,0.0,0.0,0.0,0.0,0.0,0.0,0.0,0.0,0.0,0.0,0.0,0.0,0.0,0.0,0.0,0.0,0.0,0.0,0.0,0.0,0.0,0.0,0.0,0.0,0.0,0.0,0.0,0.0,0.0,0.0,0.0,0.0,0.0,0.0,0.0,0.0,0.0,0.0,0.0,0.0,0.0,0.0,0.0,0.0,0.0,0.0,0.0,0.0,0.0,0.0,0.0,0.0,0.0,0.0,0.0,0.0,0.0,0.0,0.0,0.0,0.0,0.0,0.0,0.0,-1.1671,-1.1436,-1.1538,-1.1592,-1.1619,-1.1619,-1.1748,-1.1914,-1.2058,0.0,0.0,0.0,0.0,0.0,0.0,0.0,0.0,0.0,0.0,0.0,0.0,0.0,0.0,0.0,0.0,0.0,0.0,0.0,0.0,0.0,0.0,0.0,0.0,0.0,0.0,0.0,0.0,0.0,0.0,0.0,0.0,0.0,0.0,0.0,0.0,0.0,0.0,0.0,0.0,0.0,0.0,0.0,0.0,0.0,0.0,0.0,0.0,0.0,0.0,0.0,0.0,0.0,0.0,0.0,0.0,0.0,0.0,0.0,0.0,0.0,0.0,0.0,0.0,0.0,0.0,0.0,0.0,0.0,0.0,0.0,0.0,0.0,0.0,0.0,0.0,0.0,0.0,0.0,0.0,0.0,0.0,0.0,0.0,0.0,0.0,0.0,0.0,0.0,0.0,0.0,0.0,0.0,0.0,0.0,0.0,0.0,0.0,0.0,0.0,0.0,0.0,-1.2109,-1.1803,-1.1518,-1.1606,-1.1619,-1.1619,-1.1619,-1.1748,-1.1823,-1.2088,0.0,0.0,0.0,0.0,0.0,0.0,0.0,0.0,0.0,0.0,0.0,0.0,0.0,0.0,0.0,0.0,0.0,0.0,0.0,0.0,0.0,0.0,0.0,0.0,0.0,0.0,0.0,0.0,0.0,0.0,0.0,0.0,0.0,0.0,0.0,0.0,0.0,0.0,0.0,0.0,0.0,0.0,0.0,0.0,0.0,0.0,0.0,0.0,0.0,0.0,0.0,0.0,0.0,0.0,0.0,0.0,0.0,0.0,0.0,0.0,0.0,0.0,0.0,0.0,0.0,0.0,0.0,0.0,0.0,0.0,0.0,0.0,0.0,0.0,0.0,0.0,0.0,0.0,0.0,0.0,0.0,0.0,0.0,0.0,0.0,0.0,0.0,0.0,0.0,0.0,0.0,0.0,0.0,0.0,0.0,0.0,0.0,0.0,0.0,0.0,0.0,0.0,-1.2379,-1.1852,-1.1619,-1.1619,-1.1619,-1.1619,-1.1619,-1.1735,-1.1877,-1.2033,0.0,0.0,0.0,0.0,0.0,0.0,0.0,0.0,0.0,0.0,0.0,0.0,0.0,0.0,0.0,0.0,0.0,0.0,0.0,0.0,0.0,0.0,0.0,0.0,0.0,0.0,0.0,0.0,0.0,0.0,0.0,0.0,0.0,0.0,0.0,0.0,0.0,0.0,0.0,0.0,0.0,0.0,0.0,0.0,0.0,0.0,0.0,0.0,0.0,0.0,0.0,0.0,0.0,0.0,0.0,0.0,0.0,0.0,0.0,0.0,-0.9137,0.0,0.0,0.0,0.0,0.0,0.0,0.0,0.0,0.0,0.0,0.0,0.0,0.0,0.0,0.0,0.0,0.0,0.0,0.0,0.0,0.0,0.0,0.0,0.0,0.0,0.0,0.0,0.0,0.0,0.0,0.0,0.0,0.0,0.0,0.0,0.0,0.0,0.0,0.0,0.0,0.0,-1.1969,-1.1708,-1.1619,-1.1619,-1.1619,-1.1619,-1.1619,-1.1647,-1.1728,-1.187,0.0,0.0,0.0,0.0,0.0,0.0,0.0,0.0,0.0,0.0,0.0,0.0,0.0,0.0,0.0,0.0,0.0,0.0,0.0,0.0,0.0,0.0,0.0,0.0,0.0,0.0,0.0,0.0,0.0,0.0,0.0,0.0,0.0,0.0,0.0,0.0,0.0,0.0,0.0,0.0,0.0,0.0,0.0,0.0,0.0,0.0,0.0,0.0,0.0,0.0,0.0,0.0,0.0,0.0,0.0,0.0,0.0,0.0,0.0,0.0,0.0,-0.9951,0.0,0.0,0.0,0.0,0.0,0.0,0.0,0.0,0.0,0.0,0.0,0.0,0.0,0.0,0.0,0.0,0.0,0.0,0.0,0.0,0.0,0.0,0.0,0.0,0.0,0.0,0.0,0.0,0.0,0.0,0.0,0.0,0.0,0.0,0.0,0.0,0.0,0.0,0.0,0.0,-1.1932,-1.1809,-1.1721,-1.1721,-1.1789,-1.183,-1.183,-1.1762,-1.1816,-1.204,-1.243,0.0,0.0,0.0,0.0,0.0,0.0,0.0,0.0,0.0,0.0,0.0,0.0,0.0,0.0,0.0,0.0,0.0,0.0,0.0,0.0,0.0,0.0,0.0,0.0,0.0,0.0,0.0,0.0,0.0,0.0,0.0,0.0,0.0,0.0,0.0,0.0,0.0,0.0,0.0,0.0,0.0,0.0,0.0,0.0,0.0,0.0,0.0,0.0,0.0,0.0,0.0,0.0,0.0,0.0,0.0,-1.0799,-1.0799,-1.0731,-1.0609,-1.0609,-1.048,-1.029,0.0,0.0,0.0,0.0,0.0,0.0,0.0,0.0,0.0,0.0,0.0,0.0,0.0,0.0,0.0,0.0,0.0,0.0,0.0,0.0,0.0,0.0,0.0,0.0,0.0,-1.12,-1.1193,0.0,0.0,0.0,0.0,0.0,0.0,0.0,0.0,0.0,0.0,0.0,0.0,-1.2047,-1.1925,-1.1843,-1.187,-1.1986,-1.206,-1.206,-1.1945,-1.1993,-1.2271,-1.247,-1.2771,0.0,0.0,0.0,0.0,0.0,0.0,0.0,0.0,0.0,0.0,0.0,0.0,0.0,0.0,0.0,0.0,0.0,0.0,0.0,0.0,0.0,0.0,0.0,0.0,0.0,0.0,0.0,0.0,0.0,0.0,0.0,0.0,0.0,-0.998,0.0,0.0,0.0,0.0,0.0,0.0,0.0,0.0,0.0,0.0,0.0,0.0,0.0,0.0,-1.0466,-1.0744,-1.09,-1.0921,-1.1043,-1.1104,-1.1104,-1.1104,-1.109,-1.1077,-1.1077,0.0,-1.0283,-1.0297,0.0,0.0,0.0,0.0,0.0,0.0,0.0,0.0,0.0,0.0,0.0,0.0,0.0,0.0,0.0,0.0,0.0,0.0,0.0,0.0,0.0,0.0,-1.1531,-1.1531,-1.1531,-1.1497,0.0,-1.1386,-1.1296,-1.1276,0.0,0.0,0.0,0.0,0.0,0.0,0.0,0.0,-1.206,-1.1925,-1.1884,-1.202,-1.2047,-1.206,-1.206,-1.204,-1.2108,-1.2277,-1.2271,-1.263,-1.3084,-1.2956,0.0,0.0,0.0,0.0,0.0,0.0,0.0,0.0,0.0,0.0,0.0,0.0,0.0,0.0,0.0,0.0,0.0,0.0,0.0,0.0,0.0,0.0,0.0,0.0,0.0,0.0,0.0,0.0,0.0,-0.9868,-0.9905,-0.9838,-0.9997,-1.0126,0.0,0.0,0.0,0.0,0.0,0.0,0.0,0.0,0.0,-1.0527,-1.067,-1.0785,-1.0867,-1.1002,-1.107,-1.107,-1.1131,-1.1165,-1.1165,-1.1165,-1.1165,-1.1165,-1.1165,-1.1016,-1.0785,-1.0867,-1.0941,-1.1002,0.0,0.0,0.0,0.0,0.0,-1.1328,-1.1328,0.0,0.0,0.0,0.0,0.0,0.0,0.0,0.0,0.0,0.0,0.0,0.0,0.0,0.0,-1.1491,-1.1491,-1.1497,-1.1518,-1.1463,-1.1396,0.0,-1.1416,-1.1619,-1.1938,0.0,0.0,0.0,0.0,0.0,-1.2182,-1.2128,-1.2115,-1.2182,-1.2264,-1.2311,-1.2311,-1.2237,-1.225,-1.24,-1.2406,-1.2594,-1.2811,-1.2986,-1.307,0.0,0.0,0.0,0.0,0.0,0.0,0.0,0.0,0.0,0.0,0.0,0.0,0.0,0.0,0.0,0.0,0.0,0.0,0.0,0.0,0.0,0.0,0.0,0.0,0.0,0.0,0.0,0.0,-0.9938,0.0,-0.9877,-0.9884,-0.9909,0.0,0.0,0.0,0.0,0.0,0.0,-1.0392,-1.0561,-1.0717,-1.0833,-1.0941,-1.1056,-1.1158,-1.1199,-1.1219,-1.1219,-1.126,-1.128,-1.128,-1.128,-1.128,-1.128,-1.128,-1.128,-1.128,-1.1314,-1.1355,-1.1402,-1.1518,-1.1586,-1.1613,-1.1572,-1.1558,-1.1558,-1.1558,-1.1558,-1.1545,-1.143,0.0,-1.1389,-1.1389,0.0,0.0,0.0,0.0,-1.1592,-1.1477,0.0,-1.145,-1.145,-1.145,-1.1491,-1.164,-1.1674,-1.1626,0.0,-1.1545,-1.1748,-1.2162,0.0,0.0,0.0,0.0,-1.2162,-1.2277,-1.2325,-1.2359,-1.24,-1.2528,-1.2623,-1.2623,-1.2522,-1.2522,-1.2664,-1.2603,-1.2596,-1.2671,-1.3026,-1.3099,0.0,0.0,0.0,0.0,0.0,0.0,0.0,0.0,0.0,0.0,0.0,0.0,0.0,0.0,0.0,0.0,0.0,0.0,0.0,0.0,0.0,0.0,0.0,0.0,0.0,0.0,0.0,0.0,0.0,0.0,-0.9978,-1.0019,0.0,0.0,0.0,0.0,-0.8347,-0.9745,-1.0697,-1.0697,-1.0968,-1.1131,-1.1138,-1.1151,-1.1158,-1.1165,-1.1307,-1.1382,-1.1382,-1.1525,-1.1599,-1.1599,-1.1599,-1.1599,-1.1599,-1.1599,-1.1599,-1.1572,-1.1294,-1.126,-1.1389,-1.1402,-1.1491,-1.1599,-1.1457,-1.1402,-1.1402,-1.1402,-1.1402,-1.1402,-1.1396,-1.1389,-1.1389,-1.1389,-1.1497,0.0,0.0,-1.1619,-1.1619,-1.1613,-1.1606,-1.1606,-1.1606,-1.1606,-1.1647,-1.1789,-1.1823,-1.1775,0.0,-1.1613,-1.1714,-1.202,0.0,-1.2108,-1.2284,-1.2291,-1.2284,-1.2291,-1.2406,-1.2549,-1.2691,-1.2847,-1.2935,-1.2935,-1.2929,-1.299,-1.3132,-1.2874,-1.2847,-1.3125,-1.2874,-1.2725,-1.2705,-1.3035,0.0,0.0,0.0,0.0,0.0,0.0,0.0,0.0,0.0,0.0,0.0,0.0,0.0,0.0,0.0,0.0,0.0,0.0,0.0,0.0,0.0,0.0,0.0,0.0,0.0,0.0,0.0,0.0,-0.889,-0.9557,0.0,0.0,-0.9751,-1.034,-0.9896,-1.0617,-1.1002,-1.1002,-1.1104,-1.1206,-1.1307,-1.1307,-1.1355,-1.1457,-1.1511,-1.1538,-1.1538,-1.1592,-1.1619,-1.1619,-1.1619,-1.1619,-1.1619,-1.1619,-1.1619,-1.1613,-1.1504,-1.1491,-1.1538,-1.1538,-1.1572,-1.1613,-1.1558,-1.1538,-1.1538,-1.1538,-1.1538,-1.1538,-1.1538,-1.1538,-1.1538,-1.1538,-1.1572,-1.1619,-1.1619,-1.1687,-1.1755,-1.1755,-1.183,-1.1904,-1.1904,-1.1904,-1.1918,-1.1965,-1.1979,-1.1965,-1.1911,-1.1904,-1.1999,-1.2291,-1.2189,-1.2176,-1.2522,-1.2488,-1.2461,-1.2562,-1.2705,-1.282,-1.2874,-1.2929,-1.2963,-1.2963,-1.2963,-1.2983,-1.303,-1.3119,-1.3125,-1.3037,-1.3024,-1.2969,-1.2881,-1.2883,-1.2828,0.0,0.0,0.0,0.0,0.0,0.0,0.0,0.0,0.0,0.0,0.0,0.0,0.0,0.0,0.0,0.0,0.0,0.0,0.0,0.0,0.0,0.0,0.0,0.0,0.0,0.0,-0.8318,-0.7662,-0.8863,-0.9193,-0.8035,-0.9734,-1.0637,-1.0327,-1.0882,-1.124,-1.124,-1.1287,-1.1362,-1.1463,-1.147,-1.1518,-1.1619,-1.1619,-1.1619,-1.1619,-1.1619,-1.1647,-1.1687,-1.1687,-1.1721,-1.1769,-1.1769,-1.1769,-1.1769,-1.1179,-1.0888,-1.1021,-1.1365,-1.1619,-1.1619,-1.1619,-1.1619,-1.1626,-1.1674,-1.1687,-1.1701,-1.1755,-1.1769,-1.1769,-1.1769,-1.1769,-1.1769,-1.1769,-1.1837,-1.1911,-1.1911,-1.1986,-1.206,-1.206,-1.206,-1.2088,-1.2189,-1.221,-1.2244,-1.2345,-1.2203,-1.2155,-1.2447,-1.2338,-1.2379,-1.2881,-1.2786,-1.2732,-1.2929,-1.3003,-1.303,-1.303,-1.3078,-1.3112,-1.3112,-1.3247,-1.3275,-1.3119,-1.339,-1.3417,-1.3119,-1.3247,-1.3281,-1.3186,-1.3037,-1.2929,-1.2881,0.0,0.0,0.0,0.0,0.0,0.0,0.0,0.0,0.0,0.0,0.0,0.0,0.0,0.0,0.0,0.0,0.0,0.0,0.0,0.0,0.0,0.0,0.0,-0.6298,-0.6117,-0.611,-0.6415,-0.7646,-0.8137,-0.697,-0.9492,-1.0474,-0.9082,-1.0467,-1.1396,-1.1396,-1.1538,-1.1619,-1.1619,-1.1619,-1.1619,-1.1626,-1.1626,-1.1626,-1.1489,-1.1489,-1.1556,-1.169,-1.169,-1.177,-1.1911,-1.1911,-1.1911,-1.1762,-1.0254,-0.9505,-0.9633,-1.1008,-1.1489,-1.1489,-1.1489,-1.1633,-1.1653,-1.1789,-1.1837,-1.1864,-1.2013,-1.206,-1.206,-1.206,-1.206,-1.206,-1.206,-1.2067,-1.2074,-1.2074,-1.2081,-1.2088,-1.2088,-1.2088,-1.2169,-1.2454,-1.2515,-1.2603,-1.2901,-1.2488,-1.2182,-1.2467,-1.2515,-1.2712,-1.3302,-1.3146,0.0,-1.3356,-1.3275,-1.3193,-1.32,-1.3336,-1.3431,-1.3431,-1.3831,-1.3885,-1.3444,-1.3688,-1.3715,-1.3417,-1.3553,-1.3627,-1.3614,-1.3471,-1.3186,-1.2745,0.0,0.0,0.0,0.0,0.0,0.0,0.0,0.0,0.0,0.0,0.0,0.0,0.0,0.0,0.0,0.0,0.0,0.0,0.0,0.0,0.0,0.0,-0.6385,-0.6231,-0.6177,-0.6273,-0.6521,-0.6864,-0.6927,-0.6839,-0.8588,-0.9484,-0.9063,-1.0611,-1.1558,-1.1558,-1.1599,-1.1619,-1.1619,-1.1619,-1.1667,-1.1769,-1.1775,-1.1237,-1.015,-1.015,-0.9568,-0.8398,-0.8398,-0.8417,-0.8445,-0.8445,-0.8445,-0.8445,-0.7995,-0.7845,-0.7836,-0.8234,-0.9107,-1.015,-1.015,-1.0897,-1.1945,-1.1986,-1.1999,-1.2006,-1.2047,-1.206,-1.206,-1.206,-1.206,-1.206,-1.206,-1.2142,-1.225,-1.2352,-1.2461,-1.2576,-1.2684,-1.2712,-1.2739,-1.282,-1.2834,-1.2861,-1.2942,-1.2827,-1.2739,-1.282,-1.2834,-1.2888,-1.3057,-1.3098,0.0,-1.3227,-1.339,-1.3587,-1.3804,-1.396,-1.4055,-1.4055,-1.4163,-1.4089,0.0,-1.3899,-1.3878,-1.358,-1.3607,-1.3526,-1.3302,-1.3363,-1.3281,0.0,0.0,0.0,0.0,0.0,0.0,0.0,0.0,0.0,0.0,0.0,0.0,0.0,0.0,0.0,0.0,0.0,0.0,0.0,0.0,0.0,0.0,-0.6916,-0.5362,-0.4588,-0.568,-0.6529,-0.6756,-0.7261,-0.7603,-0.7743,-0.9258,-1.0191,-1.0191,-1.0992,-1.1619,-1.1619,-1.1619,-1.1647,-1.1708,-1.1708,-1.1775,-1.1925,-1.1186,-1.0476,-0.9655,-0.89,-0.8017,-0.7145,-0.7145,-0.7165,0.0,-0.7201,-0.7201,-0.7201,-0.6437,-0.6302,0.0,0.0,0.0,0.0,0.0,-1.0703,-1.2074,-1.2135,-1.2155,-1.2169,-1.223,-1.2291,-1.2338,-1.2338,-1.2386,-1.244,-1.244,-1.2501,-1.2589,-1.2671,-1.2759,-1.2847,-1.2942,-1.2963,-1.2976,-1.3037,-1.3051,-1.3071,-1.3132,0.0,0.0,-1.3241,-1.3132,-1.3139,-1.339,-1.339,-1.341,0.0,-1.3593,-1.3668,-1.3777,-1.3871,-1.3926,-1.3926,-1.4095,0.0,0.0,0.0,-1.3994,-1.3824,-1.3817,0.0,0.0,0.0,0.0,0.0,0.0,0.0,0.0,-1.3332,-1.3486,0.0,0.0,0.0,0.0,0.0,0.0,0.0,0.0,0.0,0.0,0.0,0.0,0.0,0.0,0.0,0.0,-0.5451,-0.4008,-0.3085,-0.5269,-0.6906,-0.6852,-0.8067,-0.8986,-0.9128,-1.0525,-1.1325,-1.1038,-1.1181,-1.1188,0.0,0.0,0.0,0.0,0.0,-1.1482,-1.1782,-1.0127,-0.9226,-0.9091,-0.7574,-0.6857,-0.678,-0.6788,-0.6833,-0.6904,-0.6915,-0.6919,-0.6762,-0.535,-0.4749,-0.4939,-0.6319,-0.6846,-0.7149,-0.897,-1.0643,0.0,0.0,0.0,0.0,-1.2515,-1.2644,-1.2759,-1.2759,-1.2854,-1.2963,-1.2963,-1.2963,-1.2963,-1.2983,-1.2983,-1.299,-1.301,-1.301,-1.3051,-1.3193,-1.322,-1.3268,-1.3417,-1.3559,-1.3654,-1.3654,-1.3431,-1.3431,-1.3966,-1.381,-1.3722,-1.3987,-1.379,-1.3593,-1.3485,0.0,0.0,-1.3505,-1.3885,-1.3926,-1.3478,-1.381,-1.4027,-1.4048,-1.4014,-1.3939,-1.3817,-1.3817,-1.3553,-1.301,-1.3288,-1.3342,-1.3173,-1.3193,-1.3139,0.0,0.0,0.0,0.0,0.0,0.0,0.0,0.0,0.0,0.0,0.0,0.0,0.0,0.0,0.0,-0.857,-0.6391,-0.5175,-0.7504,-0.8208,-0.8203,-0.7098,-0.7178,-0.7954,-0.9109,-0.9568,-0.9291,-0.7982,-0.8997,-0.9189,-0.7957,-0.7961,0.0,-0.9916,-0.8716,-0.8765,-1.0247,-0.8574,-0.708,-0.591,0.0,0.0,-0.3443,-0.3477,-0.3497,-0.3507,-0.3537,-0.3551,-0.3551,-0.3229,-0.3072,-0.3237,-0.4818,-0.5445,-0.5922,-0.8945,-1.0379,-1.0861,-1.2337,-1.2834,-1.2834,-1.2861,-1.2895,-1.2915,-1.2915,-1.2935,0.0,-1.2963,-1.2963,-1.299,-1.3105,-1.3132,-1.3166,-1.3288,-1.3315,-1.3356,-1.3505,-1.3539,-1.3587,-1.3729,-1.3777,-1.3797,-1.3797,-1.3749,-1.3749,-1.3865,-1.3736,-1.3648,-1.3709,-1.3661,-1.3709,-1.3919,-1.4055,-1.4122,-1.4122,-1.4312,-1.4238,-1.3783,-1.3729,-1.3763,-1.3878,-1.3654,-1.3573,-1.3668,-1.3668,-1.3553,-1.3315,-1.3498,-1.3444,-1.3173,-1.3302,-1.341,0.0,0.0,0.0,0.0,0.0,0.0,0.0,0.0,0.0,0.0,0.0,-1.0472,0.0,0.0,-0.8114,-0.8028,-0.6629,-0.5813,-0.6749,-0.7621,-0.8336,-0.9204,-0.8534,-0.8709,-1.0305,-0.9723,-0.9313,-0.9372,-0.9378,-0.8993,-0.8359,-0.7472,-0.7514,-0.837,-0.7612,-0.7659,-0.8678,-0.698,-0.5777,-0.506,-0.4273,-0.3337,-0.2559,-0.2574,-0.2581,-0.2582,-0.2596,-0.2601,-0.2602,-0.2617,-0.2624,-0.2626,-0.3628,-0.4431,-0.5356,-0.7132,-0.8742,-1.0356,-1.1332,-1.2308,-1.2963,-1.2963,-1.301,-1.3064,-1.3064,-1.3119,-1.318,-1.318,-1.318,-1.32,-1.3268,-1.3342,-1.3417,-1.3498,-1.3566,-1.3641,-1.3722,-1.3736,-1.3756,-1.3824,-1.3905,-1.3933,-1.3858,-1.3905,-1.3933,-1.3851,-1.3783,-1.3709,-1.3641,-1.3688,-1.3763,-1.3844,-1.398,-1.4068,-1.4068,-1.4204,-1.4231,-1.4082,-1.4068,-1.4068,-1.4068,-1.3933,-1.3817,-1.3736,-1.3668,-1.3553,-1.3403,-1.3478,-1.3478,-1.3403,-1.3478,-1.3553,0.0,0.0,0.0,0.0,0.0,0.0,0.0,0.0,-1.0884,-1.0932,-1.0905,-1.0955,-1.1389,-1.0644,-0.94,-0.7123,-0.6286,-0.5603,-0.4796,-0.5815,-0.7548,-1.0311,-0.9873,-0.9723,-1.0599,-0.9896,-0.9658,-1.0346,-0.9492,-0.8666,-0.8173,-0.6966,-0.6398,-0.6788,-0.6494,-0.6534,-0.7068,-0.5358,-0.4599,-0.4643,-0.3207,-0.2579,-0.2602,-0.2608,-0.2611,-0.2611,-0.2616,-0.2619,-0.2622,-0.2646,-0.2656,-0.2658,-0.2683,-0.3492,-0.4742,-0.5066,-0.7015,-0.945,-1.0103,-1.1409,-1.2559,-1.2883,-1.3125,-1.3214,-1.3214,-1.3322,-1.3444,-1.3444,-1.3464,-1.3485,-1.3485,-1.358,-1.3668,-1.3668,-1.3736,-1.3817,-1.3871,-1.3865,-1.3851,-1.3878,-1.3987,-1.4034,-1.3905,-1.3987,-1.4021,-1.3865,-1.3838,-1.3797,-1.3688,-1.377,-1.3797,-1.3682,-1.377,-1.3851,-1.3885,-1.3973,-1.4102,-1.4285,-1.4353,-1.4346,-1.4258,-1.4258,-1.4156,-1.3933,-1.3844,-1.3743,-1.3614,-1.3648,-1.3709,-1.3804,-1.3831,-1.3797,0.0,0.0,0.0,-1.0349,-1.0749,-1.0926,0.0,0.0,-1.0939,-1.0974,-0.9968,-0.9472,-1.0973,-0.8038,-0.5703,-0.6697,-0.461,-0.3199,-0.4511,-0.4802,-0.5525,-0.7259,-0.8564,-0.8853,-0.7693,-0.8654,-0.8426,-0.5632,-0.6735,-0.6211,-0.3383,-0.3077,-0.3711,-0.5159,-0.3798,-0.3821,-0.541,-0.3703,-0.2917,-0.292,-0.2759,-0.2598,-0.2602,-0.263,-0.2642,-0.2643,-0.2671,-0.2683,-0.2683,-0.2686,-0.2687,-0.2687,-0.2691,-0.2856,-0.3184,-0.4853,-0.5683,-0.635,-0.9516,-1.0848,-1.1186,-1.2853,-1.3363,-1.3376,-1.3376,-1.3485,-1.36,-1.36,-1.3695,-1.379,-1.379,-1.3804,-1.3817,-1.3817,-1.3736,-1.3722,-1.3987,-1.3939,-1.3878,-1.4021,-1.4061,-1.4068,-1.4048,-1.4061,-1.4021,-1.3865,-1.3838,-1.3838,-1.3817,-1.3831,-1.3838,-1.3817,-1.3831,-1.3899,-1.4034,-1.3933,-1.3994,-1.4285,-1.4055,-1.3966,-1.4095,-1.4095,-1.4143,-1.4245,-1.4353,-1.4401,-1.4387,-1.4523,-1.4529,-1.4414,-1.455,-1.4401,-1.0351,0.0,0.0,0.0,-1.0663,-1.0718,-1.0704,-1.0891,-1.0953,-1.1029,-1.0724,-1.024,-1.001,-0.8566,-0.6917,0.0,-0.4496,-0.393,-0.4657,-0.4657,-0.4962,-0.5583,-0.6173,-0.6759,-0.7047,-0.6837,-0.6612,-0.6208,-0.5935,-0.5217,-0.4044,-0.2961,-0.2822,-0.3646,-0.303,-0.2888,-0.3709,-0.2918,-0.2611,-0.2628,-0.2628,-0.2637,-0.2656,-0.2668,-0.2673,-0.2675,-0.2706,-0.2718,-0.272,-0.2737,-0.2755,-0.2772,-0.2772,-0.2782,-0.2963,-0.3566,-0.4553,-0.5597,-0.7166,-0.8407,-0.9311,-1.0174,-1.0386,-1.0605,-1.1744,-1.2158,-1.2439,-1.3667,-1.4061,-1.4109,-1.4109,-1.417,-1.4231,-1.4231,-1.4183,-1.4177,-1.4299,-1.4211,-1.415,-1.4299,-1.4326,-1.4299,-1.4217,-1.4204,-1.4122,-1.3878,-1.3919,-1.3939,-1.3851,-1.3919,-1.4007,-1.4095,-1.4109,-1.417,-1.4312,-1.4265,-1.436,-1.4672,-1.4482,-1.4434,-1.459,-1.4421,-1.4319,-1.4299,-1.436,-1.4346,-1.4258,-1.4407,-1.4496,-1.4516,-1.4577,-1.4557,-1.0521,0.0,0.0,-1.0582,-1.0616,-1.069,-1.0948,-1.1009,-1.105,-1.1199,-1.1028,-1.0401,-0.9297,-0.8509,0.0,-0.5093,-0.4366,-0.4078,-0.4078,-0.409,-0.4114,-0.4004,-0.4034,-0.4496,-0.569,-0.5135,-0.5185,-0.5842,-0.5245,-0.4665,-0.4409,-0.3156,-0.2541,-0.257,-0.2579,-0.2593,-0.2613,-0.2623,-0.2638,-0.266,-0.266,-0.2671,-0.2692,-0.2701,-0.271,-0.272,-0.275,-0.2767,-0.2777,-0.2799,-0.2821,-0.2841,-0.2841,-0.2855,-0.2863,-0.2776,-0.3614,-0.4853,-0.5237,-0.6329,-0.7604,-0.7956,-0.8175,-0.8393,-0.9921,-1.0505,-1.0952,-1.2924,-1.3458,-1.3642,-1.4182,-1.4407,-1.4455,-1.4455,-1.4455,-1.4462,-1.4502,-1.4428,-1.4387,-1.4489,-1.4509,-1.4475,-1.4373,-1.436,-1.4299,-1.4116,-1.4183,-1.417,-1.3933,-1.4041,-1.4177,-1.4285,-1.4333,-1.4401,-1.4502,-1.455,-1.4672,-1.4896,-1.4801,-1.4787,-1.4903,-1.4733,-1.459,-1.4489,-1.4523,-1.4489,-1.438,-1.4489,-1.4597,-1.4699,-1.4699,-1.4753,0.0,0.0,-1.0744,-1.0894,-1.0934,-1.0975,-1.1124,-1.1158,-1.1199,-1.1355,-1.0248,-0.9144,-0.9264,-0.6829,-0.4802,-0.4657,-0.335,-0.2333,-0.2333,-0.2358,-0.2525,-0.2526,-0.2583,-0.262,0.0,-0.4002,-0.4309,-0.2777,-0.4048,-0.4254,-0.2716,-0.2559,-0.2571,-0.26,-0.2628,-0.2645,-0.2646,-0.2675,-0.269,-0.2691,-0.2691,-0.2691,-0.2694,-0.2722,-0.2752,-0.2782,-0.2812,-0.2842,-0.287,-0.2871,-0.2872,-0.2872,-0.2872,-0.2874,-0.2874,-0.287,-0.287,-0.3228,-0.4834,-0.5549,-0.5909,-0.7688,-0.8226,-0.8226,-0.8222,-0.8465,-0.8894,-1.1061,-1.1601,-1.1967,-1.3957,-1.4407,-1.4306,-1.4306,-1.4306,-1.4346,-1.4482,-1.4509,-1.4509,-1.4509,-1.4509,-1.4509,-1.4509,-1.4502,-1.455,-1.4692,-1.4719,-1.4563,-1.4122,-1.4197,-1.4292,-1.4299,-1.4421,-1.4509,-1.4509,-1.4645,-1.4733,-1.4746,-1.474,-1.474,-1.4746,-1.4882,-1.4957,-1.495,-1.5086,-1.5153,-1.5147,-1.5153,-1.516,-1.516,-1.516,-1.5167,0.0,0.0,-1.0907,-1.1056,-1.109,-1.1131,-1.128,-1.1396,-1.1484,-1.1531,-1.1181,-1.0498,-0.9441,-0.7548,-0.596,-0.4802,-0.335,-0.2333,-0.2333,-0.2358,-0.2386,-0.2406,-0.2444,0.0,0.0,0.0,0.0,-0.2499,-0.3,-0.3185,-0.2559,-0.2578,-0.2601,-0.2631,-0.2642,-0.2667,-0.2706,-0.2717,-0.2732,-0.2752,-0.2773,-0.2793,-0.2814,-0.2823,-0.2834,-0.2845,-0.2874,-0.2893,-0.2904,-0.2924,-0.2943,-0.296,-0.2939,-0.2945,-0.296,-0.2939,-0.2932,-0.3116,-0.3662,-0.3845,-0.4028,-0.4574,-0.4757,-0.493,-0.6344,-0.674,-0.716,-0.9351,-1.0816,-1.1914,-1.2648,-1.3782,-1.4746,-1.4746,-1.4746,-1.476,-1.4808,-1.4733,-1.4692,-1.4794,-1.4814,-1.4441,-1.296,-1.2776,-1.2759,-1.2718,-1.3821,-1.4685,-1.4536,-1.4563,-1.459,-1.459,-1.4631,-1.4665,-1.4665,-1.4713,-1.4787,-1.4889,-1.4794,-1.4828,-1.5025,-1.4896,-1.4869,-1.497,-1.5018,-1.5038,-1.5045,-1.514,-1.5181,-1.5181,-1.5181,-1.5181,0.0,-1.1056,-1.1063,-1.1206,-1.1246,-1.1301,-1.1504,-1.1626,-1.1708,-1.1769,-1.1364,-1.0627,-0.9512,-0.7575,-0.6105,-0.5525,-0.3639,-0.2483,-0.3079,-0.2672,-0.2406,-0.2436,-0.2466,0.0,0.0,0.0,0.0,-0.253,-0.2548,-0.2568,-0.259,-0.2608,-0.2631,-0.2662,-0.2662,-0.2687,-0.2737,-0.2748,-0.2774,-0.2816,-0.2836,-0.2855,-0.2874,-0.2885,-0.2896,-0.2906,-0.2924,-0.2938,-0.2949,-0.2958,-0.2973,-0.2988,-0.2969,-0.2973,-0.2988,-0.2969,-0.2961,-0.2961,-0.2961,-0.2961,-0.2961,-0.2961,-0.2961,-0.3326,-0.4585,-0.4963,-0.5362,-0.7415,-0.8877,-0.9963,-1.0553,-1.17,-1.2835,-1.2835,-1.3246,-1.3845,-1.3845,-1.4369,-1.4738,-1.4088,-1.3914,-1.3355,-1.1288,-1.0909,-1.1076,-1.1742,-1.3031,-1.3929,-1.4571,-1.474,-1.474,-1.474,-1.4835,-1.4896,-1.4896,-1.4997,-1.5106,-1.5201,-1.5113,-1.5147,-1.5337,-1.5113,-1.5025,-1.5126,-1.5072,-1.5045,-1.5045,-1.514,-1.5181,-1.5181,-1.5181,-1.5181,-1.1016,-1.107,-1.1199,-1.1362,-1.1402,-1.1477,-1.1769,-1.1843,-1.1891,-1.202,-1.0749,-0.9628,0.0,0.0,-0.5238,-0.6829,-0.4369,-0.2784,-0.4297,-0.3306,-0.2436,0.0,0.0,0.0,0.0,0.0,0.0,-0.2564,0.0,-0.2589,-0.2645,-0.2649,-0.2662,-0.2691,-0.2694,-0.271,-0.2742,-0.2776,-0.2822,-0.2881,-0.2881,-0.2882,-0.2885,-0.2909,-0.2936,-0.2964,-0.2962,-0.2977,-0.3002,-0.2973,-0.2961,-0.2961,-0.296,-0.2958,-0.2958,-0.2957,-0.2958,-0.2958,-0.2958,-0.2958,-0.296,-0.2961,-0.296,-0.296,-0.2961,-0.2961,-0.3337,-0.5234,-0.5768,-0.6291,-0.8211,-0.8732,-0.8672,-0.8672,-1.0222,-1.1796,-1.1796,-1.3385,-1.4234,-1.2334,-1.1956,-1.1202,-0.9311,-0.8932,-0.969,-1.1574,-1.1962,-1.2636,-1.4441,-1.4774,-1.4774,-1.4787,-1.5038,-1.5208,-1.5208,-1.5472,-1.5642,-1.5642,-1.5642,-1.5642,-1.5642,-1.5499,-1.5425,-1.5425,-1.5282,-1.5201,-1.5194,-1.5194,-1.5187,-1.5181,-1.5181,-1.5181,-1.1369,-1.1307,-1.1226,-1.1497,-1.1558,-1.1606,-1.1789,-1.2006,-1.2121,-1.1932,-1.1649,-1.1373,0.0,0.0,0.0,-0.706,-0.4427,0.0,-0.297,-0.2727,0.0,0.0,0.0,-0.2523,-0.2547,-0.2555,0.0,0.0,-0.2624,-0.2631,-0.2646,-0.2669,-0.2684,-0.2692,-0.2714,-0.2751,-0.2804,-0.2879,-0.2935,-0.2973,-0.2973,-0.2984,-0.3006,-0.2991,-0.2988,-0.2994,-0.2971,-0.2966,-0.2972,-0.2965,-0.2961,-0.296,-0.2936,-0.2927,-0.2926,-0.2904,-0.2909,-0.2927,-0.2927,-0.2927,-0.2931,-0.2954,-0.2946,-0.2931,-0.2954,-0.2961,-0.3147,-0.3711,-0.4814,-0.5913,-0.6481,-0.7806,-0.8764,-0.8764,-0.9394,-0.9843,-0.9843,-1.0239,-1.0446,-1.0068,-0.8743,-0.7416,-0.704,-0.685,-0.7037,-0.7606,-0.8984,-1.1302,-1.4676,-1.5242,-1.5282,-1.5398,-1.5479,-1.552,-1.552,-1.5594,-1.5642,-1.5642,-1.5642,-1.5642,-1.5642,-1.5601,-1.5581,-1.5581,-1.554,-1.5466,-1.535,-1.535,-1.5296,-1.5181,-1.5181,-1.5181,-1.1389,-1.1389,-1.1389,-1.1491,-1.1613,-1.1735,-1.1816,-1.202,-1.2142,-1.1965,-1.1945,0.0,0.0,0.0,0.0,0.0,0.0,0.0,-0.3293,-0.2894,-0.2474,0.0,-0.2515,0.0,-0.2557,-0.2583,-0.2612,0.0,0.0,-0.2653,-0.2667,-0.2683,-0.2699,-0.2712,-0.2742,-0.2799,-0.2886,-0.295,-0.2996,-0.3026,-0.3013,-0.3016,-0.3031,-0.3001,-0.2987,-0.2986,0.0,-0.2942,-0.2941,-0.2928,-0.2923,-0.2923,-0.2917,-0.2916,-0.2916,-0.2913,-0.2923,-0.2936,-0.2936,-0.2936,-0.2939,-0.2956,-0.295,-0.2939,-0.2956,-0.2961,-0.2964,-0.2977,-0.3725,-0.4657,-0.4676,-0.5451,-0.6415,-0.6415,-0.7008,-0.7795,-0.7795,-0.8554,-0.8743,-0.7985,-0.609,-0.4761,-0.4761,-0.4781,-0.5176,-0.594,-0.714,-0.9132,-1.2283,-1.3602,-1.4379,-1.5435,-1.5696,-1.5737,-1.5737,-1.5798,-1.5832,-1.5832,-1.5832,-1.5832,-1.5832,-1.5771,-1.5737,-1.5737,-1.5669,-1.5594,-1.5513,-1.5513,-1.5466,-1.5377,-1.5316,-1.5282,-1.1008,-1.1261,-1.1558,-1.145,-1.1626,-1.183,-1.183,-1.1965,-1.2081,-1.204,0.0,0.0,0.0,0.0,-0.7456,-0.9034,0.0,-0.2846,-0.423,-0.3372,-0.2485,-0.2511,-0.2541,-0.2562,-0.2564,-0.2615,-0.2649,-0.2653,-0.2653,-0.2664,-0.2691,-0.2697,-0.2714,-0.2748,-0.2782,-0.2852,-0.296,-0.2991,-0.302,-0.3046,-0.3016,-0.3001,-0.2999,-0.2969,-0.2956,-0.2954,0.0,0.0,-0.2909,-0.2887,-0.2879,-0.2882,-0.2911,-0.2921,-0.2926,-0.2951,-0.2964,-0.2968,-0.2968,-0.2971,-0.2973,-0.2969,-0.2968,-0.2968,-0.2972,-0.2973,-0.2979,-0.3005,-0.3013,-0.3018,-0.3046,-0.3052,-0.3052,-0.3052,-0.4383,-0.5713,-0.5713,-0.704,-0.7795,-0.609,-0.4387,-0.3058,-0.3058,-0.3084,-0.3683,-0.542,-0.5856,-0.6496,-0.8723,-1.1025,-1.3126,-1.5107,-1.5609,-1.5886,-1.5886,-1.6008,-1.6083,-1.6083,-1.6083,-1.6083,-1.6083,-1.5954,-1.5886,-1.5886,-1.5764,-1.5689,-1.5669,-1.5669,-1.5655,-1.5635,-1.5499,-1.5438,-0.9644,-1.0476,-1.1457,-1.1552,-1.1708,-1.183,-1.183,-1.2047,0.0,0.0,0.0,-1.1877,-1.2033,0.0,0.0,-0.7655,0.0,0.0,0.0,0.0,0.0,0.0,0.0,0.0,0.0,0.0,0.0,0.0,0.0,0.0,-0.2692,-0.2716,-0.2755,-0.2811,-0.2864,-0.2915,-0.2961,-0.2991,-0.301,-0.3014,-0.2984,-0.2969,-0.2968,-0.2938,-0.2924,-0.2923,0.0,0.0,-0.2883,-0.2901,-0.2909,-0.2912,-0.2942,-0.2953,-0.2954,-0.296,-0.2977,-0.2999,-0.2999,-0.3016,-0.3032,-0.3007,-0.2999,-0.3003,-0.3029,-0.3036,-0.3037,-0.3043,-0.3044,-0.3046,-0.3051,-0.3052,-0.3052,-0.3052,-0.3432,-0.3623,-0.3623,-0.3813,-0.4004,-0.3623,-0.3263,-0.3089,-0.3089,-0.3115,-0.3134,-0.3526,-0.3752,-0.4569,-0.6553,-1.0299,-1.2694,-1.3387,-1.5023,-1.6042,-1.6042,-1.6069,-1.6083,-1.6083,-1.6083,-1.6083,-1.6083,-1.6056,-1.6042,-1.6042,-1.6015,-1.594,-1.5818,-1.5818,-1.5757,-1.5642,-1.5608,-1.5601,-0.7972,-0.8529,-0.9072,-0.9136,-0.928,-0.9546,-1.0369,0.0,0.0,0.0,0.0,0.0,-1.202,0.0,0.0,0.0,0.0,0.0,0.0,0.0,0.0,0.0,0.0,0.0,0.0,0.0,0.0,0.0,0.0,0.0,-0.2716,-0.2774,-0.2829,-0.2872,-0.2916,-0.2954,-0.2984,-0.2984,-0.2983,-0.2983,-0.2953,-0.2938,-0.2936,-0.2908,-0.2894,-0.2894,-0.2896,0.0,-0.2898,-0.2927,-0.2939,-0.2942,-0.2973,-0.2986,-0.2987,-0.3003,-0.3018,-0.3031,-0.3031,-0.304,-0.305,-0.3035,-0.3031,-0.3033,-0.3048,-0.3052,-0.3052,-0.3052,-0.3052,-0.3052,-0.3052,-0.3052,-0.3052,-0.3052,-0.3052,-0.3052,-0.3052,-0.3065,-0.3076,-0.3076,-0.31,-0.3122,-0.3122,-0.3146,-0.3167,-0.3167,-0.3191,-0.361,-0.4608,-0.7399,-1.0206,-1.2652,-1.3866,-1.4869,-1.6083,-1.6083,-1.6083,-1.6083,-1.6083,-1.6083,-1.6083,-1.6083,-1.6083,-1.6083,-1.6083,-1.6042,-1.5974,-1.5974,-1.5934,-1.5866,-1.5791,-1.575,-0.644,-0.6724,-0.7003,-0.6881,-0.7005,-0.754,-0.8612,-0.9266,0.0,0.0,0.0,0.0,0.0,0.0,0.0,0.0,0.0,0.0,0.0,0.0,0.0,0.0,0.0,0.0,0.0,0.0,0.0,0.0,0.0,0.0,0.0,-0.2834,-0.2887,-0.2915,-0.2946,-0.2969,-0.2987,-0.2964,-0.2951,-0.2951,-0.2921,-0.2906,-0.2906,-0.289,-0.2883,-0.2885,-0.2913,0.0,0.0,-0.2958,-0.2971,-0.2975,-0.3005,-0.3017,-0.302,-0.3043,-0.3052,-0.3052,-0.3052,-0.3052,-0.3052,-0.3052,-0.3052,-0.3052,-0.3052,-0.3052,-0.3052,-0.3052,-0.3052,-0.3052,-0.3052,-0.3052,-0.3052,-0.3052,-0.3056,-0.3062,-0.3062,-0.3085,-0.3107,-0.3107,-0.3131,-0.3153,-0.3153,-0.3178,-0.3197,-0.3197,-0.3216,-0.323,-0.323,-0.4638,-0.7248,-1.1054,-1.1858,-1.3062,-1.5273,-1.5472,-1.5678,-1.6083,-1.6083,-1.6083,-1.6083,-1.6083,-1.6083,-1.6083,-1.6083,-1.6083,-1.6083,-1.6083,-1.6083,-1.6076,-1.5961,-1.59,-0.494,-0.5968,-0.6965,-0.7045,-0.7141,-0.7317,-0.7294,0.0,0.0,0.0,0.0,0.0,0.0,0.0,0.0,0.0,0.0,-0.2656,0.0,0.0,0.0,0.0,0.0,0.0,0.0,0.0,0.0,0.0,0.0,0.0,0.0,-0.287,-0.2887,-0.2915,-0.2946,-0.295,-0.2924,-0.2921,-0.292,-0.292,-0.2891,-0.2878,-0.2879,-0.2901,-0.2912,-0.2913,0.0,0.0,0.0,-0.299,-0.3002,-0.3006,-0.3036,-0.3048,-0.3048,-0.3051,-0.3052,-0.3052,-0.3052,-0.3052,-0.3052,-0.3052,-0.3052,-0.3052,-0.3052,-0.3052,-0.3052,-0.3052,-0.3052,-0.3052,-0.3052,-0.3052,-0.3052,-0.3052,-0.3073,-0.3093,-0.3093,-0.3118,-0.3138,-0.3138,-0.3163,-0.3185,-0.3185,-0.3208,-0.3227,-0.3227,-0.3228,-0.323,-0.323,-0.3431,-0.4438,-0.6648,-0.8854,-1.0858,-1.3062,-1.3262,-1.4065,-1.5884,-1.6083,-1.6083,-1.6083,-1.6083,-1.6083,-1.6083,-1.6083,-1.6083,-1.6083,-1.6083,-1.6083,-1.6083,-1.6069,-1.6062,-0.3345,-0.379,-0.4214,-0.4269,-0.4273,-0.4558,-0.5409,0.0,0.0,0.0,0.0,0.0,-0.82,-0.7173,-0.5979,-0.5122,-0.4376,-0.3613,0.0,0.0,0.0,0.0,0.0,0.0,0.0,0.0,0.0,0.0,0.0,0.0,0.0,-0.29,-0.2913,-0.2942,-0.2938,-0.2928,-0.2916,-0.29,-0.289,-0.289,-0.2879,-0.2883,-0.29,-0.2911,-0.2926,-0.2945,0.0,0.0,0.0,-0.3021,-0.3035,-0.3036,-0.3047,-0.3052,-0.3052,-0.3052,-0.3052,-0.3052,-0.3052,-0.3052,-0.3052,-0.3052,-0.3052,-0.3052,-0.3052,-0.3052,-0.3052,-0.3052,-0.3052,-0.3052,-0.3052,-0.3066,-0.308,-0.308,-0.3103,-0.3125,-0.3125,-0.3149,-0.317,-0.317,-0.3194,-0.3213,-0.3213,-0.3223,-0.323,-0.323,-0.323,-0.323,-0.323,-0.323,-0.3431,-0.4438,-0.6447,-0.8654,-1.0858,-1.1059,-1.1864,-1.4065,-1.4265,-1.4669,-1.6083,-1.6083,-1.6083,-1.6083,-1.6083,-1.6083,-1.6083,-1.6083,-1.6083,-1.6083,-1.6083,-1.6083,-0.2453,-0.2454,-0.2444,-0.2474,-0.2459,-0.2737,0.0,0.0,0.0,0.0,0.0,-0.6411,-0.655,-0.6138,-0.556,-0.4381,-0.4234,-0.3933,-0.2701,0.0,0.0,0.0,0.0,0.0,0.0,0.0,0.0,0.0,0.0,0.0,0.0,-0.2908,-0.2917,-0.2947,-0.2927,-0.2912,-0.2904,-0.2883,-0.2874,-0.2874,-0.2882,-0.2897,-0.2916,-0.2934,-0.2954,-0.2976,0.0,0.0,0.0,-0.3043,-0.3052,-0.3052,-0.3052,-0.3052,-0.3052,-0.3052,-0.3052,-0.3052,-0.3052,-0.3052,-0.3052,-0.3052,-0.3052,-0.3054,-0.3063,-0.3059,-0.3052,-0.3052,-0.3059,-0.3067,-0.3077,-0.3095,-0.3111,-0.3111,-0.3134,-0.3156,-0.3156,-0.3179,-0.3201,-0.3201,-0.3216,-0.323,-0.323,-0.323,-0.323,-0.323,-0.323,-0.323,-0.323,-0.323,-0.323,-0.323,-0.464,-0.6246,-0.8457,-0.8657,-0.9657,-1.1858,-1.2458,-1.3667,-1.5074,-1.5678,-1.6083,-1.6083,-1.6083,-1.6083,-1.6083,-1.6083,-1.6083,-1.6083,-1.6083,-1.6083,-0.2453,-0.2469,-0.2476,-0.2506,-0.2491,-0.2461,0.0,0.0,0.0,0.0,-0.4706,-0.4766,-0.4678,-0.3517,-0.2478,-0.2508,-0.2514,-0.2514,-0.2515,0.0,0.0,0.0,0.0,0.0,0.0,0.0,0.0,0.0,0.0,0.0,0.0,0.0,-0.2887,-0.2916,-0.2916,-0.2902,-0.2875,-0.2874,-0.2874,-0.2874,-0.2902,-0.2916,-0.2917,-0.2979,-0.3006,0.0,0.0,0.0,0.0,-0.3052,-0.3052,-0.3052,-0.3052,-0.3052,-0.3052,-0.3052,-0.3052,-0.3052,-0.3052,-0.3052,-0.3052,-0.3052,-0.3052,-0.3058,-0.3088,-0.3076,-0.3052,-0.3052,-0.3074,-0.3104,-0.3134,-0.3142,-0.3142,-0.3142,-0.3165,-0.3187,-0.3187,-0.321,-0.323,-0.323,-0.323,-0.323,-0.323,-0.323,-0.323,-0.323,-0.323,-0.323,-0.323,-0.323,-0.323,-0.323,-0.323,-0.4035,-0.6246,-0.6447,-0.7452,-0.9661,-1.1659,-1.2863,-1.2863,-1.4875,-1.6083,-1.6083,-1.6083,-1.6083,-1.6083,-1.6083,-1.6083,-1.6083,-1.6083,-1.6083,-0.2427,-0.2438,-0.244,-0.245,-0.2429,-0.2405,-0.2394,0.0,0.0,-0.3097,-0.3133,-0.3163,-0.3177,-0.2773,-0.2496,-0.2485,-0.2518,-0.2545,-0.2545,0.0,0.0,0.0,0.0,0.0,0.0,0.0,0.0,0.0,0.0,0.0,0.0,0.0,-0.2887,-0.2915,-0.2897,-0.2883,-0.2874,-0.2893,-0.2902,-0.2902,-0.2932,-0.2958,-0.2979,-0.2998,0.0,0.0,0.0,0.0,0.0,-0.3052,-0.3052,-0.3052,-0.3052,-0.3052,-0.3052,-0.3052,-0.3052,-0.3052,-0.3052,-0.3066,-0.3084,-0.3084,-0.3097,-0.3116,-0.3126,-0.3107,-0.3088,-0.3108,-0.3122,-0.313,-0.3141,-0.3159,-0.3174,-0.3174,-0.3195,-0.3217,-0.3217,-0.3224,-0.323,-0.323,-0.323,-0.323,-0.323,-0.323,-0.323,-0.323,-0.323,-0.323,-0.323,-0.323,-0.323,-0.323,-0.323,-0.3431,-0.4236,-0.4236,-0.504,-0.7251,-0.8052,-0.9853,-1.2857,-1.3461,-1.4669,-1.6083,-1.6083,-1.6083,-1.6083,-1.6083,-1.6083,-1.6083,-1.6083,-1.6083,-0.2398,-0.2414,-0.2424,-0.2424,-0.2401,0.0,0.0,0.0,-0.2342,-0.2372,-0.2402,-0.2427,-0.2439,-0.2481,-0.2508,-0.2489,-0.2527,-0.256,-0.256,0.0,0.0,0.0,0.0,0.0,0.0,0.0,0.0,0.0,0.0,0.0,0.0,0.0,-0.2887,-0.2915,-0.2889,-0.2879,-0.289,-0.2906,-0.2921,-0.2934,-0.2964,-0.2988,-0.3007,-0.3018,0.0,0.0,0.0,0.0,0.0,-0.3052,-0.3052,-0.3052,-0.3052,-0.3052,-0.3052,-0.3052,-0.3059,-0.3069,-0.3069,-0.3089,-0.3115,-0.3115,-0.3135,-0.316,-0.316,-0.3138,-0.312,-0.3152,-0.316,-0.3163,-0.3172,-0.319,-0.3204,-0.3204,-0.3217,-0.323,-0.323,-0.323,-0.323,-0.323,-0.323,-0.323,-0.323,-0.323,-0.323,-0.323,-0.323,-0.323,-0.323,-0.323,-0.323,-0.323,-0.323,-0.3235,-0.3246,-0.3236,-0.3835,-0.504,-0.6065,-0.7692,-1.031,-1.1316,-1.2727,-1.495,-1.49,-1.5273,-1.6083,-1.6083,-1.6083,-1.6083,-1.6083,-1.6083,0.0,-0.2395,-0.2417,-0.2417,-0.2395,-0.2375,-0.2375,-0.2353,0.0,-0.2372,-0.2402,-0.2432,-0.2458,-0.2492,-0.2517,-0.2512,-0.2542,-0.2566,-0.2563,0.0,0.0,0.0,0.0,0.0,0.0,0.0,0.0,0.0,0.0,0.0,0.0,0.0,0.0,-0.2915,-0.289,-0.2889,-0.2916,-0.292,-0.2936,-0.2965,-0.2995,-0.301,-0.3011,-0.3039,0.0,0.0,0.0,0.0,0.0,-0.3052,-0.3052,-0.3052,-0.3052,-0.3054,-0.3055,-0.3055,-0.3074,-0.31,-0.31,-0.312,-0.3146,-0.3148,-0.3168,-0.3191,-0.3191,-0.3171,-0.3155,-0.3183,-0.3191,-0.3197,-0.3224,-0.323,-0.323,-0.323,-0.323,-0.323,-0.323,-0.323,-0.323,-0.323,-0.323,-0.323,-0.323,-0.323,-0.323,-0.323,-0.323,-0.323,-0.323,-0.323,-0.3231,-0.3234,-0.3234,-0.3246,-0.3276,-0.3251,-0.3234,-0.3236,-0.5092,-0.6341,-0.6545,-0.8378,-1.0414,-1.2648,-1.2743,-1.3889,-1.5897,-1.6096,-1.609,-1.6083,-1.6083,-1.6083,-0.2335,0.0,-0.2354,-0.2354,-0.2349,-0.2343,0.0,-0.2338,-0.2342,-0.2372,-0.2402,-0.2418,-0.2402,-0.2481,-0.2534,-0.2487,-0.2562,-0.2619,-0.2596,0.0,0.0,0.0,0.0,0.0,0.0,0.0,0.0,0.0,0.0,0.0,0.0,0.0,0.0,-0.2913,-0.2909,-0.2909,-0.2916,-0.2962,-0.2988,-0.2996,-0.3026,-0.3041,-0.3041,-0.305,0.0,0.0,0.0,0.0,-0.3052,-0.3052,-0.3052,-0.3052,-0.3052,-0.3066,-0.3086,-0.3086,-0.3107,-0.3131,-0.3131,-0.3152,-0.3182,-0.3202,-0.3215,-0.322,-0.322,-0.3215,-0.3212,-0.3219,-0.322,-0.3221,-0.3228,-0.323,-0.323,-0.323,-0.323,-0.323,-0.323,-0.323,-0.323,-0.323,-0.323,-0.323,-0.323,-0.323,-0.323,-0.323,-0.323,-0.323,-0.323,-0.323,-0.3239,-0.3262,-0.3265,-0.3277,-0.3307,-0.3283,-0.3275,-0.3298,-0.3719,-0.4753,-0.6402,-0.702,-0.8249,-1.0505,-1.2124,-1.3294,-1.3609,-1.5441,-1.6198,-1.6083,-1.6083,-1.6083,-0.2309,-0.2323,-0.2333,-0.2333,-0.2333,-0.2337,-0.235,-0.2353,-0.2367,-0.241,-0.2433,-0.2448,-0.2459,-0.2504,-0.2537,-0.253,-0.2585,-0.2635,0.0,0.0,0.0,0.0,0.0,0.0,0.0,0.0,0.0,0.0,0.0,0.0,0.0,0.0,0.0,0.0,-0.295,-0.2957,-0.2957,-0.299,-0.3014,-0.3028,-0.3044,-0.3052,-0.3052,-0.3052,0.0,0.0,0.0,0.0,-0.3052,-0.3052,-0.3061,-0.3073,-0.3073,-0.3092,-0.3118,-0.3118,-0.3138,-0.3164,-0.3164,-0.3183,-0.321,-0.3225,-0.323,-0.323,-0.323,-0.323,-0.323,-0.323,-0.323,-0.323,-0.323,-0.323,-0.323,-0.323,-0.323,-0.323,-0.323,-0.323,-0.323,-0.323,-0.323,-0.323,-0.323,-0.323,-0.323,-0.323,-0.323,-0.323,-0.323,-0.3242,-0.3257,-0.3273,-0.3288,-0.3309,-0.3339,-0.3326,-0.3318,-0.3321,-0.3335,-0.3968,-0.5007,-0.5007,-0.6034,-0.8276,-1.0334,-1.1954,-1.292,-1.4153,-1.531,-1.6185,-1.6185,-1.6151,-0.2289,-0.2311,-0.2333,-0.2333,-0.2337,-0.2346,-0.2372,-0.2382,-0.2401,-0.2458,-0.2473,-0.2491,-0.2537,-0.2536,-0.2541,-0.2582,-0.26,0.0,0.0,0.0,0.0,0.0,0.0,0.0,0.0,0.0,0.0,0.0,0.0,0.0,0.0,0.0,0.0,0.0,-0.2991,-0.3009,-0.3014,-0.3014,-0.3026,-0.3052,-0.3052,-0.3052,-0.3052,-0.3052,0.0,0.0,0.0,0.0,-0.3052,-0.3056,-0.3074,-0.3097,-0.3103,-0.3123,-0.3149,-0.3149,-0.3168,-0.3194,-0.3194,-0.321,-0.323,-0.323,-0.323,-0.323,-0.323,-0.323,-0.323,-0.323,-0.323,-0.323,-0.323,-0.323,-0.323,-0.323,-0.323,-0.323,-0.323,-0.323,-0.323,-0.323,-0.323,-0.323,-0.323,-0.323,-0.323,-0.323,-0.3234,-0.3238,-0.3238,-0.3264,-0.3284,-0.329,-0.3313,-0.334,-0.337,-0.3373,-0.3362,-0.3336,-0.3359,-0.3373,-0.3373,-0.3373,-0.4198,-0.6034,-0.81,-1.0161,-1.2014,-1.2837,-1.4013,-1.5727,-1.6138,-1.6273,-0.2283,-0.2311,-0.2333,-0.2333,-0.2352,-0.2372,-0.2378,-0.2398,-0.2427,-0.2462,-0.2489,-0.2503,-0.2487,-0.2541,-0.2575,-0.2534,0.0,0.0,0.0,0.0,0.0,0.0,0.0,0.0,0.0,0.0,0.0,0.0,0.0,0.0,0.0,0.0,0.0,0.0,0.0,-0.3018,-0.3044,-0.3046,-0.3048,-0.3052,-0.3052,-0.3052,-0.3052,-0.3052,-0.3052,0.0,0.0,-0.3052,-0.3054,-0.308,-0.3093,-0.31,-0.3126,-0.3155,-0.3182,-0.3182,-0.32,-0.3224,-0.3224,-0.3227,-0.323,-0.323,-0.323,-0.323,-0.323,-0.323,-0.323,-0.323,-0.323,-0.323,-0.323,-0.323,-0.323,-0.323,-0.323,-0.323,-0.323,-0.323,-0.323,-0.323,-0.323,-0.323,-0.323,-0.323,-0.323,-0.323,-0.3253,-0.3269,-0.3269,-0.3295,-0.3324,-0.335,-0.3356,-0.3371,-0.3403,-0.3405,-0.3403,-0.3399,-0.3403,-0.3405,-0.3405,-0.3405,-0.3615,-0.3822,-0.6145,-0.7384,-0.7539,-1.1493,-1.3515,-1.3609,-1.5667,-1.6476,-0.2263,-0.2298,-0.2337,-0.2353,-0.2368,-0.2387,-0.242,-0.2438,-0.2461,-0.2508,-0.2529,-0.254,-0.2541,0.0,-0.2598,-0.2587,0.0,0.0,0.0,0.0,0.0,0.0,0.0,0.0,0.0,0.0,0.0,0.0,0.0,0.0,0.0,0.0,0.0,0.0,0.0,-0.2468,-0.3052,-0.3052,-0.3052,-0.3052,-0.3052,-0.3052,-0.3052,-0.3052,-0.3052,-0.3054,0.0,-0.3077,-0.308,-0.311,-0.3131,-0.3148,-0.3161,-0.3185,-0.321,-0.321,-0.3219,-0.323,-0.323,-0.323,-0.323,-0.323,-0.323,-0.323,-0.323,-0.323,-0.323,-0.323,-0.323,-0.323,-0.323,-0.323,-0.323,-0.323,-0.323,-0.323,-0.323,-0.323,-0.323,-0.323,-0.323,-0.323,-0.323,-0.323,-0.3236,-0.3253,-0.3266,-0.3281,-0.3298,-0.3326,-0.3351,-0.3365,-0.3381,-0.3396,-0.3411,-0.3412,-0.3412,-0.3412,-0.3412,-0.3412,-0.3412,-0.3412,-0.3412,-0.3412,-0.4474,-0.5523,-0.6766,-1.013,-1.2176,-1.3314,-1.5602,-1.6598,-0.2262,-0.2304,-0.2352,-0.239,-0.2394,-0.2403,-0.2457,-0.248,-0.2502,-0.2541,-0.256,-0.2574,-0.2589,0.0,0.0,0.0,0.0,0.0,0.0,0.0,0.0,0.0,0.0,0.0,0.0,0.0,0.0,0.0,0.0,0.0,0.0,0.0,0.0,0.0,0.0,0.0,-0.3052,-0.2862,-0.2862,-0.3052,-0.3052,-0.3052,-0.3052,-0.3052,-0.3056,-0.3065,-0.3088,-0.3101,-0.3111,-0.3141,-0.3167,-0.3189,-0.3195,-0.3212,-0.323,-0.323,-0.323,-0.323,-0.323,-0.323,-0.323,-0.323,-0.323,-0.323,-0.323,-0.323,-0.323,-0.323,-0.323,-0.323,-0.323,-0.323,-0.323,-0.323,-0.323,-0.323,-0.323,-0.323,-0.323,-0.323,-0.323,-0.3232,-0.3239,-0.324,-0.3251,-0.3281,-0.3292,-0.3306,-0.3329,-0.3358,-0.3377,-0.3377,-0.3397,-0.3412,-0.3412,-0.3412,-0.3412,-0.3412,-0.3412,-0.3412,-0.3412,-0.3412,-0.3412,-0.3412,-0.3412,-0.4261,-0.5957,-0.8289,-1.058,-1.2599,-1.491,-1.6112,-0.2312,-0.235,-0.2388,-0.2447,-0.2442,-0.2429,-0.2462,-0.2512,-0.2547,-0.2522,-0.256,-0.2592,-0.2567,0.0,0.0,0.0,0.0,0.0,0.0,0.0,0.0,0.0,0.0,0.0,0.0,0.0,0.0,0.0,0.0,0.0,0.0,0.0,0.0,0.0,0.0,-0.2098,-0.3052,-0.2098,-0.2098,-0.3052,-0.3052,-0.3052,-0.3052,-0.3052,-0.3067,-0.3095,-0.3096,-0.3114,-0.3142,-0.3172,-0.3186,-0.3191,-0.3217,-0.3228,-0.323,-0.323,-0.323,-0.323,-0.323,-0.323,-0.323,-0.323,-0.323,-0.323,-0.323,-0.323,-0.323,-0.323,-0.323,-0.323,-0.323,-0.323,-0.323,-0.323,-0.323,-0.323,-0.323,-0.323,-0.323,-0.323,-0.323,-0.3239,-0.3268,-0.3272,-0.3283,-0.3313,-0.3341,-0.336,-0.3363,-0.339,-0.3408,-0.3408,-0.3411,-0.3412,-0.3412,-0.3412,-0.3412,-0.3412,-0.3412,-0.3412,-0.3412,-0.3412,-0.3412,-0.3412,-0.3412,-0.3411,-0.3624,-0.5957,-0.8286,-1.0395,-1.2721,-1.5042,-0.2345,-0.2383,-0.2417,-0.2458,-0.2474,-0.2482,-0.2495,-0.253,-0.2562,-0.2567,-0.2601,-0.2638,0.0,0.0,0.0,0.0,0.0,0.0,0.0,0.0,0.0,0.0,0.0,0.0,0.0,0.0,0.0,0.0,0.0,0.0,0.0,0.0,0.0,0.0,0.0,-0.0758,-0.1145,-0.1336,-0.1717,-0.21,-0.2099,-0.2098,-0.2099,-0.2111,-0.2315,-0.2518,-0.2941,-0.316,-0.3174,-0.3204,-0.3216,-0.3216,-0.3225,-0.323,-0.323,-0.323,-0.323,-0.323,-0.323,-0.323,-0.323,-0.323,-0.323,-0.323,-0.323,-0.323,-0.323,-0.323,-0.323,-0.323,-0.323,-0.323,-0.323,-0.323,-0.323,-0.323,-0.323,-0.323,-0.323,-0.323,-0.3246,-0.3262,-0.3273,-0.3291,-0.3314,-0.3344,-0.3359,-0.3373,-0.3392,-0.3405,-0.3412,-0.3412,-0.3412,-0.3412,-0.3412,-0.3412,-0.3412,-0.3412,-0.3412,-0.3412,-0.3412,-0.3412,-0.3412,-0.3412,-0.3412,-0.3412,-0.3412,-0.5744,-0.7228,-0.8077,-1.1882,-1.4002,-0.2388,-0.2423,-0.2293,-0.2166,-0.2349,-0.2526,-0.2517,-0.2545,-0.2579,-0.2598,-0.2634,-0.2506,-0.2376,0.0,0.0,0.0,0.0,0.0,0.0,0.0,0.0,0.0,0.0,0.0,0.0,0.0,0.0,0.0,0.0,0.0,0.0,0.0,0.0,0.0,0.0,0.0,0.0,-0.0764,-0.0956,-0.0959,-0.0958,-0.0958,-0.0958,-0.0968,-0.1558,-0.2541,-0.2972,-0.3194,-0.3204,-0.3225,-0.3232,-0.3231,-0.3231,-0.3231,-0.3231,-0.3231,-0.323,-0.323,-0.323,-0.323,-0.323,-0.323,-0.323,-0.323,-0.3231,-0.3231,-0.323,-0.3231,-0.3231,-0.323,-0.323,-0.323,-0.323,-0.323,-0.323,-0.323,-0.323,-0.3238,-0.3245,-0.3245,-0.3269,-0.3294,-0.3302,-0.3322,-0.3345,-0.3377,-0.3381,-0.3388,-0.341,-0.3412,-0.3412,-0.3412,-0.3412,-0.3412,-0.3412,-0.3412,-0.3412,-0.3412,-0.3412,-0.3412,-0.3412,-0.3412,-0.3412,-0.3412,-0.3412,-0.3412,-0.3412,-0.4898,-0.6169,-0.6804,-1.0826,-1.2942,-0.2446,-0.2469,-0.2166,-0.141,-0.1903,-0.2552,-0.2522,-0.2562,-0.2607,-0.2607,-0.2652,-0.2356,-0.1515,0.0,0.0,0.0,0.0,0.0,0.0,0.0,0.0,0.0,0.0,0.0,0.0,0.0,0.0,0.0,0.0,0.0,0.0,0.0,0.0,0.0,0.0,0.0,0.0,0.0,0.0,0.0,0.0,0.0,0.0,0.0,-0.1184,-0.3189,-0.3189,-0.3205,-0.3234,-0.3234,-0.3234,-0.3234,-0.3234,-0.3234,-0.3234,-0.3231,-0.323,-0.323,-0.323,-0.323,-0.323,-0.323,-0.323,-0.3231,-0.3232,-0.3232,-0.3231,-0.3232,-0.3232,-0.323,-0.323,-0.3231,-0.3231,-0.323,-0.3231,-0.3231,-0.3231,-0.3254,-0.3276,-0.3276,-0.33,-0.333,-0.3362,-0.3367,-0.3377,-0.3407,-0.3412,-0.3412,-0.3412,-0.3412,-0.3412,-0.3412,-0.3412,-0.3412,-0.3412,-0.3412,-0.3412,-0.3412,-0.3412,-0.3412,-0.3412,-0.3412,-0.3412,-0.3412,-0.3412,-0.3412,-0.3412,-0.3412,-0.4473,-0.6804,-0.9137,-1.1464,-0.1544,-0.2032,0.0,-0.157,0.0,0.0,-0.2553,-0.2119,-0.167,-0.1684,-0.2191,-0.2538,-0.2405,0.0,0.0,0.0,0.0,0.0,0.0,0.0,0.0,0.0,0.0,0.0,0.0,0.0,0.0,0.0,0.0,0.0,0.0,0.0,0.0,0.0,0.0,0.0,0.0,0.0,0.0,0.0,0.0,0.0,0.0,0.0,-0.0397,-0.0996,-0.1805,-0.2015,-0.202,-0.202,-0.1616,-0.101,-0.202,-0.283,-0.3234,-0.3231,-0.323,-0.323,-0.323,-0.323,-0.3231,-0.3232,-0.3232,-0.3232,-0.3234,-0.2626,-0.2221,-0.3032,-0.3234,-0.3232,-0.3232,-0.3247,-0.3257,-0.3235,-0.3246,-0.3262,-0.3262,-0.3285,-0.3307,-0.3307,-0.3332,-0.3356,-0.3365,-0.3384,-0.3401,-0.3411,-0.3412,-0.3412,-0.3412,-0.3412,-0.3412,-0.3412,-0.3412,-0.3412,-0.3412,-0.3412,-0.3412,-0.3412,-0.3412,-0.3412,-0.3412,-0.3412,-0.3412,-0.3412,-0.3412,-0.3412,-0.3412,-0.3412,-0.3837,-0.4474,-0.6807,-0.9133,-0.0782,-0.1104,0.0,0.0,0.0,0.0,0.0,0.0,0.0,0.0,0.0,-0.171,0.0,0.0,0.0,0.0,0.0,0.0,0.0,0.0,0.0,0.0,0.0,0.0,0.0,0.0,0.0,0.0,0.0,0.0,0.0,0.0,0.0,0.0,0.0,0.0,0.0,0.0,0.0,0.0,0.0,0.0,0.0,0.0,0.0,-0.0,-0.0605,-0.101,-0.101,-0.1818,-0.1414,-0.0,-0.101,-0.202,-0.3234,-0.3232,-0.3231,-0.3231,-0.3231,-0.3231,-0.3232,-0.3234,-0.283,-0.2628,-0.3032,-0.2424,-0.1616,-0.1818,-0.2222,-0.263,-0.2639,-0.2652,-0.2659,-0.305,-0.3272,-0.3294,-0.3294,-0.3317,-0.3339,-0.3339,-0.3363,-0.3385,-0.3385,-0.34,-0.3412,-0.3412,-0.3412,-0.3412,-0.3412,-0.3412,-0.3412,-0.3412,-0.3412,-0.3412,-0.3412,-0.3412,-0.3412,-0.3412,-0.3412,-0.3412,-0.3412,-0.3412,-0.3412,-0.3412,-0.3412,-0.3412,-0.3412,-0.3412,-0.3412,-0.3411,-0.5744,-0.7441,0.0,0.0,0.0,0.0,0.0,0.0,0.0,0.0,0.0,0.0,0.0,0.0,0.0,0.0,0.0,0.0,0.0,0.0,0.0,0.0,0.0,0.0,0.0,0.0,0.0,0.0,0.0,0.0,0.0,0.0,0.0,0.0,0.0,0.0,0.0,0.0,0.0,0.0,0.0,0.0,0.0,0.0,0.0,0.0,0.0,0.0,0.0,0.0,-0.0202,-0.202,-0.1818,0.0,0.0,-0.1212,-0.283,-0.3032,-0.3032,-0.3234,-0.3032,-0.3032,-0.3032,-0.3234,-0.2626,-0.1818,-0.2628,-0.2222,-0.1212,-0.0202,-0.0607,-0.1419,-0.1637,-0.1642,-0.1848,-0.3079,-0.3305,-0.3325,-0.3325,-0.335,-0.337,-0.337,-0.3393,-0.3412,-0.3412,-0.3412,-0.3412,-0.3412,-0.3412,-0.3412,-0.3412,-0.3412,-0.3412,-0.3412,-0.3412,-0.3412,-0.3412,-0.3412,-0.3412,-0.3412,-0.3412,-0.3412,-0.3412,-0.3412,-0.3412,-0.3412,-0.3412,-0.3412,-0.3412,-0.3412,-0.3412,-0.3411,-0.5534,-0.6592,0.0,0.0,0.0,0.0,0.0,0.0,0.0,0.0,0.0,0.0,0.0,0.0,0.0,0.0,0.0,0.0,0.0,0.0,0.0,0.0,0.0,0.0,0.0,0.0,0.0,0.0,0.0,0.0,0.0,0.0,0.0,0.0,0.0,0.0,0.0,0.0,0.0,0.0,0.0,0.0,0.0,0.0,0.0,0.0,0.0,0.0,0.0,0.0,-0.0,-0.0404,-0.0404,0.0,0.0,-0.0202,-0.0808,-0.1616,-0.2424,-0.3032,-0.2222,-0.202,-0.202,-0.283,-0.3032,-0.2626,-0.1212,-0.0606,-0.0202,-0.0,-0.0204,-0.0614,-0.1446,-0.1665,-0.1882,-0.2929,-0.3352,-0.3356,-0.3356,-0.3381,-0.3401,-0.3401,-0.3407,-0.3412,-0.3412,-0.3412,-0.3412,-0.3412,-0.3412,-0.3412,-0.3412,-0.3412,-0.3412,-0.3412,-0.3412,-0.3412,-0.3412,-0.3412,-0.3412,-0.3412,-0.3412,-0.3412,-0.3412,-0.3412,-0.3412,-0.3412,-0.3412,-0.3412,-0.3412,-0.3412,-0.3412,-0.3412,-0.3837,-0.5109,0.0,0.0,0.0,0.0,0.0,0.0,0.0,0.0,0.0,0.0,0.0,0.0,0.0,0.0,0.0,0.0,0.0,0.0,0.0,0.0,0.0,0.0,0.0,0.0,0.0,0.0,0.0,0.0,0.0,0.0,0.0,0.0,0.0,0.0,0.0,0.0,0.0,0.0,0.0,0.0,0.0,0.0,0.0,0.0,0.0,0.0,0.0,0.0,0.0,0.0,0.0,0.0,0.0,0.0,-0.0,-0.0606,-0.1212,-0.1818,-0.2222,-0.1616,-0.101,-0.1414,-0.1616,-0.1416,-0.0406,0.0,0.0,0.0,0.0,-0.0207,-0.0626,-0.0839,-0.1053,-0.1481,-0.2117,-0.2541,-0.2541,-0.255,-0.2772,-0.3199,-0.3412,-0.3412,-0.3412,-0.3412,-0.3412,-0.3412,-0.3412,-0.3412,-0.3412,-0.3412,-0.3412,-0.3412,-0.3412,-0.3412,-0.3412,-0.3412,-0.3412,-0.3412,-0.3412,-0.3412,-0.3412,-0.3412,-0.3412,-0.3412,-0.3412,-0.3412,-0.3412,-0.3412,-0.3412,-0.3412,-0.3412,-0.4048,0.0,0.0,0.0,0.0,0.0,0.0,0.0,0.0,0.0,0.0,0.0,0.0,0.0,0.0,0.0,0.0,0.0,0.0,0.0,0.0,0.0,0.0,0.0,0.0,0.0,0.0,0.0,0.0,0.0,0.0,0.0,0.0,0.0,0.0,0.0,0.0,0.0,0.0,0.0,0.0,0.0,0.0,0.0,0.0,0.0,0.0,0.0,0.0,0.0,0.0,0.0,0.0,0.0,0.0,0.0,0.0,0.0,-0.0202,-0.202,-0.1414,0.0,0.0,0.0,0.0,0.0,0.0,0.0,0.0,0.0,0.0,0.0,0.0,0.0,0.0,-0.0639,-0.1492,-0.1492,-0.1492,-0.1706,-0.2985,-0.3198,-0.3198,-0.3198,-0.3198,-0.3198,-0.3412,-0.3412,-0.3412,-0.3412,-0.3412,-0.3412,-0.3412,-0.3412,-0.3412,-0.3412,-0.3412,-0.3412,-0.3412,-0.3412,-0.3412,-0.3412,-0.3412,-0.3412,-0.3412,-0.3412,-0.3412,-0.3412,-0.3412,-0.3412,-0.3412,-0.3412,-0.3412,0.0,0.0,0.0,0.0,0.0,0.0,0.0,0.0,0.0,0.0,0.0,0.0,0.0,0.0,0.0,0.0,0.0,0.0,0.0,0.0,0.0,0.0,0.0,0.0,0.0,0.0,0.0,0.0,0.0,0.0,0.0,0.0,0.0,0.0,0.0,0.0,0.0,0.0,0.0,0.0,0.0,0.0,0.0,0.0,0.0,0.0,0.0,0.0,0.0,0.0,0.0,0.0,0.0,0.0,0.0,0.0,0.0,-0.0,-0.0404,-0.0202,0.0,0.0,0.0,0.0,0.0,0.0,0.0,0.0,0.0,0.0,0.0,0.0,0.0,0.0,-0.0213,-0.0213,-0.0213,-0.0213,-0.0639,-0.1706,-0.1919,-0.1919,-0.1919,-0.1919,-0.2345,-0.3199,-0.3412,-0.3412,-0.3412,-0.3412,-0.3412,-0.3412,-0.3412,-0.3412,-0.3412,-0.3412,-0.3412,-0.3412,-0.3412,-0.3412,-0.3412,-0.3412,-0.3412,-0.3412,-0.3412,-0.3412,-0.3412,-0.3412,-0.3412,-0.3412,-0.3412,-0.3412,0.0,0.0,0.0,0.0,0.0,0.0,0.0,0.0,0.0,0.0,0.0,0.0,0.0,0.0,0.0,0.0,0.0,0.0,0.0,0.0,0.0,0.0,0.0,0.0,0.0,0.0,0.0,0.0,0.0,0.0,0.0,0.0,0.0,0.0,0.0,0.0,0.0,0.0,0.0,0.0,0.0,0.0,0.0,0.0,0.0,0.0,0.0,0.0,0.0,0.0,0.0,0.0,0.0,0.0,0.0,0.0,0.0,0.0,0.0,0.0,0.0,0.0,0.0,0.0,0.0,0.0,0.0,0.0,0.0,0.0,0.0,0.0,0.0,0.0,0.0,0.0,0.0,0.0,-0.0213,-0.0639,-0.0853,-0.0853,-0.0853,-0.0853,-0.0853,-0.1492,-0.2558,-0.3412,-0.3412,-0.3412,-0.3412,-0.3412,-0.3412,-0.3412,-0.3412,-0.3412,-0.3412,-0.3412,-0.3412,-0.3412,-0.3412,-0.3412,-0.3412,-0.3412,-0.3412,-0.3412,-0.3412,-0.3412,-0.3412,-0.3412,-0.3412,-0.3412,0.0,0.0,0.0,0.0,0.0,0.0,0.0,0.0,0.0,0.0,0.0,0.0,0.0,0.0,0.0,0.0,0.0,0.0,0.0,0.0,0.0,0.0,0.0,0.0,0.0,0.0,0.0,0.0,0.0,0.0,0.0,0.0,0.0,0.0,0.0,0.0,0.0,0.0,0.0,0.0,0.0,0.0,0.0,0.0,0.0,0.0,0.0,0.0,0.0,0.0,0.0,0.0,0.0,0.0,0.0,0.0,0.0,0.0,0.0,0.0,0.0,0.0,0.0,0.0,0.0,0.0,0.0,0.0,0.0,0.0,0.0,0.0,0.0,0.0,0.0,0.0,0.0,0.0,0.0,0.0,0.0,0.0,0.0,0.0,0.0,0.0,-0.1492,-0.2558,-0.2985,-0.3198,-0.3412,-0.3412,-0.3412,-0.3412,-0.3412,-0.3412,-0.3412,-0.3412,-0.3412,-0.3412,-0.3412,-0.3412,-0.3412,-0.3412,-0.3412,-0.3412,-0.3412,-0.3412,-0.3412,-0.3412,-0.3412,-0.3412,0.0,0.0,0.0,0.0,0.0,0.0,0.0,0.0,0.0,0.0,0.0,0.0,0.0,0.0,0.0,0.0,0.0,0.0,0.0,0.0,0.0,0.0,0.0,0.0,0.0,0.0,0.0,0.0,0.0,0.0,0.0,0.0,0.0,0.0,0.0,0.0,0.0,0.0,0.0,0.0,0.0,0.0,0.0,0.0,0.0,0.0,0.0,0.0,0.0,0.0,0.0,0.0,0.0,0.0,0.0,0.0,0.0,0.0,0.0,0.0,0.0,0.0,0.0,0.0,0.0,0.0,0.0,0.0,0.0,0.0,0.0,0.0,0.0,0.0,0.0,0.0,0.0,0.0,0.0,0.0,0.0,0.0,0.0,0.0,0.0,0.0,-0.0,-0.0639,-0.1705,-0.2772,-0.3412,-0.3412,-0.3412,-0.3412,-0.3412,-0.3412,-0.3412,-0.3412,-0.3412,-0.3412,-0.3412,-0.3412,-0.3412,-0.3412,-0.3412,-0.3412,-0.3412,-0.3412,-0.3412,-0.3412,-0.3412,-0.3412,0.0,0.0,0.0,0.0,0.0,0.0,0.0,0.0,0.0,0.0,0.0,0.0,0.0,0.0,0.0,0.0,0.0,0.0,0.0,0.0,0.0,0.0,0.0,0.0,0.0,0.0,0.0,0.0,0.0,0.0,0.0,0.0,0.0,0.0,0.0,0.0,0.0,0.0,0.0,0.0,0.0,0.0,0.0,0.0,0.0,0.0,0.0,0.0,0.0,0.0,0.0,0.0,0.0,0.0,0.0,0.0,0.0,0.0,0.0,0.0,0.0,0.0,0.0,0.0,0.0,0.0,0.0,0.0,0.0,0.0,0.0,0.0,0.0,0.0,0.0,0.0,0.0,0.0,0.0,0.0,0.0,0.0,0.0,0.0,0.0,0.0,0.0,-0.0213,-0.0639,-0.1066,-0.1492,-0.2132,-0.2985,-0.3412,-0.3412,-0.3412,-0.3412,-0.3412,-0.3412,-0.3412,-0.3412,-0.3412,-0.3412,-0.3412,-0.3412,-0.3412,-0.3412,-0.3412,-0.3412,-0.3412,-0.3412,-0.3412,0.0,0.0,0.0,0.0,0.0,0.0,0.0,0.0,0.0,0.0,0.0,0.0,0.0,0.0,0.0,0.0,0.0,0.0,0.0,0.0,0.0,0.0,0.0,0.0,0.0,0.0,0.0,0.0,0.0,0.0,0.0,0.0,0.0,0.0,0.0,0.0,0.0,0.0,0.0,0.0,0.0,0.0,0.0,0.0,0.0,0.0,0.0,0.0,0.0,0.0,0.0,0.0,0.0,0.0,0.0,0.0,0.0,0.0,0.0,0.0,0.0,0.0,0.0,0.0,0.0,0.0,0.0,0.0,0.0,0.0,0.0,0.0,0.0,0.0,0.0,0.0,0.0,0.0,0.0,0.0,0.0,0.0,0.0,0.0,0.0,0.0,0.0,0.0,0.0,0.0,-0.0213,-0.1066,-0.1706,-0.2345,-0.2772,-0.3198,-0.3412,-0.3412,-0.3412,-0.3412,-0.3412,-0.3412,-0.3412,-0.3412,-0.3412,-0.3412,-0.3412,-0.3412,-0.3412,-0.3412,-0.3412,-0.3412,0.0,0.0,0.0,0.0,0.0,0.0,0.0,0.0,0.0,0.0,0.0,0.0,0.0,0.0,0.0,0.0,0.0,0.0,0.0,0.0,0.0,0.0,0.0,0.0,0.0,0.0,0.0,0.0,0.0,0.0,0.0,0.0,0.0,0.0,0.0,0.0,0.0,0.0,0.0,0.0,0.0,0.0,0.0,0.0,0.0,0.0,0.0,0.0,0.0,0.0,0.0,0.0,0.0,0.0,0.0,0.0,0.0,0.0,0.0,0.0,0.0,0.0,0.0,0.0,0.0,0.0,0.0,0.0,0.0,0.0,0.0,0.0,0.0,0.0,0.0,0.0,0.0,0.0,0.0,0.0,0.0,0.0,0.0,0.0,0.0,0.0,0.0,0.0,0.0,0.0,0.0,0.0,0.0,-0.0426,-0.1492,-0.2558,-0.3412,-0.3412,-0.3412,-0.3412,-0.3412,-0.3412,-0.3412,-0.3412,-0.3412,-0.3412,-0.3412,-0.3412,-0.3412,-0.3412,-0.3412,-0.3412,0.0,0.0,0.0,0.0,0.0,0.0,0.0,0.0,0.0,0.0,0.0,0.0,0.0,0.0,0.0,0.0,0.0,0.0,0.0,0.0,0.0,0.0,0.0,0.0,0.0,0.0,0.0,0.0,0.0,0.0,0.0,0.0,0.0,0.0,0.0,0.0,0.0,0.0,0.0,0.0,0.0,0.0,0.0,0.0,0.0,0.0,0.0,0.0,0.0,0.0,0.0,0.0,0.0,0.0,0.0,0.0,0.0,0.0,0.0,0.0,0.0,0.0,0.0,0.0,0.0,0.0,0.0,0.0,0.0,0.0,0.0,0.0,0.0,0.0,0.0,0.0,0.0,0.0,0.0,0.0,0.0,0.0,0.0,0.0,0.0,0.0,0.0,0.0,0.0,0.0,0.0,0.0,0.0,-0.0213,-0.0426,-0.0853,-0.1705,-0.3199,-0.3412,-0.3412,-0.3412,-0.3412,-0.3412,-0.3412,-0.3412,-0.3412,-0.3412,-0.3412,-0.3412,-0.3412,-0.3412,-0.3412,0.0781,0.2037,0.3452,0.0627,0.0,0.0,0.0,0.0,0.0,0.0,0.0,0.0,0.0,0.0,0.0,0.0,0.0,0.0,0.0,0.0,0.0,0.0,0.0,0.0,0.0,0.0,0.0,0.0,0.0,0.0,0.0,0.0,0.0,0.0,0.0,0.0,0.0,0.0,0.0,0.0,0.0,0.0,0.0,0.0,0.0,0.0,0.0,0.0,0.0,0.0,0.0,0.0,0.0,0.0,0.0,0.0,0.0,0.0,0.0,0.0,0.0,0.0,0.0,0.0,0.0,0.0,0.0,0.0,0.0,0.0,0.0,0.0,0.0,0.0,0.0,0.0,0.0,0.0,0.0,0.0,0.0,0.0,0.0,0.0,0.0,0.0,0.0,0.0,0.0,0.0,0.0,0.0,0.0,0.0,0.0,0.0,-0.0639,-0.1919,-0.2772,-0.3412,-0.3412,-0.3412,-0.3412,-0.3412,-0.3425,-0.3437,-0.3449,-0.3425,-0.3412,-0.3412,-0.3412,-0.3412,0.2661,0.5483,0.8646,0.2659,0.0,0.0,0.0,0.0,0.0,0.0,0.0,0.0,0.0,0.0,0.0,0.0,0.0,0.0,0.0,0.0,0.0,0.0,0.0,0.0,0.0,0.0,0.0,0.0,0.0,0.0,0.0,0.0,0.0,0.0,0.0,0.0,0.0,0.0,0.0,0.0,0.0,0.0,0.0,0.0,0.0,0.0,0.0,0.0,0.0,0.0,0.0,0.0,0.0,0.0,0.0,0.0,0.0,0.0,0.0,0.0,0.0,0.0,0.0,0.0,0.0,0.0,0.0,0.0,0.0,0.0,0.0,0.0,0.0,0.0,0.0,0.0,0.0,0.0,0.0,0.0,0.0,0.0,0.0,0.0,0.0,0.0,0.0,0.0,0.0,0.0,0.0,0.0,0.0,0.0,0.0,0.0,0.0,0.0,-0.1919,-0.3198,-0.3412,-0.3412,-0.3414,-0.3416,-0.3446,-0.3476,-0.3502,-0.3448,-0.3422,-0.3422,-0.3422,-0.3422,0.8476,0.8944,0.975,0.8315,0.0,0.0,0.0,0.0,0.0,0.0,0.0,0.0,0.0,0.0,0.0,0.0,0.0,0.0,0.0,0.0,0.0,0.0,0.0,0.0,0.0,0.0,0.0,0.0,0.0,0.0,0.0,0.0,0.0,0.0,0.0,0.0,0.0,0.0,0.0,0.0,0.0,0.0,0.0,0.0,0.0,0.0,0.0,0.0,0.0,0.0,0.0,0.0,0.0,0.0,0.0,0.0,0.0,0.0,0.0,0.0,0.0,0.0,0.0,0.0,0.0,0.0,0.0,0.0,0.0,0.0,0.0,0.0,0.0,0.0,0.0,0.0,0.0,0.0,0.0,0.0,0.0,0.0,0.0,0.0,0.0,0.0,0.0,0.0,0.0,0.0,0.0,0.0,0.0,0.0,0.0,0.0,0.0,0.0,-0.0426,-0.1492,-0.3412,-0.3412,-0.3423,-0.3448,-0.3478,-0.3495,-0.3502,-0.3491,-0.3484,-0.3484,-0.3484,-0.3484,1.0057,1.0036,1.0047,1.0036,0.0,0.0,0.0,0.0,0.0,0.0,0.0,0.0,0.0,0.0,0.0,0.0,0.0,0.0,0.0,0.0,0.0,0.0,0.0,0.0,0.0,0.0,0.0,0.0,0.0,0.0,0.0,0.0,0.0,0.0,0.0,0.0,0.0,0.0,0.0,0.0,0.0,0.0,0.0,0.0,0.0,0.0,0.0,0.0,0.0,0.0,0.0,0.0,0.0,0.0,0.0,0.0,0.0,0.0,0.0,0.0,0.0,0.0,0.0,0.0,0.0,0.0,0.0,0.0,0.0,0.0,0.0,0.0,0.0,0.0,0.0,0.0,0.0,0.0,0.0,0.0,0.0,0.0,0.0,0.0,0.0,0.0,0.0,0.0,0.0,0.0,0.0,0.0,0.0,0.0,0.0,0.0,0.0,0.0,0.0,-0.1066,-0.3412,-0.3426,-0.3456,-0.3502,-0.3516,-0.3531,-0.3544,-0.3544,-0.3531,-0.3502,-0.3502,-0.3502,0.0,0.0,0.0,0.0,0.0,1.0074,0.0,0.0,0.0,0.0,0.0,0.0,0.0,0.0,0.0,0.0,0.0,0.0,0.0,0.0,0.0,0.0,0.0,0.0,0.0,0.0,0.0,0.0,0.0,0.0,0.0,0.0,0.0,0.0,0.0,0.0,0.0,0.0,0.0,0.0,0.0,0.0,0.0,0.0,0.0,0.0,0.0,0.0,0.0,0.0,0.0,0.0,0.0,0.0,0.0,0.0,0.0,0.0,0.0,0.0,0.0,0.0,0.0,0.0,0.0,0.0,0.0,0.0,0.0,0.0,0.0,0.0,0.0,0.0,0.0,0.0,0.0,0.0,0.0,0.0,0.0,0.0,0.0,0.0,0.0,0.0,0.0,0.0,0.0,0.0,0.0,0.0,0.0,0.0,0.0,0.0,0.0,0.0,0.0,-0.0853,-0.2565,-0.3023,-0.328,-0.3547,-0.3551,-0.3565,-0.3589,-0.3589,-0.3565,-0.352,-0.352,-0.352,0.0,0.0,0.0,0.0,1.0019,0.0,0.0,0.0,0.0,0.0,0.0,0.0,0.0,0.0,0.0,0.0,0.0,0.0,0.0,0.0,0.0,0.0,0.0,0.0,0.0,0.0,0.0,0.0,0.0,0.0,0.0,0.0,0.0,0.0,0.0,0.0,0.0,0.0,0.0,0.0,0.0,0.0,0.0,0.0,0.0,0.0,0.0,0.0,0.0,0.0,0.0,0.0,0.0,0.0,0.0,0.0,0.0,0.0,0.0,0.0,0.0,0.0,0.0,0.0,0.0,0.0,0.0,0.0,0.0,0.0,0.0,0.0,0.0,0.0,0.0,0.0,0.0,0.0,0.0,0.0,0.0,0.0,0.0,0.0,0.0,0.0,0.0,0.0,0.0,0.0,0.0,0.0,0.0,0.0,0.0,0.0,0.0,0.0,0.0,-0.0214,-0.0431,-0.1314,-0.2434,-0.3547,-0.3572,-0.3587,-0.3589,-0.3589,-0.3587,-0.358,-0.358,-0.358,0.0,0.0,0.0,0.0,0.0,0.0,1.0052,0.0,1.0036,0.0,0.0,0.0,0.0,0.0,0.0,0.0,0.0,0.0,0.0,0.0,0.0,0.0,0.0,0.0,0.0,0.0,0.0,0.0,0.0,0.0,0.0,0.0,0.0,0.0,0.0,0.0,0.0,0.0,0.0,0.0,0.0,0.0,0.0,0.0,0.0,0.0,0.0,0.0,0.0,0.0,0.0,0.0,0.0,0.0,0.0,0.0,0.0,0.0,0.0,0.0,0.0,0.0,0.0,0.0,0.0,0.0,0.0,0.0,0.0,0.0,0.0,0.0,0.0,0.0,0.0,0.0,0.0,0.0,0.0,0.0,0.0,0.0,0.0,0.0,0.0,0.0,0.0,0.0,0.0,0.0,0.0,0.0,0.0,0.0,0.0,0.0,0.0,0.0,0.0,0.0,0.0,-0.0442,-0.0888,-0.1562,-0.2911,-0.3589,-0.3589,-0.3589,-0.3589,-0.3589,-0.3589,-0.3589,1.0628,0.0,0.0,0.0,0.0,0.0,0.0,0.0,0.0,0.0,0.0,0.0,0.0,0.0,0.0,0.0,0.0,0.0,0.0,0.0,0.0,0.0,0.0,0.0,0.0,0.0,0.0,0.0,0.0,0.0,0.0,0.0,0.0,0.0,0.0,0.0,0.0,0.0,0.0,0.0,0.0,0.0,0.0,0.0,0.0,0.0,0.0,0.0,0.0,0.0,0.0,0.0,0.0,0.0,0.0,0.0,0.0,0.0,0.0,0.0,0.0,0.0,0.0,0.0,0.0,0.0,0.0,0.0,0.0,0.0,0.0,0.0,0.0,0.0,0.0,0.0,0.0,0.0,0.0,0.0,0.0,0.0,0.0,0.0,0.0,0.0,0.0,0.0,0.0,0.0,0.0,0.0,0.0,0.0,0.0,0.0,0.0,0.0,0.0,0.0,0.0,0.0,0.0,0.0,-0.2021,-0.3365,-0.3589,-0.3589,-0.3589,-0.3589,-0.3589,-0.3589,0.0,0.0,0.0,1.134,0.0,0.0,0.0,0.0,1.0199,0.0,0.0,0.0,0.0,1.0067,1.0083,1.0248,1.0196,0.0,0.0,0.0,0.0,0.0,0.0,0.0,0.0,0.0,0.0,0.0,0.0,0.0,0.0,0.0,0.0,0.0,0.0,0.0,0.0,0.0,0.0,0.0,0.0,0.0,0.0,0.0,0.0,0.0,0.0,0.0,0.0,0.0,0.0,0.0,0.0,0.0,0.0,0.0,0.0,0.0,0.0,0.0,0.0,0.0,0.0,0.0,0.0,0.0,0.0,0.0,0.0,0.0,0.0,0.0,0.0,0.0,0.0,0.0,0.0,0.0,0.0,0.0,0.0,0.0,0.0,0.0,0.0,0.0,0.0,0.0,0.0,0.0,0.0,0.0,0.0,0.0,0.0,0.0,0.0,0.0,0.0,0.0,0.0,0.0,0.0,0.0,-0.1122,-0.247,-0.3589,-0.3589,-0.3589,-0.3589,-0.3589,-0.3589,0.0,0.0,1.1108,1.0948,0.0,0.0,0.0,0.0,0.0,0.0,0.0,0.0,0.0,1.0389,1.0443,1.0611,1.0552,1.0485,0.0,0.0,0.0,0.0,0.0,0.0,0.0,0.0,0.0,0.0,0.0,0.0,0.0,0.0,0.0,0.0,0.0,0.0,0.0,0.0,0.0,0.0,0.0,0.0,0.0,0.0,0.0,0.0,0.0,0.0,0.0,0.0,0.0,0.0,0.0,0.0,0.0,0.0,0.0,0.0,0.0,0.0,0.0,0.0,0.0,0.0,0.0,0.0,0.0,0.0,0.0,0.0,0.0,0.0,0.0,0.0,0.0,0.0,0.0,0.0,0.0,0.0,0.0,0.0,0.0,0.0,0.0,0.0,0.0,0.0,0.0,0.0,0.0,0.0,0.0,0.0,0.0,0.0,0.0,0.0,0.0,0.0,0.0,0.0,0.0,0.0,-0.0449,-0.1572,-0.3594,-0.3589,-0.3589,-0.3589,-0.3589,-0.3589,1.1389,1.1308,0.0,1.1031,1.1047,0.0,1.0911,0.0,0.0,0.0,0.0,0.0,0.0,0.0,1.0525,1.0606,1.0612,1.0463,0.0,0.0,0.0,0.0,0.0,0.0,0.0,0.0,0.0,0.0,0.0,0.0,0.0,0.0,0.0,0.0,0.0,0.0,0.0,0.0,0.0,0.0,0.0,0.0,0.0,0.0,0.0,0.0,0.0,0.0,0.0,0.0,0.0,0.0,0.0,0.0,0.0,0.0,0.0,0.0,0.0,0.0,0.0,0.0,0.0,0.0,0.0,0.0,0.0,0.0,0.0,0.0,0.0,0.0,0.0,0.0,0.0,0.0,0.0,0.0,0.0,0.0,0.0,0.0,0.0,0.0,0.0,0.0,0.0,0.0,0.0,0.0,0.0,0.0,0.0,0.0,0.0,0.0,0.0,0.0,0.0,0.0,0.0,0.0,0.0,0.0,0.0,-0.0672,-0.2226,-0.2687,-0.3141,-0.3589,-0.3589,-0.3589]}]]